Wetterdaten: aktuell Freitag, 07.10.2022 13:44
Datum Zeit Temp. A. Boden +5cm Boden -5cm Boden -10cm Boden -20cm Feuchte A. Blattfeuchte Bodenf. -5cm Bodenf.-10cm Bodenf.-20cm Bodenf.-50cm Luftdruck Regen Wind Richtung Richtung Sonnenschein ET UV Solar Taupunkt Windchill Windben
07.10.2022 13:44 16,0 C 22,2 C 10,0 C 10,0 C 10,0 C 61 % 0 lf 34 cb 185 cb 112 cb 43 cb 1023,7 hPa 0,0 l/m 0,4 km/h (0 Bft) S-SW 212 1 min 0,000 mm 2,3 UV-I 422 W/m 8,5 C 16,0 C 4,8 km/h (1 Bft)
07.10.2022 13:43 16,0 C 22,2 C 10,0 C 10,0 C 10,0 C 61 % 0 lf 34 cb 185 cb 112 cb 43 cb 1023,7 hPa 0,0 l/m 0,0 km/h (0 Bft) S-SW 213 1 min 0,000 mm 2,3 UV-I 388 W/m 8,5 C 16,0 C 0,0 km/h (0 Bft)
07.10.2022 13:42 16,0 C 21,7 C 10,0 C 10,0 C 10,0 C 60 % 0 lf 34 cb 185 cb 112 cb 43 cb 1023,7 hPa 0,0 l/m 0,2 km/h (0 Bft) S-SW 213 1 min 0,000 mm 2,3 UV-I 381 W/m 8,2 C 16,0 C 4,8 km/h (1 Bft)
07.10.2022 13:41 16,0 C 21,7 C 10,0 C 10,0 C 10,0 C 59 % 0 lf 34 cb 185 cb 112 cb 43 cb 1023,8 hPa 0,0 l/m 0,6 km/h (0 Bft) SW 215 1 min 0,000 mm 2,4 UV-I 374 W/m 8,0 C 16,0 C 3,2 km/h (1 Bft)
07.10.2022 13:40 16,0 C 21,1 C 10,0 C 10,0 C 10,0 C 60 % 0 lf 34 cb 185 cb 112 cb 43 cb 1023,8 hPa 0,0 l/m 0,6 km/h (0 Bft) SW 215 1 min 0,000 mm 2,4 UV-I 371 W/m 8,2 C 16,0 C 4,8 km/h (1 Bft)
07.10.2022 13:39 16,0 C 20,6 C 10,0 C 10,0 C 10,0 C 60 % 0 lf 34 cb 185 cb 112 cb 43 cb 1023,9 hPa 0,0 l/m 0,0 km/h (0 Bft) SW 216 1 min 0,000 mm 2,4 UV-I 364 W/m 8,2 C 16,0 C 0,0 km/h (0 Bft)
07.10.2022 13:38 16,0 C 20,6 C 10,0 C 10,0 C 10,0 C 60 % 0 lf 34 cb 185 cb 112 cb 43 cb 1023,9 hPa 0,0 l/m 0,1 km/h (0 Bft) SW 216 1 min 0,000 mm 2,3 UV-I 359 W/m 8,2 C 16,0 C 1,6 km/h (1 Bft)
07.10.2022 13:37 16,1 C 21,1 C 10,0 C 10,0 C 10,0 C 60 % 0 lf 34 cb 185 cb 112 cb 43 cb 1023,9 hPa 0,0 l/m 1,9 km/h (1 Bft) SW 216 1 min 0,000 mm 2,3 UV-I 357 W/m 8,3 C 16,1 C 6,4 km/h (2 Bft)
07.10.2022 13:36 16,1 C 21,1 C 10,0 C 10,0 C 10,0 C 60 % 0 lf 34 cb 185 cb 112 cb 43 cb 1023,9 hPa 0,0 l/m 1,7 km/h (1 Bft) SW 216 1 min 0,000 mm 2,3 UV-I 360 W/m 8,3 C 16,1 C 6,4 km/h (2 Bft)
07.10.2022 13:35 16,1 C 21,1 C 10,0 C 10,0 C 10,0 C 63 % 0 lf 34 cb 185 cb 112 cb 43 cb 1023,9 hPa 0,0 l/m 0,0 km/h (0 Bft) SW 217 1 min 0,000 mm 2,4 UV-I 385 W/m 9,1 C 16,1 C 0,0 km/h (0 Bft)
07.10.2022 13:34 16,1 C 21,1 C 10,0 C 10,0 C 10,0 C 62 % 0 lf 34 cb 185 cb 112 cb 43 cb 1024,0 hPa 0,0 l/m 0,6 km/h (0 Bft) SW 217 1 min 0,000 mm 2,3 UV-I 403 W/m 8,8 C 16,1 C 3,2 km/h (1 Bft)
07.10.2022 13:33 16,0 C 21,7 C 10,0 C 10,0 C 10,0 C 61 % 0 lf 34 cb 185 cb 112 cb 43 cb 1024,0 hPa 0,0 l/m 0,8 km/h (0 Bft) SW 217 1 min 0,000 mm 2,4 UV-I 431 W/m 8,5 C 16,0 C 4,8 km/h (1 Bft)
07.10.2022 13:32 15,9 C 21,1 C 10,0 C 10,0 C 10,0 C 61 % 0 lf 34 cb 185 cb 112 cb 43 cb 1024,0 hPa 0,0 l/m 2,2 km/h (1 Bft) SW 217 1 min 0,000 mm 2,3 UV-I 445 W/m 8,4 C 15,9 C 6,4 km/h (2 Bft)
07.10.2022 13:31 15,9 C 20,0 C 10,0 C 10,0 C 10,0 C 61 % 0 lf 33 cb 185 cb 112 cb 43 cb 1024,0 hPa 0,0 l/m 5,6 km/h (1 Bft) SW 215 1 min 0,000 mm 2,4 UV-I 496 W/m 8,4 C 15,9 C 9,7 km/h (2 Bft)
07.10.2022 13:30 15,9 C 18,9 C 10,0 C 10,0 C 10,0 C 63 % 0 lf 33 cb 185 cb 112 cb 43 cb 1024,0 hPa 0,0 l/m 3,2 km/h (1 Bft) S-SW 207 1 min 0,000 mm 2,4 UV-I 510 W/m 8,9 C 15,9 C 9,7 km/h (2 Bft)
07.10.2022 13:29 15,9 C 18,9 C 10,0 C 10,0 C 10,0 C 64 % 0 lf 33 cb 185 cb 112 cb 43 cb 1024,0 hPa 0,0 l/m 0,0 km/h (0 Bft) S-SW 195 2 min 0,000 mm 2,4 UV-I 520 W/m 9,1 C 15,9 C 1,6 km/h (1 Bft)
07.10.2022 13:27 15,9 C 18,9 C 10,0 C 10,0 C 10,0 C 65 % 0 lf 33 cb 186 cb 112 cb 43 cb 1024,0 hPa 0,0 l/m 0,0 km/h (0 Bft) S-SW 195 1 min 0,000 mm 2,3 UV-I 522 W/m 9,3 C 15,9 C 0,0 km/h (0 Bft)
07.10.2022 13:26 15,8 C 18,3 C 10,0 C 10,0 C 10,0 C 65 % 0 lf 32 cb 186 cb 112 cb 43 cb 1024,0 hPa 0,0 l/m 1,2 km/h (1 Bft) S-SW 195 1 min 0,000 mm 2,3 UV-I 512 W/m 9,2 C 15,8 C 6,4 km/h (2 Bft)
07.10.2022 13:25 15,8 C 18,3 C 10,0 C 10,0 C 10,0 C 63 % 0 lf 32 cb 186 cb 112 cb 43 cb 1024,1 hPa 0,0 l/m 2,4 km/h (1 Bft) S-SW 195 1 min 0,000 mm 2,4 UV-I 547 W/m 8,8 C 15,8 C 8,0 km/h (2 Bft)
07.10.2022 13:24 15,8 C 18,3 C 10,0 C 10,0 C 10,0 C 64 % 0 lf 32 cb 186 cb 112 cb 43 cb 1024,1 hPa 0,0 l/m 0,2 km/h (0 Bft) S-SW 194 1 min 0,000 mm 2,4 UV-I 552 W/m 9,0 C 15,8 C 1,6 km/h (1 Bft)
07.10.2022 13:23 15,8 C 18,3 C 10,0 C 10,0 C 10,0 C 64 % 0 lf 33 cb 186 cb 112 cb 43 cb 1024,1 hPa 0,0 l/m 0,0 km/h (0 Bft) S-SW 194 1 min 0,000 mm 2,4 UV-I 554 W/m 9,0 C 15,8 C 0,0 km/h (0 Bft)
07.10.2022 13:22 15,8 C 17,8 C 10,0 C 10,0 C 10,0 C 65 % 0 lf 32 cb 186 cb 112 cb 43 cb 1024,2 hPa 0,0 l/m 1,3 km/h (1 Bft) S-SW 194 1 min 0,000 mm 2,4 UV-I 554 W/m 9,2 C 15,8 C 4,8 km/h (1 Bft)
07.10.2022 13:21 15,8 C 17,2 C 10,0 C 10,0 C 10,0 C 67 % 0 lf 32 cb 186 cb 112 cb 43 cb 1024,1 hPa 0,0 l/m 0,0 km/h (0 Bft) S-SW 194 1 min 0,000 mm 2,4 UV-I 552 W/m 9,7 C 15,8 C 0,0 km/h (0 Bft)
07.10.2022 13:20 15,7 C 17,2 C 10,0 C 10,0 C 10,0 C 65 % 0 lf 32 cb 186 cb 112 cb 43 cb 1024,2 hPa 0,0 l/m 0,0 km/h (0 Bft) S-SW 194 1 min 0,000 mm 2,3 UV-I 538 W/m 9,1 C 15,7 C 0,0 km/h (0 Bft)
07.10.2022 13:19 15,7 C 17,2 C 10,0 C 10,0 C 10,0 C 65 % 0 lf 32 cb 186 cb 112 cb 43 cb 1024,2 hPa 0,0 l/m 1,8 km/h (1 Bft) S-SW 194 1 min 0,000 mm 2,3 UV-I 540 W/m 9,1 C 15,7 C 9,7 km/h (2 Bft)
07.10.2022 13:18 15,7 C 16,7 C 10,0 C 10,0 C 10,0 C 65 % 0 lf 32 cb 186 cb 112 cb 43 cb 1024,2 hPa 0,0 l/m 1,2 km/h (1 Bft) S-SW 203 1 min 0,000 mm 2,3 UV-I 545 W/m 9,1 C 15,7 C 6,4 km/h (2 Bft)
07.10.2022 13:17 15,7 C 16,7 C 10,0 C 10,0 C 10,0 C 63 % 0 lf 32 cb 186 cb 112 cb 43 cb 1024,3 hPa 0,0 l/m 0,7 km/h (0 Bft) S-SW 211 1 min 0,000 mm 2,2 UV-I 548 W/m 8,7 C 15,7 C 4,8 km/h (1 Bft)
07.10.2022 13:16 15,7 C 16,7 C 10,0 C 10,0 C 10,0 C 62 % 0 lf 32 cb 186 cb 112 cb 43 cb 1024,3 hPa 0,0 l/m 3,7 km/h (1 Bft) S-SW 211 1 min 0,000 mm 2,1 UV-I 550 W/m 8,4 C 15,7 C 8,0 km/h (2 Bft)
07.10.2022 13:15 15,7 C 17,2 C 10,0 C 10,0 C 10,0 C 65 % 0 lf 33 cb 186 cb 112 cb 43 cb 1024,4 hPa 0,0 l/m 0,5 km/h (0 Bft) SW 225 1 min 0,000 mm 1,8 UV-I 557 W/m 9,1 C 15,7 C 4,8 km/h (1 Bft)
07.10.2022 13:14 15,6 C 17,2 C 10,0 C 10,0 C 10,0 C 65 % 0 lf 33 cb 186 cb 112 cb 43 cb 1024,3 hPa 0,0 l/m 0,3 km/h (0 Bft) SW 225 1 min 0,000 mm 1,7 UV-I 554 W/m 9,0 C 15,6 C 3,2 km/h (1 Bft)
07.10.2022 13:13 15,6 C 16,7 C 10,0 C 10,0 C 10,0 C 65 % 0 lf 32 cb 186 cb 112 cb 43 cb 1024,3 hPa 0,0 l/m 0,3 km/h (0 Bft) SW 225 1 min 0,000 mm 1,6 UV-I 550 W/m 9,0 C 15,6 C 3,2 km/h (1 Bft)
07.10.2022 13:12 15,6 C 16,7 C 10,0 C 10,0 C 10,0 C 66 % 0 lf 32 cb 186 cb 112 cb 43 cb 1024,3 hPa 0,0 l/m 0,1 km/h (0 Bft) SW 225 1 min 0,000 mm 1,5 UV-I 548 W/m 9,3 C 15,6 C 1,6 km/h (1 Bft)
07.10.2022 13:11 15,5 C 16,7 C 10,0 C 10,0 C 10,0 C 65 % 0 lf 33 cb 187 cb 112 cb 43 cb 1024,3 hPa 0,0 l/m 0,0 km/h (0 Bft) SW 225 1 min 0,000 mm 1,6 UV-I 554 W/m 8,9 C 15,5 C 0,0 km/h (0 Bft)
07.10.2022 13:10 15,5 C 16,7 C 10,0 C 10,0 C 10,0 C 65 % 0 lf 33 cb 187 cb 112 cb 43 cb 1024,4 hPa 0,0 l/m 0,0 km/h (0 Bft) SW 225 1 min 0,000 mm 1,6 UV-I 554 W/m 8,9 C 15,5 C 0,0 km/h (0 Bft)
07.10.2022 13:09 15,5 C 16,1 C 10,0 C 10,0 C 10,0 C 66 % 0 lf 33 cb 187 cb 112 cb 43 cb 1024,4 hPa 0,0 l/m 0,5 km/h (0 Bft) SW 225 1 min 0,000 mm 1,7 UV-I 547 W/m 9,2 C 15,5 C 3,2 km/h (1 Bft)
07.10.2022 13:08 15,5 C 15,6 C 10,0 C 10,0 C 10,0 C 66 % 0 lf 32 cb 187 cb 112 cb 43 cb 1024,5 hPa 0,0 l/m 3,7 km/h (1 Bft) SW 225 1 min 0,000 mm 1,8 UV-I 557 W/m 9,2 C 15,5 C 8,0 km/h (2 Bft)
07.10.2022 13:07 15,4 C 15,0 C 10,0 C 10,0 C 10,0 C 66 % 0 lf 32 cb 187 cb 112 cb 43 cb 1024,5 hPa 0,0 l/m 1,6 km/h (1 Bft) SW 225 2 min 0,000 mm 1,8 UV-I 547 W/m 9,1 C 15,4 C 9,7 km/h (2 Bft)
07.10.2022 13:05 15,4 C 13,9 C 10,0 C 10,0 C 10,0 C 64 % 0 lf 32 cb 187 cb 112 cb 43 cb 1024,5 hPa 0,0 l/m 0,0 km/h (0 Bft) SW 227 1 min 0,000 mm 1,9 UV-I 555 W/m 8,6 C 15,4 C 0,0 km/h (0 Bft)
07.10.2022 13:04 15,4 C 13,9 C 10,0 C 10,0 C 10,0 C 65 % 0 lf 32 cb 187 cb 112 cb 43 cb 1024,6 hPa 0,0 l/m 1,6 km/h (1 Bft) SW 227 1 min 0,000 mm 1,9 UV-I 548 W/m 8,9 C 15,4 C 6,4 km/h (2 Bft)
07.10.2022 13:03 15,4 C 13,9 C 10,0 C 10,0 C 10,0 C 65 % 0 lf 32 cb 187 cb 113 cb 43 cb 1024,6 hPa 0,0 l/m 2,3 km/h (1 Bft) SW 227 1 min 0,000 mm 2,0 UV-I 527 W/m 8,9 C 15,4 C 6,4 km/h (2 Bft)
07.10.2022 13:02 15,4 C 13,3 C 9,4 C 10,0 C 10,0 C 65 % 0 lf 32 cb 185 cb 112 cb 43 cb 1024,6 hPa 0,0 l/m 3,8 km/h (1 Bft) SW 226 1 min 0,000 mm 2,2 UV-I 533 W/m 8,9 C 15,4 C 9,7 km/h (2 Bft)
07.10.2022 13:01 15,4 C 13,3 C 9,4 C 10,0 C 10,0 C 65 % 0 lf 32 cb 185 cb 113 cb 43 cb 1024,6 hPa 0,0 l/m 0,0 km/h (0 Bft) SW 226 1 min 0,000 mm 2,2 UV-I 533 W/m 8,9 C 15,4 C 0,0 km/h (0 Bft)
07.10.2022 13:00 15,4 C 13,3 C 9,4 C 10,0 C 10,0 C 65 % 0 lf 32 cb 185 cb 113 cb 43 cb 1024,6 hPa 0,0 l/m 1,3 km/h (1 Bft) SW 226 1 min 0,178 mm 2,1 UV-I 541 W/m 8,9 C 15,4 C 4,8 km/h (1 Bft)
07.10.2022 12:59 15,3 C 13,3 C 9,4 C 10,0 C 9,4 C 67 % 0 lf 32 cb 185 cb 113 cb 43 cb 1024,6 hPa 0,0 l/m 4,6 km/h (1 Bft) SW 226 1 min 0,000 mm 2,2 UV-I 550 W/m 9,2 C 15,3 C 11,3 km/h (2 Bft)
07.10.2022 12:58 15,3 C 12,8 C 9,4 C 10,0 C 9,4 C 67 % 0 lf 31 cb 185 cb 113 cb 43 cb 1024,6 hPa 0,0 l/m 2,3 km/h (1 Bft) SW 223 1 min 0,000 mm 2,3 UV-I 543 W/m 9,2 C 15,3 C 12,9 km/h (3 Bft)
07.10.2022 12:57 15,2 C 12,8 C 9,4 C 10,0 C 9,4 C 69 % 0 lf 31 cb 185 cb 113 cb 43 cb 1024,6 hPa 0,0 l/m 1,2 km/h (1 Bft) W 259 1 min 0,000 mm 2,4 UV-I 492 W/m 9,6 C 15,2 C 8,0 km/h (2 Bft)
07.10.2022 12:56 15,1 C 12,8 C 9,4 C 10,0 C 9,4 C 67 % 0 lf 31 cb 185 cb 113 cb 43 cb 1024,6 hPa 0,0 l/m 0,6 km/h (0 Bft) W-SW 257 1 min 0,000 mm 2,3 UV-I 534 W/m 9,0 C 15,1 C 3,2 km/h (1 Bft)
07.10.2022 12:55 15,0 C 12,8 C 9,4 C 10,0 C 9,4 C 66 % 0 lf 31 cb 185 cb 113 cb 43 cb 1024,7 hPa 0,0 l/m 1,4 km/h (1 Bft) W-SW 257 1 min 0,000 mm 2,2 UV-I 550 W/m 8,7 C 15,0 C 6,4 km/h (2 Bft)
07.10.2022 12:54 15,0 C 12,8 C 9,4 C 10,0 C 9,4 C 66 % 0 lf 31 cb 185 cb 113 cb 43 cb 1024,6 hPa 0,0 l/m 1,2 km/h (1 Bft) W-SW 256 1 min 0,000 mm 2,2 UV-I 545 W/m 8,7 C 15,0 C 4,8 km/h (1 Bft)
07.10.2022 12:53 15,0 C 12,8 C 9,4 C 10,0 C 9,4 C 67 % 0 lf 31 cb 185 cb 113 cb 43 cb 1024,7 hPa 0,0 l/m 3,0 km/h (1 Bft) W-SW 256 1 min 0,000 mm 2,2 UV-I 529 W/m 8,9 C 15,0 C 6,4 km/h (2 Bft)
07.10.2022 12:52 15,0 C 12,8 C 9,4 C 10,0 C 9,4 C 68 % 0 lf 31 cb 185 cb 113 cb 43 cb 1024,7 hPa 0,0 l/m 0,9 km/h (0 Bft) W-SW 256 1 min 0,000 mm 2,0 UV-I 499 W/m 9,1 C 15,0 C 3,2 km/h (1 Bft)
07.10.2022 12:51 15,0 C 12,8 C 9,4 C 10,0 C 9,4 C 67 % 0 lf 31 cb 185 cb 113 cb 43 cb 1024,7 hPa 0,0 l/m 2,5 km/h (1 Bft) W-SW 256 1 min 0,000 mm 1,8 UV-I 487 W/m 8,9 C 15,0 C 8,0 km/h (2 Bft)
07.10.2022 12:50 15,0 C 12,8 C 9,4 C 10,0 C 9,4 C 68 % 0 lf 31 cb 185 cb 113 cb 43 cb 1024,7 hPa 0,0 l/m 1,2 km/h (1 Bft) W-SW 256 1 min 0,000 mm 2,1 UV-I 513 W/m 9,1 C 15,0 C 8,0 km/h (2 Bft)
07.10.2022 12:49 15,0 C 12,8 C 9,4 C 10,0 C 9,4 C 69 % 0 lf 31 cb 185 cb 113 cb 43 cb 1024,8 hPa 0,0 l/m 3,2 km/h (1 Bft) W-SW 257 1 min 0,000 mm 2,1 UV-I 461 W/m 9,4 C 15,0 C 8,0 km/h (2 Bft)
07.10.2022 12:48 15,0 C 12,8 C 9,4 C 10,0 C 9,4 C 69 % 0 lf 31 cb 185 cb 113 cb 43 cb 1024,8 hPa 0,0 l/m 1,9 km/h (1 Bft) W-SW 257 1 min 0,000 mm 2,2 UV-I 392 W/m 9,4 C 15,0 C 6,4 km/h (2 Bft)
07.10.2022 12:47 15,0 C 12,8 C 9,4 C 10,0 C 9,4 C 70 % 0 lf 31 cb 185 cb 113 cb 43 cb 1024,8 hPa 0,0 l/m 0,2 km/h (0 Bft) W-SW 257 1 min 0,000 mm 2,1 UV-I 383 W/m 9,6 C 15,0 C 1,6 km/h (1 Bft)
07.10.2022 12:46 14,9 C 12,8 C 9,4 C 10,0 C 9,4 C 70 % 0 lf 31 cb 185 cb 113 cb 43 cb 1024,8 hPa 0,0 l/m 1,5 km/h (1 Bft) W-SW 257 1 min 0,000 mm 2,2 UV-I 454 W/m 9,5 C 14,9 C 4,8 km/h (1 Bft)
07.10.2022 12:45 14,8 C 12,8 C 9,4 C 10,0 C 9,4 C 71 % 0 lf 31 cb 185 cb 113 cb 43 cb 1024,8 hPa 0,0 l/m 0,0 km/h (0 Bft) W-SW 257 1 min 0,000 mm 2,2 UV-I 415 W/m 9,6 C 14,8 C 0,0 km/h (0 Bft)
07.10.2022 12:44 14,8 C 12,8 C 9,4 C 10,0 C 9,4 C 70 % 0 lf 31 cb 185 cb 113 cb 43 cb 1024,9 hPa 0,0 l/m 0,0 km/h (0 Bft) W-SW 257 1 min 0,000 mm 2,1 UV-I 439 W/m 9,4 C 14,8 C 0,0 km/h (0 Bft)
07.10.2022 12:43 14,7 C 12,8 C 9,4 C 10,0 C 9,4 C 70 % 0 lf 31 cb 185 cb 113 cb 43 cb 1024,8 hPa 0,0 l/m 0,1 km/h (0 Bft) W-SW 257 1 min 0,000 mm 2,0 UV-I 466 W/m 9,3 C 14,7 C 1,6 km/h (1 Bft)
07.10.2022 12:42 14,7 C 12,8 C 9,4 C 10,0 C 9,4 C 71 % 0 lf 31 cb 185 cb 113 cb 43 cb 1024,8 hPa 0,0 l/m 2,6 km/h (1 Bft) W-SW 257 1 min 0,000 mm 2,0 UV-I 462 W/m 9,5 C 14,7 C 8,0 km/h (2 Bft)
07.10.2022 12:41 14,6 C 12,2 C 9,4 C 10,0 C 9,4 C 70 % 0 lf 31 cb 185 cb 113 cb 43 cb 1024,9 hPa 0,0 l/m 0,2 km/h (0 Bft) W-SW 257 1 min 0,000 mm 2,0 UV-I 434 W/m 9,2 C 14,6 C 1,6 km/h (1 Bft)
07.10.2022 12:40 14,5 C 12,2 C 9,4 C 10,0 C 9,4 C 69 % 0 lf 31 cb 185 cb 113 cb 43 cb 1024,8 hPa 0,0 l/m 0,1 km/h (0 Bft) W-SW 257 1 min 0,000 mm 1,9 UV-I 399 W/m 8,9 C 14,5 C 1,6 km/h (1 Bft)
07.10.2022 12:39 14,5 C 12,2 C 9,4 C 10,0 C 9,4 C 69 % 0 lf 31 cb 185 cb 113 cb 43 cb 1024,9 hPa 0,0 l/m 0,1 km/h (0 Bft) W-SW 257 1 min 0,000 mm 1,8 UV-I 392 W/m 8,9 C 14,5 C 1,6 km/h (1 Bft)
07.10.2022 12:38 14,4 C 12,2 C 9,4 C 10,0 C 9,4 C 68 % 0 lf 31 cb 185 cb 113 cb 43 cb 1024,8 hPa 0,0 l/m 0,8 km/h (0 Bft) W-SW 257 1 min 0,000 mm 1,7 UV-I 383 W/m 8,6 C 14,4 C 4,8 km/h (1 Bft)
07.10.2022 12:37 14,4 C 12,2 C 9,4 C 10,0 C 9,4 C 68 % 0 lf 31 cb 185 cb 113 cb 43 cb 1024,9 hPa 0,0 l/m 1,6 km/h (1 Bft) W-SW 257 1 min 0,000 mm 1,7 UV-I 341 W/m 8,6 C 14,4 C 8,0 km/h (2 Bft)
07.10.2022 12:36 14,4 C 12,2 C 9,4 C 10,0 C 9,4 C 68 % 0 lf 31 cb 185 cb 113 cb 43 cb 1024,9 hPa 0,0 l/m 0,1 km/h (0 Bft) W 261 1 min 0,000 mm 1,7 UV-I 318 W/m 8,6 C 14,4 C 1,6 km/h (1 Bft)
07.10.2022 12:35 14,4 C 12,2 C 9,4 C 10,0 C 9,4 C 69 % 0 lf 31 cb 185 cb 113 cb 43 cb 1024,9 hPa 0,0 l/m 0,7 km/h (0 Bft) W 261 1 min 0,000 mm 1,8 UV-I 318 W/m 8,8 C 14,4 C 4,8 km/h (1 Bft)
07.10.2022 12:34 14,4 C 12,2 C 9,4 C 10,0 C 9,4 C 68 % 0 lf 31 cb 185 cb 113 cb 43 cb 1024,9 hPa 0,0 l/m 3,9 km/h (1 Bft) W 262 0 min 0,000 mm 1,9 UV-I 287 W/m 8,6 C 14,4 C 9,7 km/h (2 Bft)
07.10.2022 12:33 14,4 C 12,2 C 9,4 C 10,0 C 9,4 C 69 % 0 lf 31 cb 185 cb 113 cb 43 cb 1024,9 hPa 0,0 l/m 1,8 km/h (1 Bft) W 263 1 min 0,000 mm 1,8 UV-I 308 W/m 8,8 C 14,4 C 9,7 km/h (2 Bft)
07.10.2022 12:32 14,4 C 12,2 C 9,4 C 9,4 C 9,4 C 70 % 0 lf 31 cb 185 cb 112 cb 43 cb 1024,9 hPa 0,0 l/m 2,4 km/h (1 Bft) W-SW 255 1 min 0,000 mm 1,8 UV-I 373 W/m 9,0 C 14,4 C 9,7 km/h (2 Bft)
07.10.2022 12:31 14,4 C 12,2 C 9,4 C 9,4 C 9,4 C 70 % 0 lf 31 cb 185 cb 112 cb 43 cb 1025,0 hPa 0,0 l/m 0,2 km/h (0 Bft) W-SW 253 1 min 0,000 mm 1,8 UV-I 346 W/m 9,0 C 14,4 C 3,2 km/h (1 Bft)
07.10.2022 12:30 14,4 C 12,2 C 9,4 C 9,4 C 9,4 C 70 % 0 lf 31 cb 185 cb 112 cb 43 cb 1025,0 hPa 0,0 l/m 0,8 km/h (0 Bft) W-SW 253 1 min 0,000 mm 1,9 UV-I 346 W/m 9,0 C 14,4 C 3,2 km/h (1 Bft)
07.10.2022 12:29 14,4 C 12,2 C 9,4 C 9,4 C 9,4 C 70 % 0 lf 31 cb 185 cb 112 cb 43 cb 1025,0 hPa 0,0 l/m 2,1 km/h (1 Bft) W-SW 253 1 min 0,000 mm 1,7 UV-I 309 W/m 9,0 C 14,4 C 8,0 km/h (2 Bft)
07.10.2022 12:28 14,3 C 12,2 C 9,4 C 9,4 C 9,4 C 70 % 0 lf 31 cb 185 cb 112 cb 43 cb 1025,0 hPa 0,0 l/m 5,9 km/h (2 Bft) W-SW 254 1 min 0,000 mm 1,8 UV-I 302 W/m 8,9 C 14,3 C 9,7 km/h (2 Bft)
07.10.2022 12:27 14,3 C 12,2 C 9,4 C 9,4 C 9,4 C 71 % 0 lf 31 cb 185 cb 112 cb 43 cb 1025,0 hPa 0,0 l/m 1,7 km/h (1 Bft) W-SW 257 2 min 0,000 mm 1,9 UV-I 311 W/m 9,1 C 14,3 C 8,0 km/h (2 Bft)
07.10.2022 12:25 14,3 C 12,2 C 9,4 C 9,4 C 9,4 C 71 % 0 lf 31 cb 185 cb 112 cb 43 cb 1025,0 hPa 0,0 l/m 1,5 km/h (1 Bft) W-SW 257 1 min 0,000 mm 1,9 UV-I 323 W/m 9,1 C 14,3 C 9,7 km/h (2 Bft)
07.10.2022 12:24 14,3 C 12,2 C 9,4 C 9,4 C 9,4 C 70 % 0 lf 31 cb 186 cb 112 cb 43 cb 1025,0 hPa 0,0 l/m 0,5 km/h (0 Bft) W 262 1 min 0,000 mm 1,9 UV-I 366 W/m 8,9 C 14,3 C 4,8 km/h (1 Bft)
07.10.2022 12:23 14,3 C 12,2 C 9,4 C 9,4 C 9,4 C 70 % 0 lf 31 cb 185 cb 112 cb 43 cb 1025,1 hPa 0,0 l/m 1,3 km/h (1 Bft) W 262 1 min 0,000 mm 1,8 UV-I 315 W/m 8,9 C 14,3 C 4,8 km/h (1 Bft)
07.10.2022 12:22 14,3 C 12,2 C 9,4 C 9,4 C 9,4 C 70 % 0 lf 31 cb 186 cb 112 cb 43 cb 1025,1 hPa 0,0 l/m 0,0 km/h (0 Bft) W 262 1 min 0,000 mm 1,9 UV-I 320 W/m 8,9 C 14,3 C 0,0 km/h (0 Bft)
07.10.2022 12:21 14,3 C 12,2 C 9,4 C 9,4 C 9,4 C 71 % 0 lf 31 cb 186 cb 112 cb 43 cb 1025,1 hPa 0,0 l/m 0,9 km/h (0 Bft) W 262 1 min 0,000 mm 1,8 UV-I 309 W/m 9,1 C 14,3 C 3,2 km/h (1 Bft)
07.10.2022 12:20 14,3 C 12,2 C 9,4 C 9,4 C 9,4 C 72 % 0 lf 31 cb 186 cb 112 cb 43 cb 1025,1 hPa 0,0 l/m 2,8 km/h (1 Bft) W 262 1 min 0,000 mm 1,8 UV-I 350 W/m 9,3 C 14,3 C 9,7 km/h (2 Bft)
07.10.2022 12:19 14,2 C 12,2 C 9,4 C 9,4 C 9,4 C 72 % 0 lf 31 cb 186 cb 112 cb 43 cb 1025,1 hPa 0,0 l/m 0,0 km/h (0 Bft) W 260 1 min 0,000 mm 1,8 UV-I 330 W/m 9,2 C 14,2 C 0,0 km/h (0 Bft)
07.10.2022 12:18 14,2 C 12,2 C 9,4 C 9,4 C 9,4 C 70 % 0 lf 31 cb 186 cb 112 cb 43 cb 1025,1 hPa 0,0 l/m 0,5 km/h (0 Bft) W 260 1 min 0,000 mm 1,8 UV-I 304 W/m 8,8 C 14,2 C 3,2 km/h (1 Bft)
07.10.2022 12:17 14,2 C 12,2 C 9,4 C 9,4 C 9,4 C 71 % 0 lf 31 cb 186 cb 112 cb 43 cb 1025,1 hPa 0,0 l/m 0,1 km/h (0 Bft) W 260 1 min 0,000 mm 1,7 UV-I 302 W/m 9,0 C 14,2 C 1,6 km/h (1 Bft)
07.10.2022 12:16 14,2 C 12,2 C 9,4 C 9,4 C 9,4 C 72 % 0 lf 31 cb 186 cb 112 cb 43 cb 1025,1 hPa 0,0 l/m 2,9 km/h (1 Bft) W 260 1 min 0,000 mm 1,5 UV-I 316 W/m 9,2 C 14,2 C 6,4 km/h (2 Bft)
07.10.2022 12:15 14,1 C 12,2 C 9,4 C 9,4 C 9,4 C 72 % 0 lf 31 cb 186 cb 112 cb 43 cb 1025,2 hPa 0,0 l/m 0,3 km/h (0 Bft) W 260 1 min 0,000 mm 1,6 UV-I 295 W/m 9,1 C 14,1 C 6,4 km/h (2 Bft)
07.10.2022 12:14 14,1 C 12,2 C 9,4 C 9,4 C 9,4 C 73 % 0 lf 31 cb 186 cb 112 cb 43 cb 1025,1 hPa 0,0 l/m 5,4 km/h (1 Bft) W 260 0 min 0,000 mm 1,5 UV-I 237 W/m 9,3 C 14,1 C 8,0 km/h (2 Bft)
07.10.2022 12:13 14,0 C 12,2 C 9,4 C 9,4 C 9,4 C 71 % 0 lf 31 cb 186 cb 112 cb 43 cb 1025,2 hPa 0,0 l/m 1,4 km/h (1 Bft) W 263 0 min 0,000 mm 1,5 UV-I 253 W/m 8,8 C 14,0 C 4,8 km/h (1 Bft)
07.10.2022 12:12 13,9 C 12,2 C 9,4 C 9,4 C 9,4 C 71 % 0 lf 31 cb 186 cb 112 cb 43 cb 1025,3 hPa 0,0 l/m 0,0 km/h (0 Bft) W 263 0 min 0,000 mm 1,4 UV-I 290 W/m 8,7 C 13,9 C 0,0 km/h (0 Bft)
07.10.2022 12:11 13,9 C 12,2 C 9,4 C 9,4 C 9,4 C 71 % 0 lf 31 cb 186 cb 112 cb 43 cb 1025,2 hPa 0,0 l/m 0,9 km/h (0 Bft) W 263 0 min 0,000 mm 1,4 UV-I 251 W/m 8,7 C 13,9 C 4,8 km/h (1 Bft)
07.10.2022 12:10 13,9 C 12,2 C 9,4 C 9,4 C 9,4 C 72 % 0 lf 31 cb 186 cb 112 cb 43 cb 1025,3 hPa 0,0 l/m 2,3 km/h (1 Bft) W 263 0 min 0,000 mm 1,4 UV-I 236 W/m 8,9 C 13,9 C 8,0 km/h (2 Bft)
07.10.2022 12:09 13,9 C 12,2 C 9,4 C 9,4 C 9,4 C 72 % 0 lf 31 cb 186 cb 112 cb 43 cb 1025,3 hPa 0,0 l/m 0,1 km/h (0 Bft) W 264 0 min 0,000 mm 1,4 UV-I 174 W/m 8,9 C 13,9 C 1,6 km/h (1 Bft)
07.10.2022 12:08 13,9 C 12,2 C 9,4 C 9,4 C 9,4 C 73 % 0 lf 31 cb 186 cb 112 cb 43 cb 1025,3 hPa 0,0 l/m 1,1 km/h (1 Bft) W 264 0 min 0,000 mm 1,4 UV-I 202 W/m 9,1 C 13,9 C 3,2 km/h (1 Bft)
07.10.2022 12:07 13,8 C 11,7 C 9,4 C 9,4 C 9,4 C 73 % 0 lf 31 cb 186 cb 112 cb 43 cb 1025,3 hPa 0,0 l/m 1,0 km/h (0 Bft) W 264 0 min 0,000 mm 1,4 UV-I 214 W/m 9,0 C 13,8 C 6,4 km/h (2 Bft)
07.10.2022 12:06 13,8 C 11,7 C 9,4 C 9,4 C 9,4 C 72 % 0 lf 31 cb 186 cb 112 cb 43 cb 1025,3 hPa 0,0 l/m 0,2 km/h (0 Bft) W 263 0 min 0,000 mm 1,2 UV-I 239 W/m 8,8 C 13,8 C 3,2 km/h (1 Bft)
07.10.2022 12:05 13,7 C 11,7 C 9,4 C 9,4 C 9,4 C 72 % 0 lf 31 cb 186 cb 112 cb 43 cb 1025,3 hPa 0,0 l/m 0,4 km/h (0 Bft) W 263 0 min 0,000 mm 1,1 UV-I 246 W/m 8,7 C 13,7 C 3,2 km/h (1 Bft)
07.10.2022 12:04 13,7 C 11,7 C 9,4 C 9,4 C 9,4 C 73 % 0 lf 31 cb 186 cb 112 cb 43 cb 1025,3 hPa 0,0 l/m 0,2 km/h (0 Bft) W 263 0 min 0,000 mm 1,2 UV-I 160 W/m 8,9 C 13,7 C 1,6 km/h (1 Bft)
07.10.2022 12:03 13,7 C 11,7 C 9,4 C 9,4 C 9,4 C 72 % 0 lf 31 cb 186 cb 112 cb 43 cb 1025,3 hPa 0,0 l/m 0,7 km/h (0 Bft) W 263 0 min 0,000 mm 1,2 UV-I 141 W/m 8,7 C 13,7 C 3,2 km/h (1 Bft)
07.10.2022 12:02 13,7 C 11,7 C 9,4 C 9,4 C 9,4 C 72 % 0 lf 31 cb 186 cb 112 cb 43 cb 1025,3 hPa 0,0 l/m 2,2 km/h (1 Bft) W 263 0 min 0,000 mm 1,2 UV-I 144 W/m 8,7 C 13,7 C 11,3 km/h (2 Bft)
07.10.2022 12:01 13,6 C 11,7 C 9,4 C 9,4 C 9,4 C 72 % 0 lf 31 cb 186 cb 112 cb 43 cb 1025,3 hPa 0,0 l/m 3,8 km/h (1 Bft) W-SW 258 0 min 0,000 mm 1,2 UV-I 171 W/m 8,6 C 13,6 C 11,3 km/h (2 Bft)
07.10.2022 12:00 13,6 C 11,7 C 9,4 C 9,4 C 9,4 C 72 % 0 lf 31 cb 186 cb 112 cb 43 cb 1025,3 hPa 0,0 l/m 4,0 km/h (1 Bft) W-SW 252 0 min 0,051 mm 1,2 UV-I 169 W/m 8,6 C 13,6 C 9,7 km/h (2 Bft)
07.10.2022 11:59 13,6 C 11,7 C 9,4 C 9,4 C 9,4 C 72 % 0 lf 31 cb 186 cb 112 cb 43 cb 1025,3 hPa 0,0 l/m 1,6 km/h (1 Bft) W-SW 253 0 min 0,000 mm 1,1 UV-I 176 W/m 8,6 C 13,6 C 6,4 km/h (2 Bft)
07.10.2022 11:58 13,6 C 11,7 C 9,4 C 9,4 C 9,4 C 73 % 0 lf 31 cb 186 cb 112 cb 43 cb 1025,3 hPa 0,0 l/m 3,4 km/h (1 Bft) W-SW 252 0 min 0,000 mm 1,1 UV-I 197 W/m 8,9 C 13,6 C 8,0 km/h (2 Bft)
07.10.2022 11:57 13,6 C 11,7 C 9,4 C 9,4 C 9,4 C 72 % 0 lf 31 cb 186 cb 112 cb 43 cb 1025,3 hPa 0,0 l/m 4,4 km/h (1 Bft) W-SW 250 0 min 0,000 mm 1,0 UV-I 162 W/m 8,6 C 13,6 C 11,3 km/h (2 Bft)
07.10.2022 11:56 13,6 C 11,7 C 9,4 C 9,4 C 9,4 C 73 % 0 lf 31 cb 186 cb 112 cb 43 cb 1025,4 hPa 0,0 l/m 2,6 km/h (1 Bft) W-SW 242 0 min 0,000 mm 1,1 UV-I 134 W/m 8,9 C 13,6 C 4,8 km/h (1 Bft)
07.10.2022 11:55 13,6 C 11,7 C 9,4 C 9,4 C 9,4 C 73 % 0 lf 31 cb 186 cb 112 cb 43 cb 1025,3 hPa 0,0 l/m 2,3 km/h (1 Bft) W-SW 242 0 min 0,000 mm 1,2 UV-I 121 W/m 8,9 C 13,6 C 6,4 km/h (2 Bft)
07.10.2022 11:54 13,6 C 11,7 C 9,4 C 9,4 C 9,4 C 73 % 0 lf 31 cb 186 cb 112 cb 43 cb 1025,4 hPa 0,0 l/m 2,2 km/h (1 Bft) W-SW 242 0 min 0,000 mm 1,2 UV-I 123 W/m 8,9 C 13,6 C 6,4 km/h (2 Bft)
07.10.2022 11:52 13,6 C 11,7 C 9,4 C 9,4 C 9,4 C 74 % 0 lf 31 cb 186 cb 112 cb 43 cb 1025,4 hPa 0,0 l/m 1,4 km/h (1 Bft) W-SW 242 0 min 0,000 mm 1,1 UV-I 195 W/m 9,1 C 13,6 C 6,4 km/h (2 Bft)
07.10.2022 11:51 13,6 C 11,7 C 9,4 C 9,4 C 9,4 C 73 % 0 lf 31 cb 186 cb 112 cb 43 cb 1025,4 hPa 0,0 l/m 2,2 km/h (1 Bft) W-SW 242 0 min 0,000 mm 1,0 UV-I 63 W/m 8,9 C 13,6 C 8,0 km/h (2 Bft)
07.10.2022 11:50 13,6 C 11,7 C 9,4 C 9,4 C 9,4 C 73 % 0 lf 31 cb 186 cb 112 cb 43 cb 1025,4 hPa 0,0 l/m 1,6 km/h (1 Bft) W-SW 242 0 min 0,000 mm 0,9 UV-I 63 W/m 8,9 C 13,6 C 6,4 km/h (2 Bft)
07.10.2022 11:49 13,6 C 11,7 C 9,4 C 9,4 C 9,4 C 74 % 0 lf 31 cb 186 cb 112 cb 43 cb 1025,5 hPa 0,0 l/m 5,3 km/h (1 Bft) W-SW 242 0 min 0,000 mm 0,9 UV-I 153 W/m 9,1 C 13,6 C 11,3 km/h (2 Bft)
07.10.2022 11:48 13,6 C 11,7 C 9,4 C 9,4 C 9,4 C 75 % 0 lf 31 cb 186 cb 112 cb 43 cb 1025,5 hPa 0,0 l/m 4,1 km/h (1 Bft) W-SW 246 0 min 0,000 mm 0,9 UV-I 134 W/m 9,3 C 13,6 C 9,7 km/h (2 Bft)
07.10.2022 11:47 13,6 C 11,7 C 9,4 C 9,4 C 9,4 C 74 % 0 lf 31 cb 186 cb 112 cb 43 cb 1025,5 hPa 0,0 l/m 3,8 km/h (1 Bft) W-SW 246 0 min 0,000 mm 0,9 UV-I 97 W/m 9,1 C 13,6 C 9,7 km/h (2 Bft)
07.10.2022 11:46 13,6 C 11,7 C 9,4 C 9,4 C 9,4 C 73 % 0 lf 31 cb 186 cb 112 cb 43 cb 1025,5 hPa 0,0 l/m 2,8 km/h (1 Bft) W-SW 254 0 min 0,000 mm 1,0 UV-I 88 W/m 8,9 C 13,6 C 9,7 km/h (2 Bft)
07.10.2022 11:45 13,6 C 11,7 C 9,4 C 9,4 C 9,4 C 74 % 0 lf 31 cb 186 cb 112 cb 43 cb 1025,5 hPa 0,0 l/m 3,2 km/h (1 Bft) W-SW 253 0 min 0,000 mm 1,0 UV-I 102 W/m 9,1 C 13,6 C 11,3 km/h (2 Bft)
07.10.2022 11:44 13,6 C 11,7 C 9,4 C 9,4 C 9,4 C 74 % 0 lf 31 cb 186 cb 112 cb 43 cb 1025,6 hPa 0,0 l/m 2,6 km/h (1 Bft) SW 222 0 min 0,000 mm 0,9 UV-I 90 W/m 9,1 C 13,6 C 9,7 km/h (2 Bft)
07.10.2022 11:43 13,6 C 11,7 C 9,4 C 9,4 C 9,4 C 74 % 0 lf 31 cb 186 cb 112 cb 43 cb 1025,5 hPa 0,0 l/m 2,6 km/h (1 Bft) SW 220 0 min 0,000 mm 0,9 UV-I 97 W/m 9,1 C 13,6 C 8,0 km/h (2 Bft)
07.10.2022 11:42 13,6 C 11,7 C 9,4 C 9,4 C 9,4 C 74 % 0 lf 31 cb 186 cb 112 cb 43 cb 1025,6 hPa 0,0 l/m 2,4 km/h (1 Bft) SW 220 0 min 0,000 mm 0,9 UV-I 56 W/m 9,1 C 13,6 C 6,4 km/h (2 Bft)
07.10.2022 11:41 13,6 C 11,7 C 9,4 C 9,4 C 9,4 C 74 % 0 lf 31 cb 186 cb 112 cb 43 cb 1025,6 hPa 0,0 l/m 1,0 km/h (0 Bft) SW 219 0 min 0,000 mm 0,0 UV-I 97 W/m 9,1 C 13,6 C 6,4 km/h (2 Bft)
07.10.2022 11:40 13,6 C 11,7 C 9,4 C 9,4 C 9,4 C 74 % 0 lf 31 cb 186 cb 112 cb 43 cb 1025,6 hPa 0,0 l/m 0,4 km/h (0 Bft) SW 219 0 min 0,000 mm 0,8 UV-I 62 W/m 9,1 C 13,6 C 4,8 km/h (1 Bft)
07.10.2022 11:39 13,6 C 11,7 C 9,4 C 9,4 C 9,4 C 75 % 0 lf 31 cb 186 cb 112 cb 43 cb 1025,6 hPa 0,0 l/m 5,3 km/h (1 Bft) SW 219 0 min 0,000 mm 0,9 UV-I 84 W/m 9,3 C 13,6 C 11,3 km/h (2 Bft)
07.10.2022 11:38 13,5 C 11,7 C 9,4 C 9,4 C 9,4 C 75 % 0 lf 31 cb 186 cb 112 cb 43 cb 1025,6 hPa 0,0 l/m 0,3 km/h (0 Bft) SW 217 0 min 0,000 mm 1,0 UV-I 88 W/m 9,2 C 13,5 C 3,2 km/h (1 Bft)
07.10.2022 11:37 13,4 C 11,7 C 9,4 C 9,4 C 9,4 C 76 % 0 lf 31 cb 186 cb 112 cb 43 cb 1025,6 hPa 0,0 l/m 2,4 km/h (1 Bft) SW 218 0 min 0,000 mm 1,0 UV-I 114 W/m 9,3 C 13,4 C 11,3 km/h (2 Bft)
07.10.2022 11:36 13,4 C 11,7 C 9,4 C 9,4 C 9,4 C 76 % 0 lf 31 cb 186 cb 112 cb 43 cb 1025,6 hPa 0,0 l/m 1,2 km/h (1 Bft) SW 215 0 min 0,000 mm 0,9 UV-I 172 W/m 9,3 C 13,4 C 4,8 km/h (1 Bft)
07.10.2022 11:35 13,4 C 11,7 C 9,4 C 9,4 C 9,4 C 76 % 0 lf 31 cb 186 cb 112 cb 43 cb 1025,6 hPa 0,0 l/m 3,6 km/h (1 Bft) SW 215 0 min 0,000 mm 0,9 UV-I 163 W/m 9,3 C 13,4 C 9,7 km/h (2 Bft)
07.10.2022 11:34 13,3 C 11,7 C 9,4 C 9,4 C 9,4 C 77 % 0 lf 31 cb 186 cb 112 cb 43 cb 1025,6 hPa 0,0 l/m 1,0 km/h (0 Bft) SW 215 0 min 0,000 mm 0,9 UV-I 111 W/m 9,4 C 13,3 C 4,8 km/h (1 Bft)
07.10.2022 11:33 13,3 C 11,7 C 9,4 C 9,4 C 9,4 C 76 % 0 lf 31 cb 186 cb 112 cb 43 cb 1025,6 hPa 0,0 l/m 0,3 km/h (0 Bft) S-SW 213 0 min 0,000 mm 0,9 UV-I 114 W/m 9,2 C 13,3 C 3,2 km/h (1 Bft)
07.10.2022 11:32 13,2 C 11,7 C 9,4 C 9,4 C 9,4 C 75 % 0 lf 31 cb 186 cb 112 cb 43 cb 1025,7 hPa 0,0 l/m 0,7 km/h (0 Bft) S-SW 213 0 min 0,000 mm 0,9 UV-I 105 W/m 8,9 C 13,2 C 4,8 km/h (1 Bft)
07.10.2022 11:31 13,2 C 11,7 C 9,4 C 9,4 C 9,4 C 75 % 0 lf 31 cb 186 cb 112 cb 43 cb 1025,7 hPa 0,0 l/m 0,6 km/h (0 Bft) S-SW 213 0 min 0,000 mm 0,8 UV-I 105 W/m 8,9 C 13,2 C 3,2 km/h (1 Bft)
07.10.2022 11:30 13,2 C 11,7 C 9,4 C 9,4 C 9,4 C 75 % 0 lf 31 cb 186 cb 112 cb 43 cb 1025,7 hPa 0,0 l/m 1,9 km/h (1 Bft) S-SW 213 0 min 0,000 mm 0,8 UV-I 100 W/m 8,9 C 13,2 C 8,0 km/h (2 Bft)
07.10.2022 11:29 13,2 C 11,7 C 9,4 C 9,4 C 9,4 C 75 % 0 lf 31 cb 186 cb 112 cb 43 cb 1025,7 hPa 0,0 l/m 0,0 km/h (0 Bft) S-SW 209 0 min 0,000 mm 0,9 UV-I 93 W/m 8,9 C 13,2 C 0,0 km/h (0 Bft)
07.10.2022 11:28 13,2 C 11,7 C 9,4 C 9,4 C 9,4 C 75 % 0 lf 31 cb 186 cb 112 cb 43 cb 1025,7 hPa 0,0 l/m 1,3 km/h (1 Bft) S-SW 209 0 min 0,000 mm 0,9 UV-I 91 W/m 8,9 C 13,2 C 8,0 km/h (2 Bft)
07.10.2022 11:27 13,2 C 11,7 C 9,4 C 9,4 C 9,4 C 75 % 0 lf 31 cb 186 cb 112 cb 43 cb 1025,7 hPa 0,0 l/m 0,1 km/h (0 Bft) S-SW 209 0 min 0,000 mm 0,8 UV-I 76 W/m 8,9 C 13,2 C 1,6 km/h (1 Bft)
07.10.2022 11:26 13,2 C 11,7 C 9,4 C 9,4 C 9,4 C 75 % 0 lf 31 cb 186 cb 112 cb 43 cb 1025,7 hPa 0,0 l/m 0,2 km/h (0 Bft) S-SW 209 0 min 0,000 mm 0,8 UV-I 137 W/m 8,9 C 13,2 C 4,8 km/h (1 Bft)
07.10.2022 11:25 13,2 C 11,7 C 9,4 C 9,4 C 9,4 C 75 % 0 lf 31 cb 186 cb 112 cb 43 cb 1025,7 hPa 0,0 l/m 3,6 km/h (1 Bft) S-SW 209 0 min 0,000 mm 0,8 UV-I 174 W/m 8,9 C 13,2 C 9,7 km/h (2 Bft)
07.10.2022 11:24 13,2 C 11,7 C 9,4 C 9,4 C 9,4 C 75 % 0 lf 31 cb 186 cb 112 cb 43 cb 1025,7 hPa 0,0 l/m 1,8 km/h (1 Bft) SW 216 0 min 0,000 mm 0,8 UV-I 195 W/m 8,9 C 13,2 C 4,8 km/h (1 Bft)
07.10.2022 11:23 13,2 C 11,7 C 9,4 C 9,4 C 9,4 C 76 % 0 lf 31 cb 188 cb 112 cb 43 cb 1025,7 hPa 0,0 l/m 1,3 km/h (1 Bft) SW 234 0 min 0,000 mm 0,8 UV-I 79 W/m 9,1 C 13,2 C 8,0 km/h (2 Bft)
07.10.2022 11:22 13,2 C 11,7 C 9,4 C 9,4 C 9,4 C 76 % 0 lf 31 cb 188 cb 112 cb 43 cb 1025,7 hPa 0,0 l/m 0,0 km/h (0 Bft) W-SW 240 0 min 0,000 mm 0,8 UV-I 74 W/m 9,1 C 13,2 C 0,0 km/h (0 Bft)
07.10.2022 11:21 13,2 C 11,1 C 8,9 C 9,4 C 9,4 C 77 % 0 lf 31 cb 186 cb 112 cb 43 cb 1025,7 hPa 0,0 l/m 0,0 km/h (0 Bft) W-SW 240 0 min 0,000 mm 0,8 UV-I 76 W/m 9,3 C 13,2 C 0,0 km/h (0 Bft)
07.10.2022 11:20 13,2 C 11,1 C 8,9 C 9,4 C 9,4 C 77 % 0 lf 31 cb 186 cb 112 cb 43 cb 1025,7 hPa 0,0 l/m 1,7 km/h (1 Bft) W-SW 240 0 min 0,000 mm 0,8 UV-I 74 W/m 9,3 C 13,2 C 8,0 km/h (2 Bft)
07.10.2022 11:19 13,1 C 11,7 C 8,9 C 9,4 C 9,4 C 77 % 0 lf 31 cb 186 cb 112 cb 43 cb 1025,7 hPa 0,0 l/m 3,1 km/h (1 Bft) W-SW 238 0 min 0,000 mm 0,7 UV-I 76 W/m 9,2 C 13,1 C 11,3 km/h (2 Bft)
07.10.2022 11:18 13,1 C 11,7 C 8,9 C 9,4 C 9,4 C 78 % 0 lf 31 cb 186 cb 112 cb 43 cb 1025,7 hPa 0,0 l/m 2,7 km/h (1 Bft) W-SW 238 0 min 0,000 mm 0,7 UV-I 76 W/m 9,4 C 13,1 C 9,7 km/h (2 Bft)
07.10.2022 11:17 13,1 C 11,7 C 8,9 C 9,4 C 9,4 C 80 % 0 lf 31 cb 186 cb 112 cb 43 cb 1025,8 hPa 0,0 l/m 1,1 km/h (1 Bft) W-SW 238 0 min 0,000 mm 0,7 UV-I 79 W/m 9,7 C 13,1 C 4,8 km/h (1 Bft)
07.10.2022 11:16 13,1 C 11,1 C 8,9 C 9,4 C 9,4 C 80 % 0 lf 31 cb 186 cb 112 cb 43 cb 1025,9 hPa 0,0 l/m 1,9 km/h (1 Bft) W-SW 238 0 min 0,000 mm 0,7 UV-I 77 W/m 9,7 C 13,1 C 6,4 km/h (2 Bft)
07.10.2022 11:15 13,0 C 11,1 C 8,9 C 9,4 C 9,4 C 79 % 0 lf 31 cb 186 cb 112 cb 43 cb 1025,8 hPa 0,0 l/m 0,1 km/h (0 Bft) W-SW 238 0 min 0,000 mm 0,7 UV-I 79 W/m 9,4 C 13,0 C 1,6 km/h (1 Bft)
07.10.2022 11:14 13,0 C 11,1 C 8,9 C 9,4 C 9,4 C 80 % 0 lf 31 cb 186 cb 112 cb 43 cb 1025,8 hPa 0,0 l/m 0,0 km/h (0 Bft) W-SW 238 0 min 0,000 mm 0,7 UV-I 72 W/m 9,6 C 13,0 C 0,0 km/h (0 Bft)
07.10.2022 11:13 12,9 C 11,1 C 8,9 C 9,4 C 9,4 C 80 % 0 lf 31 cb 186 cb 112 cb 43 cb 1025,9 hPa 0,0 l/m 0,0 km/h (0 Bft) W-SW 238 0 min 0,000 mm 0,7 UV-I 77 W/m 9,5 C 12,9 C 0,0 km/h (0 Bft)
07.10.2022 11:12 12,9 C 11,1 C 8,9 C 9,4 C 9,4 C 80 % 0 lf 31 cb 186 cb 112 cb 43 cb 1025,9 hPa 0,0 l/m 1,9 km/h (1 Bft) W-SW 238 0 min 0,000 mm 0,7 UV-I 77 W/m 9,5 C 12,9 C 8,0 km/h (2 Bft)
07.10.2022 11:11 12,8 C 11,1 C 8,9 C 9,4 C 9,4 C 79 % 0 lf 31 cb 186 cb 112 cb 43 cb 1025,9 hPa 0,0 l/m 0,1 km/h (0 Bft) W-SW 238 0 min 0,000 mm 0,7 UV-I 72 W/m 9,2 C 12,8 C 1,6 km/h (1 Bft)
07.10.2022 11:10 12,8 C 11,1 C 8,9 C 9,4 C 9,4 C 79 % 0 lf 31 cb 186 cb 112 cb 43 cb 1025,9 hPa 0,0 l/m 0,0 km/h (0 Bft) W-SW 238 0 min 0,000 mm 0,7 UV-I 72 W/m 9,2 C 12,8 C 0,0 km/h (0 Bft)
07.10.2022 11:09 12,8 C 11,7 C 8,9 C 9,4 C 9,4 C 78 % 0 lf 31 cb 186 cb 112 cb 43 cb 1025,9 hPa 0,0 l/m 0,0 km/h (0 Bft) W-SW 238 0 min 0,000 mm 0,7 UV-I 72 W/m 9,1 C 12,8 C 0,0 km/h (0 Bft)
07.10.2022 11:08 12,8 C 11,7 C 8,9 C 9,4 C 9,4 C 79 % 0 lf 31 cb 186 cb 112 cb 43 cb 1025,9 hPa 0,0 l/m 0,5 km/h (0 Bft) W-SW 238 0 min 0,000 mm 0,7 UV-I 70 W/m 9,2 C 12,8 C 3,2 km/h (1 Bft)
07.10.2022 11:07 12,7 C 11,7 C 8,9 C 9,4 C 9,4 C 78 % 0 lf 31 cb 186 cb 112 cb 43 cb 1025,9 hPa 0,0 l/m 0,0 km/h (0 Bft) W-SW 238 0 min 0,000 mm 0,7 UV-I 72 W/m 9,0 C 12,7 C 0,0 km/h (0 Bft)
07.10.2022 11:06 12,7 C 11,1 C 8,9 C 9,4 C 9,4 C 79 % 0 lf 31 cb 186 cb 112 cb 43 cb 1025,9 hPa 0,0 l/m 0,5 km/h (0 Bft) W-SW 238 0 min 0,000 mm 0,7 UV-I 72 W/m 9,2 C 12,7 C 4,8 km/h (1 Bft)
07.10.2022 11:05 12,7 C 11,1 C 8,9 C 9,4 C 9,4 C 80 % 0 lf 31 cb 186 cb 112 cb 43 cb 1025,9 hPa 0,0 l/m 0,9 km/h (0 Bft) W-SW 238 0 min 0,000 mm 0,7 UV-I 72 W/m 9,3 C 12,7 C 8,0 km/h (2 Bft)
07.10.2022 11:04 12,7 C 11,1 C 8,9 C 9,4 C 9,4 C 81 % 0 lf 31 cb 186 cb 112 cb 43 cb 1025,9 hPa 0,0 l/m 0,3 km/h (0 Bft) W-SW 240 0 min 0,000 mm 0,7 UV-I 84 W/m 9,5 C 12,7 C 4,8 km/h (1 Bft)
07.10.2022 11:03 12,6 C 11,1 C 8,9 C 9,4 C 9,4 C 80 % 0 lf 31 cb 186 cb 112 cb 43 cb 1025,9 hPa 0,0 l/m 3,2 km/h (1 Bft) W-SW 243 0 min 0,000 mm 0,7 UV-I 74 W/m 9,2 C 12,6 C 6,4 km/h (2 Bft)
07.10.2022 11:02 12,6 C 11,1 C 8,9 C 9,4 C 9,4 C 81 % 0 lf 31 cb 186 cb 112 cb 43 cb 1025,9 hPa 0,0 l/m 0,0 km/h (0 Bft) W-SW 242 0 min 0,000 mm 0,7 UV-I 74 W/m 9,4 C 12,6 C 0,0 km/h (0 Bft)
07.10.2022 11:01 12,6 C 11,1 C 8,9 C 9,4 C 9,4 C 81 % 0 lf 31 cb 186 cb 112 cb 43 cb 1025,9 hPa 0,0 l/m 0,0 km/h (0 Bft) W-SW 242 0 min 0,000 mm 0,6 UV-I 70 W/m 9,4 C 12,6 C 0,0 km/h (0 Bft)
07.10.2022 11:00 12,5 C 11,1 C 8,9 C 9,4 C 9,4 C 80 % 0 lf 31 cb 186 cb 112 cb 43 cb 1026,0 hPa 0,0 l/m 0,0 km/h (0 Bft) W-SW 242 0 min 0,025 mm 0,6 UV-I 74 W/m 9,1 C 12,5 C 0,0 km/h (0 Bft)
07.10.2022 10:59 12,4 C 11,1 C 8,9 C 9,4 C 9,4 C 80 % 0 lf 31 cb 186 cb 112 cb 43 cb 1026,0 hPa 0,0 l/m 0,0 km/h (0 Bft) W-SW 242 0 min 0,000 mm 0,6 UV-I 77 W/m 9,0 C 12,4 C 0,0 km/h (0 Bft)
07.10.2022 10:58 12,4 C 11,1 C 8,9 C 9,4 C 9,4 C 81 % 0 lf 31 cb 186 cb 112 cb 43 cb 1026,0 hPa 0,0 l/m 0,0 km/h (0 Bft) W-SW 242 0 min 0,000 mm 0,6 UV-I 86 W/m 9,2 C 12,4 C 0,0 km/h (0 Bft)
07.10.2022 10:57 12,4 C 11,1 C 8,9 C 9,4 C 9,4 C 82 % 0 lf 31 cb 186 cb 112 cb 43 cb 1026,0 hPa 0,0 l/m 0,3 km/h (0 Bft) W-SW 242 0 min 0,000 mm 0,6 UV-I 88 W/m 9,4 C 12,4 C 3,2 km/h (1 Bft)
07.10.2022 10:56 12,3 C 10,6 C 8,9 C 9,4 C 9,4 C 81 % 0 lf 31 cb 186 cb 112 cb 43 cb 1026,0 hPa 0,0 l/m 3,1 km/h (1 Bft) W-SW 242 0 min 0,000 mm 0,6 UV-I 77 W/m 9,1 C 12,3 C 9,7 km/h (2 Bft)
07.10.2022 10:55 12,3 C 10,6 C 8,9 C 9,4 C 9,4 C 81 % 0 lf 31 cb 186 cb 112 cb 43 cb 1026,0 hPa 0,0 l/m 0,0 km/h (0 Bft) W-SW 240 0 min 0,000 mm 0,6 UV-I 77 W/m 9,1 C 12,3 C 0,0 km/h (0 Bft)
07.10.2022 10:54 12,2 C 10,6 C 8,9 C 9,4 C 9,4 C 81 % 0 lf 31 cb 186 cb 112 cb 43 cb 1026,1 hPa 0,0 l/m 0,0 km/h (0 Bft) W-SW 240 0 min 0,000 mm 0,6 UV-I 74 W/m 9,0 C 12,2 C 0,0 km/h (0 Bft)
07.10.2022 10:53 12,2 C 10,6 C 8,9 C 9,4 C 9,4 C 81 % 0 lf 31 cb 186 cb 112 cb 43 cb 1026,0 hPa 0,0 l/m 0,2 km/h (0 Bft) W-SW 240 0 min 0,000 mm 0,6 UV-I 74 W/m 9,0 C 12,2 C 3,2 km/h (1 Bft)
07.10.2022 10:52 12,2 C 10,6 C 8,9 C 9,4 C 9,4 C 81 % 0 lf 31 cb 186 cb 112 cb 43 cb 1026,1 hPa 0,0 l/m 0,0 km/h (0 Bft) W-SW 240 0 min 0,000 mm 0,6 UV-I 76 W/m 9,0 C 12,2 C 0,0 km/h (0 Bft)
07.10.2022 10:51 12,1 C 10,6 C 8,9 C 9,4 C 9,4 C 81 % 0 lf 31 cb 186 cb 113 cb 43 cb 1026,1 hPa 0,0 l/m 0,1 km/h (0 Bft) W-SW 240 0 min 0,000 mm 0,6 UV-I 76 W/m 8,9 C 12,1 C 1,6 km/h (1 Bft)
07.10.2022 10:50 12,1 C 10,6 C 8,9 C 9,4 C 9,4 C 81 % 0 lf 31 cb 186 cb 113 cb 43 cb 1026,1 hPa 0,0 l/m 0,1 km/h (0 Bft) W-SW 240 0 min 0,000 mm 0,6 UV-I 81 W/m 8,9 C 12,1 C 1,6 km/h (1 Bft)
07.10.2022 10:49 12,1 C 10,6 C 8,9 C 9,4 C 9,4 C 81 % 0 lf 31 cb 186 cb 113 cb 43 cb 1026,1 hPa 0,0 l/m 0,0 km/h (0 Bft) W-SW 240 0 min 0,000 mm 0,6 UV-I 102 W/m 8,9 C 12,1 C 0,0 km/h (0 Bft)
07.10.2022 10:48 12,1 C 10,6 C 8,9 C 9,4 C 9,4 C 81 % 0 lf 31 cb 186 cb 113 cb 43 cb 1026,1 hPa 0,0 l/m 0,0 km/h (0 Bft) W-SW 240 0 min 0,000 mm 0,6 UV-I 109 W/m 8,9 C 12,1 C 0,0 km/h (0 Bft)
07.10.2022 10:47 12,1 C 10,6 C 8,9 C 9,4 C 9,4 C 81 % 0 lf 31 cb 186 cb 113 cb 43 cb 1026,1 hPa 0,0 l/m 0,0 km/h (0 Bft) W-SW 240 0 min 0,000 mm 0,5 UV-I 74 W/m 8,9 C 12,1 C 0,0 km/h (0 Bft)
07.10.2022 10:46 12,1 C 10,6 C 8,9 C 9,4 C 9,4 C 81 % 0 lf 31 cb 186 cb 113 cb 43 cb 1026,1 hPa 0,0 l/m 0,3 km/h (0 Bft) W-SW 240 0 min 0,000 mm 0,5 UV-I 72 W/m 8,9 C 12,1 C 3,2 km/h (1 Bft)
07.10.2022 10:45 12,0 C 10,6 C 8,9 C 9,4 C 9,4 C 81 % 0 lf 31 cb 186 cb 113 cb 43 cb 1026,1 hPa 0,0 l/m 0,5 km/h (0 Bft) W-SW 240 0 min 0,000 mm 0,5 UV-I 72 W/m 8,8 C 12,0 C 4,8 km/h (1 Bft)
07.10.2022 10:44 12,0 C 10,6 C 8,9 C 9,4 C 9,4 C 81 % 0 lf 31 cb 186 cb 113 cb 43 cb 1026,1 hPa 0,0 l/m 1,0 km/h (0 Bft) W-SW 240 0 min 0,000 mm 0,5 UV-I 70 W/m 8,8 C 12,0 C 8,0 km/h (2 Bft)
07.10.2022 10:43 11,9 C 10,6 C 8,9 C 9,4 C 9,4 C 82 % 0 lf 31 cb 186 cb 113 cb 43 cb 1026,1 hPa 0,0 l/m 0,3 km/h (0 Bft) W-SW 243 0 min 0,000 mm 0,5 UV-I 69 W/m 8,9 C 11,9 C 1,6 km/h (1 Bft)
07.10.2022 10:42 11,9 C 10,6 C 8,9 C 9,4 C 9,4 C 81 % 0 lf 31 cb 186 cb 113 cb 43 cb 1026,2 hPa 0,0 l/m 0,3 km/h (0 Bft) W-SW 243 0 min 0,000 mm 0,5 UV-I 70 W/m 8,7 C 11,9 C 1,6 km/h (1 Bft)
07.10.2022 10:41 11,9 C 10,6 C 8,9 C 9,4 C 9,4 C 81 % 0 lf 31 cb 186 cb 113 cb 43 cb 1026,2 hPa 0,0 l/m 0,0 km/h (0 Bft) W-SW 243 0 min 0,000 mm 0,5 UV-I 72 W/m 8,7 C 11,9 C 0,0 km/h (0 Bft)
07.10.2022 10:40 11,9 C 10,6 C 8,9 C 9,4 C 9,4 C 83 % 0 lf 31 cb 186 cb 113 cb 43 cb 1026,1 hPa 0,0 l/m 0,4 km/h (0 Bft) W-SW 243 0 min 0,000 mm 0,5 UV-I 74 W/m 9,1 C 11,9 C 3,2 km/h (1 Bft)
07.10.2022 10:39 11,8 C 10,0 C 8,9 C 9,4 C 9,4 C 83 % 0 lf 31 cb 186 cb 113 cb 43 cb 1026,1 hPa 0,0 l/m 3,8 km/h (1 Bft) W-SW 243 0 min 0,000 mm 0,5 UV-I 70 W/m 9,0 C 11,8 C 9,7 km/h (2 Bft)
07.10.2022 10:38 11,8 C 10,0 C 8,9 C 9,4 C 9,4 C 83 % 0 lf 31 cb 186 cb 113 cb 43 cb 1026,1 hPa 0,0 l/m 1,0 km/h (0 Bft) W-SW 245 0 min 0,000 mm 0,5 UV-I 72 W/m 9,0 C 11,8 C 4,8 km/h (1 Bft)
07.10.2022 10:37 11,8 C 10,0 C 8,9 C 9,4 C 9,4 C 83 % 0 lf 31 cb 186 cb 113 cb 43 cb 1026,1 hPa 0,0 l/m 1,7 km/h (1 Bft) W-SW 245 0 min 0,000 mm 0,5 UV-I 70 W/m 9,0 C 11,8 C 6,4 km/h (2 Bft)
07.10.2022 10:36 11,7 C 10,0 C 8,9 C 9,4 C 9,4 C 82 % 0 lf 31 cb 186 cb 113 cb 43 cb 1026,1 hPa 0,0 l/m 0,0 km/h (0 Bft) W-SW 245 0 min 0,000 mm 0,5 UV-I 70 W/m 8,7 C 11,7 C 0,0 km/h (0 Bft)
07.10.2022 10:35 11,7 C 10,0 C 8,9 C 9,4 C 9,4 C 82 % 0 lf 31 cb 186 cb 113 cb 43 cb 1026,1 hPa 0,0 l/m 0,0 km/h (0 Bft) W-SW 245 0 min 0,000 mm 0,5 UV-I 74 W/m 8,7 C 11,7 C 0,0 km/h (0 Bft)
07.10.2022 10:34 11,6 C 10,0 C 8,9 C 9,4 C 9,4 C 82 % 0 lf 31 cb 186 cb 113 cb 43 cb 1026,1 hPa 0,0 l/m 0,0 km/h (0 Bft) W-SW 245 0 min 0,000 mm 0,5 UV-I 67 W/m 8,6 C 11,6 C 0,0 km/h (0 Bft)
07.10.2022 10:33 11,6 C 10,0 C 8,9 C 9,4 C 9,4 C 82 % 0 lf 31 cb 186 cb 113 cb 43 cb 1026,2 hPa 0,0 l/m 0,0 km/h (0 Bft) W-SW 245 0 min 0,000 mm 0,5 UV-I 67 W/m 8,6 C 11,6 C 0,0 km/h (0 Bft)
07.10.2022 10:32 11,6 C 10,0 C 8,9 C 9,4 C 9,4 C 82 % 0 lf 31 cb 186 cb 113 cb 43 cb 1026,2 hPa 0,0 l/m 0,5 km/h (0 Bft) W-SW 245 0 min 0,000 mm 0,0 UV-I 69 W/m 8,6 C 11,6 C 4,8 km/h (1 Bft)
07.10.2022 10:31 11,6 C 10,0 C 8,9 C 9,4 C 9,4 C 83 % 0 lf 31 cb 186 cb 113 cb 43 cb 1026,2 hPa 0,0 l/m 0,1 km/h (0 Bft) W-SW 244 0 min 0,000 mm 0,0 UV-I 67 W/m 8,8 C 11,6 C 1,6 km/h (1 Bft)
07.10.2022 10:30 11,6 C 10,0 C 8,9 C 9,4 C 9,4 C 83 % 0 lf 31 cb 186 cb 113 cb 43 cb 1026,2 hPa 0,0 l/m 0,6 km/h (0 Bft) W-SW 244 0 min 0,000 mm 0,0 UV-I 69 W/m 8,8 C 11,6 C 6,4 km/h (2 Bft)
07.10.2022 10:29 11,5 C 10,0 C 8,9 C 9,4 C 9,4 C 83 % 0 lf 31 cb 186 cb 113 cb 43 cb 1026,2 hPa 0,0 l/m 0,3 km/h (0 Bft) W-SW 246 0 min 0,000 mm 0,0 UV-I 67 W/m 8,7 C 11,5 C 3,2 km/h (1 Bft)
07.10.2022 10:28 11,5 C 10,0 C 8,9 C 9,4 C 9,4 C 83 % 0 lf 31 cb 186 cb 113 cb 43 cb 1026,3 hPa 0,0 l/m 0,5 km/h (0 Bft) W-SW 246 0 min 0,000 mm 0,0 UV-I 67 W/m 8,7 C 11,5 C 4,8 km/h (1 Bft)
07.10.2022 10:27 11,4 C 10,0 C 8,9 C 9,4 C 9,4 C 83 % 0 lf 31 cb 186 cb 113 cb 43 cb 1026,3 hPa 0,0 l/m 2,0 km/h (1 Bft) W-SW 246 0 min 0,000 mm 0,0 UV-I 67 W/m 8,6 C 11,4 C 8,0 km/h (2 Bft)
07.10.2022 10:26 11,4 C 10,0 C 8,9 C 9,4 C 9,4 C 83 % 0 lf 31 cb 186 cb 113 cb 43 cb 1026,3 hPa 0,0 l/m 0,3 km/h (0 Bft) W-SW 246 0 min 0,000 mm 0,0 UV-I 65 W/m 8,6 C 11,4 C 1,6 km/h (1 Bft)
07.10.2022 10:25 11,4 C 10,0 C 8,9 C 9,4 C 9,4 C 84 % 0 lf 31 cb 186 cb 113 cb 43 cb 1026,3 hPa 0,0 l/m 0,8 km/h (0 Bft) W-SW 246 0 min 0,000 mm 0,0 UV-I 65 W/m 8,8 C 11,4 C 6,4 km/h (2 Bft)
07.10.2022 10:24 11,3 C 10,0 C 8,9 C 9,4 C 9,4 C 84 % 0 lf 31 cb 187 cb 113 cb 43 cb 1026,3 hPa 0,0 l/m 1,3 km/h (1 Bft) W-SW 247 0 min 0,000 mm 0,0 UV-I 63 W/m 8,7 C 11,3 C 9,7 km/h (2 Bft)
07.10.2022 10:23 11,3 C 10,0 C 8,9 C 9,4 C 9,4 C 84 % 0 lf 31 cb 187 cb 113 cb 43 cb 1026,3 hPa 0,0 l/m 1,9 km/h (1 Bft) W-SW 247 0 min 0,000 mm 0,0 UV-I 63 W/m 8,7 C 11,3 C 8,0 km/h (2 Bft)
07.10.2022 10:22 11,3 C 10,0 C 8,9 C 9,4 C 9,4 C 85 % 0 lf 31 cb 187 cb 113 cb 43 cb 1026,3 hPa 0,0 l/m 0,1 km/h (0 Bft) W-SW 247 0 min 0,000 mm 0,0 UV-I 63 W/m 8,9 C 11,3 C 1,6 km/h (1 Bft)
07.10.2022 10:21 11,3 C 9,4 C 8,9 C 9,4 C 9,4 C 85 % 0 lf 30 cb 187 cb 113 cb 43 cb 1026,3 hPa 0,0 l/m 0,1 km/h (0 Bft) W-SW 248 0 min 0,000 mm 0,0 UV-I 65 W/m 8,9 C 11,3 C 1,6 km/h (1 Bft)
07.10.2022 10:20 11,3 C 9,4 C 8,9 C 9,4 C 9,4 C 85 % 0 lf 30 cb 187 cb 113 cb 43 cb 1026,3 hPa 0,0 l/m 1,1 km/h (1 Bft) W-SW 248 0 min 0,000 mm 0,0 UV-I 67 W/m 8,9 C 11,3 C 4,8 km/h (1 Bft)
07.10.2022 10:19 11,2 C 9,4 C 8,9 C 9,4 C 9,4 C 85 % 0 lf 30 cb 187 cb 113 cb 43 cb 1026,3 hPa 0,0 l/m 0,0 km/h (0 Bft) W-SW 248 0 min 0,000 mm 0,0 UV-I 67 W/m 8,8 C 11,2 C 0,0 km/h (0 Bft)
07.10.2022 10:18 11,2 C 9,4 C 8,9 C 9,4 C 9,4 C 85 % 0 lf 30 cb 187 cb 113 cb 43 cb 1026,3 hPa 0,0 l/m 0,0 km/h (0 Bft) W-SW 248 0 min 0,000 mm 0,0 UV-I 69 W/m 8,8 C 11,2 C 0,0 km/h (0 Bft)
07.10.2022 10:17 11,1 C 9,4 C 8,9 C 9,4 C 9,4 C 85 % 0 lf 30 cb 187 cb 113 cb 43 cb 1026,3 hPa 0,0 l/m 0,7 km/h (0 Bft) W-SW 248 0 min 0,000 mm 0,0 UV-I 67 W/m 8,7 C 11,1 C 6,4 km/h (2 Bft)
07.10.2022 10:16 11,1 C 9,4 C 8,9 C 9,4 C 9,4 C 85 % 0 lf 30 cb 187 cb 113 cb 43 cb 1026,2 hPa 0,0 l/m 0,1 km/h (0 Bft) W-SW 248 0 min 0,000 mm 0,0 UV-I 67 W/m 8,7 C 11,1 C 1,6 km/h (1 Bft)
07.10.2022 10:15 11,0 C 9,4 C 8,9 C 9,4 C 9,4 C 85 % 0 lf 30 cb 187 cb 113 cb 43 cb 1026,3 hPa 0,0 l/m 0,0 km/h (0 Bft) W-SW 248 0 min 0,000 mm 0,0 UV-I 63 W/m 8,6 C 11,0 C 0,0 km/h (0 Bft)
07.10.2022 10:14 11,0 C 9,4 C 8,9 C 9,4 C 9,4 C 84 % 0 lf 30 cb 187 cb 113 cb 43 cb 1026,3 hPa 0,0 l/m 0,9 km/h (0 Bft) W-SW 248 0 min 0,000 mm 0,0 UV-I 62 W/m 8,4 C 11,0 C 6,4 km/h (2 Bft)
07.10.2022 10:13 10,9 C 9,4 C 8,9 C 9,4 C 9,4 C 84 % 0 lf 30 cb 187 cb 113 cb 43 cb 1026,4 hPa 0,0 l/m 0,0 km/h (0 Bft) W-SW 248 0 min 0,000 mm 0,0 UV-I 60 W/m 8,3 C 10,9 C 0,0 km/h (0 Bft)
07.10.2022 10:12 10,9 C 9,4 C 8,9 C 9,4 C 9,4 C 84 % 0 lf 30 cb 187 cb 113 cb 43 cb 1026,3 hPa 0,0 l/m 0,0 km/h (0 Bft) W-SW 248 0 min 0,000 mm 0,0 UV-I 62 W/m 8,3 C 10,9 C 0,0 km/h (0 Bft)
07.10.2022 10:11 10,9 C 9,4 C 8,9 C 9,4 C 9,4 C 85 % 0 lf 30 cb 187 cb 113 cb 43 cb 1026,3 hPa 0,0 l/m 0,6 km/h (0 Bft) W-SW 248 0 min 0,000 mm 0,0 UV-I 62 W/m 8,5 C 10,9 C 4,8 km/h (1 Bft)
07.10.2022 10:09 10,8 C 9,4 C 8,9 C 9,4 C 9,4 C 85 % 0 lf 30 cb 187 cb 113 cb 43 cb 1026,4 hPa 0,0 l/m 1,3 km/h (1 Bft) W-SW 248 0 min 0,000 mm 0,0 UV-I 62 W/m 8,4 C 10,8 C 4,8 km/h (1 Bft)
07.10.2022 10:08 10,8 C 9,4 C 8,9 C 9,4 C 9,4 C 86 % 0 lf 30 cb 187 cb 113 cb 43 cb 1026,4 hPa 0,0 l/m 0,0 km/h (0 Bft) W-SW 248 0 min 0,000 mm 0,0 UV-I 62 W/m 8,6 C 10,8 C 0,0 km/h (0 Bft)
07.10.2022 10:07 10,8 C 9,4 C 8,9 C 9,4 C 9,4 C 85 % 0 lf 30 cb 187 cb 113 cb 43 cb 1026,4 hPa 0,0 l/m 0,3 km/h (0 Bft) W-SW 248 0 min 0,000 mm 0,0 UV-I 62 W/m 8,4 C 10,8 C 1,6 km/h (1 Bft)
07.10.2022 10:06 10,7 C 9,4 C 8,9 C 9,4 C 9,4 C 85 % 0 lf 30 cb 187 cb 113 cb 43 cb 1026,4 hPa 0,0 l/m 0,7 km/h (0 Bft) W-SW 248 0 min 0,000 mm 0,0 UV-I 62 W/m 8,3 C 10,7 C 4,8 km/h (1 Bft)
07.10.2022 10:05 10,7 C 9,4 C 8,9 C 9,4 C 9,4 C 85 % 0 lf 30 cb 187 cb 113 cb 43 cb 1026,4 hPa 0,0 l/m 0,0 km/h (0 Bft) W-SW 248 0 min 0,000 mm 0,0 UV-I 62 W/m 8,3 C 10,7 C 0,0 km/h (0 Bft)
07.10.2022 10:04 10,7 C 9,4 C 8,9 C 9,4 C 9,4 C 85 % 0 lf 30 cb 187 cb 113 cb 43 cb 1026,4 hPa 0,0 l/m 0,6 km/h (0 Bft) W-SW 248 0 min 0,000 mm 0,0 UV-I 62 W/m 8,3 C 10,7 C 3,2 km/h (1 Bft)
07.10.2022 10:03 10,7 C 9,4 C 8,9 C 9,4 C 9,4 C 85 % 0 lf 30 cb 187 cb 113 cb 43 cb 1026,4 hPa 0,0 l/m 0,0 km/h (0 Bft) W-SW 248 0 min 0,000 mm 0,0 UV-I 62 W/m 8,3 C 10,7 C 0,0 km/h (0 Bft)
07.10.2022 10:02 10,7 C 8,9 C 8,9 C 9,4 C 9,4 C 85 % 0 lf 30 cb 187 cb 113 cb 43 cb 1026,4 hPa 0,0 l/m 0,0 km/h (0 Bft) W-SW 248 0 min 0,000 mm 0,0 UV-I 62 W/m 8,3 C 10,7 C 0,0 km/h (0 Bft)
07.10.2022 10:01 10,7 C 8,9 C 8,9 C 9,4 C 9,4 C 86 % 0 lf 30 cb 187 cb 113 cb 43 cb 1026,4 hPa 0,0 l/m 0,0 km/h (0 Bft) W-SW 248 0 min 0,000 mm 0,0 UV-I 62 W/m 8,5 C 10,7 C 0,0 km/h (0 Bft)
07.10.2022 10:00 10,7 C 8,9 C 8,9 C 9,4 C 9,4 C 86 % 0 lf 30 cb 187 cb 113 cb 43 cb 1026,4 hPa 0,0 l/m 0,0 km/h (0 Bft) W-SW 248 0 min 0,026 mm 0,0 UV-I 60 W/m 8,5 C 10,7 C 0,0 km/h (0 Bft)
07.10.2022 09:59 10,7 C 8,9 C 8,9 C 9,4 C 9,4 C 86 % 0 lf 30 cb 187 cb 113 cb 43 cb 1026,4 hPa 0,0 l/m 0,0 km/h (0 Bft) W-SW 248 0 min 0,000 mm 0,0 UV-I 62 W/m 8,5 C 10,7 C 0,0 km/h (0 Bft)
07.10.2022 09:58 10,6 C 8,9 C 8,9 C 9,4 C 9,4 C 86 % 0 lf 30 cb 187 cb 113 cb 43 cb 1026,4 hPa 0,0 l/m 0,0 km/h (0 Bft) W-SW 248 0 min 0,000 mm 0,0 UV-I 63 W/m 8,4 C 10,6 C 0,0 km/h (0 Bft)
07.10.2022 09:57 10,6 C 8,9 C 8,9 C 9,4 C 9,4 C 86 % 0 lf 30 cb 187 cb 113 cb 43 cb 1026,4 hPa 0,0 l/m 0,0 km/h (0 Bft) W-SW 248 0 min 0,000 mm 0,0 UV-I 65 W/m 8,4 C 10,6 C 0,0 km/h (0 Bft)
07.10.2022 09:56 10,6 C 8,9 C 8,9 C 9,4 C 9,4 C 86 % 0 lf 30 cb 187 cb 113 cb 43 cb 1026,4 hPa 0,0 l/m 0,0 km/h (0 Bft) W-SW 248 0 min 0,000 mm 0,0 UV-I 56 W/m 8,4 C 10,6 C 0,0 km/h (0 Bft)
07.10.2022 09:55 10,6 C 8,9 C 8,9 C 9,4 C 9,4 C 86 % 0 lf 30 cb 187 cb 113 cb 43 cb 1026,4 hPa 0,0 l/m 0,0 km/h (0 Bft) W-SW 248 0 min 0,000 mm 0,0 UV-I 53 W/m 8,4 C 10,6 C 0,0 km/h (0 Bft)
07.10.2022 09:54 10,6 C 8,9 C 8,9 C 9,4 C 9,4 C 86 % 0 lf 30 cb 187 cb 113 cb 43 cb 1026,4 hPa 0,0 l/m 1,5 km/h (1 Bft) W-SW 249 0 min 0,000 mm 0,0 UV-I 51 W/m 8,4 C 10,6 C 8,0 km/h (2 Bft)
07.10.2022 09:53 10,6 C 8,9 C 8,9 C 9,4 C 9,4 C 86 % 0 lf 30 cb 187 cb 113 cb 43 cb 1026,5 hPa 0,0 l/m 0,0 km/h (0 Bft) W-SW 251 0 min 0,000 mm 0,0 UV-I 49 W/m 8,4 C 10,6 C 0,0 km/h (0 Bft)
07.10.2022 09:52 10,5 C 8,9 C 8,9 C 9,4 C 9,4 C 86 % 0 lf 30 cb 187 cb 113 cb 43 cb 1026,5 hPa 0,0 l/m 1,8 km/h (1 Bft) W-SW 251 0 min 0,000 mm 0,0 UV-I 51 W/m 8,3 C 10,5 C 6,4 km/h (2 Bft)
07.10.2022 09:51 10,5 C 8,9 C 8,9 C 9,4 C 9,4 C 86 % 0 lf 30 cb 187 cb 113 cb 43 cb 1026,4 hPa 0,0 l/m 0,0 km/h (0 Bft) W-SW 254 0 min 0,000 mm 0,0 UV-I 49 W/m 8,3 C 10,5 C 0,0 km/h (0 Bft)
07.10.2022 09:50 10,5 C 8,9 C 8,9 C 9,4 C 9,4 C 86 % 0 lf 30 cb 187 cb 113 cb 43 cb 1026,5 hPa 0,0 l/m 0,0 km/h (0 Bft) W-SW 254 0 min 0,000 mm 0,0 UV-I 49 W/m 8,3 C 10,5 C 0,0 km/h (0 Bft)
07.10.2022 09:49 10,4 C 8,9 C 8,9 C 9,4 C 9,4 C 86 % 0 lf 30 cb 187 cb 113 cb 43 cb 1026,5 hPa 0,0 l/m 0,1 km/h (0 Bft) W-SW 254 0 min 0,000 mm 0,0 UV-I 49 W/m 8,2 C 10,4 C 1,6 km/h (1 Bft)
07.10.2022 09:48 10,4 C 8,9 C 8,9 C 9,4 C 9,4 C 86 % 0 lf 30 cb 187 cb 113 cb 43 cb 1026,5 hPa 0,0 l/m 1,2 km/h (1 Bft) W-SW 254 0 min 0,000 mm 0,0 UV-I 53 W/m 8,2 C 10,4 C 6,4 km/h (2 Bft)
07.10.2022 09:47 10,4 C 8,9 C 8,9 C 9,4 C 9,4 C 86 % 0 lf 30 cb 187 cb 113 cb 43 cb 1026,6 hPa 0,0 l/m 0,2 km/h (0 Bft) W-SW 255 0 min 0,000 mm 0,0 UV-I 49 W/m 8,2 C 10,4 C 3,2 km/h (1 Bft)
07.10.2022 09:45 10,3 C 8,9 C 8,9 C 9,4 C 9,4 C 86 % 0 lf 30 cb 187 cb 113 cb 43 cb 1026,5 hPa 0,0 l/m 0,0 km/h (0 Bft) W-SW 256 0 min 0,000 mm 0,0 UV-I 49 W/m 8,1 C 10,3 C 0,0 km/h (0 Bft)
07.10.2022 09:44 10,2 C 8,9 C 8,9 C 9,4 C 9,4 C 86 % 0 lf 30 cb 187 cb 113 cb 43 cb 1026,5 hPa 0,0 l/m 0,0 km/h (0 Bft) W-SW 256 0 min 0,000 mm 0,0 UV-I 53 W/m 8,0 C 10,2 C 0,0 km/h (0 Bft)
07.10.2022 09:43 10,2 C 8,9 C 8,9 C 9,4 C 9,4 C 86 % 0 lf 30 cb 187 cb 113 cb 43 cb 1026,6 hPa 0,0 l/m 0,0 km/h (0 Bft) W-SW 256 0 min 0,000 mm 0,0 UV-I 53 W/m 8,0 C 10,2 C 0,0 km/h (0 Bft)
07.10.2022 09:42 10,2 C 8,9 C 8,3 C 9,4 C 9,4 C 86 % 0 lf 30 cb 185 cb 113 cb 43 cb 1026,5 hPa 0,0 l/m 0,0 km/h (0 Bft) W-SW 256 0 min 0,000 mm 0,0 UV-I 49 W/m 8,0 C 10,2 C 0,0 km/h (0 Bft)
07.10.2022 09:41 10,1 C 8,9 C 8,3 C 9,4 C 9,4 C 86 % 0 lf 30 cb 185 cb 113 cb 43 cb 1026,5 hPa 0,0 l/m 0,2 km/h (0 Bft) W-SW 256 0 min 0,000 mm 0,0 UV-I 53 W/m 7,9 C 10,1 C 1,6 km/h (1 Bft)
07.10.2022 09:40 10,1 C 8,9 C 8,3 C 9,4 C 9,4 C 87 % 0 lf 30 cb 185 cb 113 cb 43 cb 1026,5 hPa 0,0 l/m 0,0 km/h (0 Bft) W-SW 256 0 min 0,000 mm 0,0 UV-I 49 W/m 8,0 C 10,1 C 0,0 km/h (0 Bft)
07.10.2022 09:39 10,1 C 8,9 C 8,3 C 9,4 C 9,4 C 87 % 0 lf 30 cb 185 cb 113 cb 43 cb 1026,5 hPa 0,0 l/m 0,2 km/h (0 Bft) W-SW 256 0 min 0,000 mm 0,0 UV-I 49 W/m 8,0 C 10,1 C 1,6 km/h (1 Bft)
07.10.2022 09:38 10,0 C 8,9 C 8,3 C 9,4 C 9,4 C 87 % 0 lf 30 cb 185 cb 113 cb 43 cb 1026,6 hPa 0,0 l/m 0,0 km/h (0 Bft) W-SW 256 0 min 0,000 mm 0,0 UV-I 53 W/m 7,9 C 10,0 C 0,0 km/h (0 Bft)
07.10.2022 09:37 9,9 C 8,3 C 8,3 C 9,4 C 9,4 C 87 % 0 lf 30 cb 185 cb 113 cb 43 cb 1026,6 hPa 0,0 l/m 0,0 km/h (0 Bft) W-SW 256 0 min 0,000 mm 0,0 UV-I 53 W/m 7,8 C 9,9 C 0,0 km/h (0 Bft)
07.10.2022 09:36 9,9 C 8,3 C 8,3 C 9,4 C 9,4 C 88 % 0 lf 30 cb 185 cb 113 cb 43 cb 1026,6 hPa 0,0 l/m 0,0 km/h (0 Bft) W-SW 256 0 min 0,000 mm 0,0 UV-I 58 W/m 8,0 C 9,9 C 0,0 km/h (0 Bft)
07.10.2022 09:35 9,8 C 8,3 C 8,3 C 9,4 C 9,4 C 88 % 0 lf 30 cb 185 cb 113 cb 43 cb 1026,6 hPa 0,0 l/m 0,3 km/h (0 Bft) W-SW 256 0 min 0,000 mm 0,0 UV-I 56 W/m 7,9 C 9,8 C 1,6 km/h (1 Bft)
07.10.2022 09:34 9,8 C 8,3 C 8,3 C 9,4 C 9,4 C 88 % 0 lf 30 cb 185 cb 113 cb 43 cb 1026,6 hPa 0,0 l/m 1,5 km/h (1 Bft) W-SW 256 0 min 0,000 mm 0,0 UV-I 51 W/m 7,9 C 9,8 C 4,8 km/h (1 Bft)
07.10.2022 09:33 9,7 C 8,3 C 8,3 C 8,9 C 9,4 C 88 % 0 lf 30 cb 185 cb 112 cb 43 cb 1026,6 hPa 0,0 l/m 0,5 km/h (0 Bft) W-SW 256 0 min 0,000 mm 0,5 UV-I 56 W/m 7,8 C 9,7 C 3,2 km/h (1 Bft)
07.10.2022 09:32 9,7 C 8,3 C 8,3 C 8,9 C 9,4 C 88 % 0 lf 30 cb 185 cb 112 cb 43 cb 1026,7 hPa 0,0 l/m 1,1 km/h (1 Bft) W-SW 256 0 min 0,000 mm 0,0 UV-I 53 W/m 7,8 C 9,7 C 6,4 km/h (2 Bft)
07.10.2022 09:31 9,6 C 8,3 C 8,3 C 8,9 C 9,4 C 88 % 0 lf 30 cb 185 cb 112 cb 43 cb 1026,6 hPa 0,0 l/m 1,5 km/h (1 Bft) W-SW 257 0 min 0,000 mm 0,0 UV-I 56 W/m 7,7 C 9,6 C 4,8 km/h (1 Bft)
07.10.2022 09:30 9,6 C 8,3 C 8,3 C 8,9 C 9,4 C 88 % 0 lf 30 cb 185 cb 112 cb 43 cb 1026,6 hPa 0,0 l/m 0,8 km/h (0 Bft) W-SW 257 0 min 0,000 mm 0,5 UV-I 56 W/m 7,7 C 9,6 C 6,4 km/h (2 Bft)
07.10.2022 09:29 9,5 C 8,3 C 8,3 C 8,9 C 9,4 C 89 % 0 lf 30 cb 185 cb 112 cb 43 cb 1026,6 hPa 0,0 l/m 2,0 km/h (1 Bft) W-SW 257 0 min 0,000 mm 0,0 UV-I 53 W/m 7,8 C 9,5 C 8,0 km/h (2 Bft)
07.10.2022 09:28 9,4 C 8,3 C 8,3 C 8,9 C 9,4 C 89 % 0 lf 30 cb 185 cb 112 cb 43 cb 1026,6 hPa 0,0 l/m 0,1 km/h (0 Bft) W 259 0 min 0,000 mm 0,0 UV-I 51 W/m 7,7 C 9,4 C 1,6 km/h (1 Bft)
07.10.2022 09:27 9,4 C 8,3 C 8,3 C 8,9 C 9,4 C 89 % 0 lf 30 cb 185 cb 112 cb 43 cb 1026,6 hPa 0,0 l/m 0,2 km/h (0 Bft) W 259 0 min 0,000 mm 0,0 UV-I 54 W/m 7,7 C 9,4 C 3,2 km/h (1 Bft)
07.10.2022 09:26 9,3 C 8,3 C 8,3 C 8,9 C 9,4 C 89 % 0 lf 30 cb 185 cb 112 cb 43 cb 1026,6 hPa 0,0 l/m 1,1 km/h (1 Bft) W 259 0 min 0,000 mm 0,0 UV-I 54 W/m 7,6 C 9,3 C 4,8 km/h (1 Bft)
07.10.2022 09:25 9,3 C 8,3 C 8,3 C 8,9 C 9,4 C 89 % 0 lf 30 cb 185 cb 112 cb 43 cb 1026,6 hPa 0,0 l/m 1,5 km/h (1 Bft) W 259 0 min 0,000 mm 0,0 UV-I 69 W/m 7,6 C 9,3 C 6,4 km/h (2 Bft)
07.10.2022 09:24 9,2 C 8,3 C 8,3 C 8,9 C 9,4 C 89 % 0 lf 30 cb 185 cb 112 cb 43 cb 1026,6 hPa 0,0 l/m 0,1 km/h (0 Bft) W 259 0 min 0,000 mm 0,0 UV-I 69 W/m 7,5 C 9,2 C 1,6 km/h (1 Bft)
07.10.2022 09:23 9,2 C 8,3 C 8,3 C 8,9 C 9,4 C 90 % 0 lf 30 cb 185 cb 112 cb 43 cb 1026,6 hPa 0,0 l/m 0,5 km/h (0 Bft) W 259 0 min 0,000 mm 0,0 UV-I 62 W/m 7,6 C 9,2 C 3,2 km/h (1 Bft)
07.10.2022 09:22 9,1 C 8,3 C 8,3 C 8,9 C 9,4 C 90 % 0 lf 30 cb 185 cb 112 cb 43 cb 1026,6 hPa 0,0 l/m 0,0 km/h (0 Bft) W 259 0 min 0,000 mm 0,0 UV-I 58 W/m 7,5 C 9,1 C 0,0 km/h (0 Bft)
07.10.2022 09:21 9,1 C 8,3 C 8,3 C 8,9 C 9,4 C 90 % 0 lf 30 cb 185 cb 112 cb 43 cb 1026,6 hPa 0,0 l/m 0,0 km/h (0 Bft) W 259 0 min 0,000 mm 0,0 UV-I 60 W/m 7,5 C 9,1 C 0,0 km/h (0 Bft)
07.10.2022 09:20 9,0 C 8,3 C 8,3 C 8,9 C 9,4 C 90 % 0 lf 30 cb 185 cb 112 cb 43 cb 1026,6 hPa 0,0 l/m 0,0 km/h (0 Bft) W 259 0 min 0,000 mm 0,0 UV-I 56 W/m 7,4 C 9,0 C 0,0 km/h (0 Bft)
07.10.2022 09:19 8,9 C 8,3 C 8,3 C 8,9 C 9,4 C 90 % 1 lf 30 cb 185 cb 112 cb 43 cb 1026,6 hPa 0,0 l/m 0,0 km/h (0 Bft) W 259 0 min 0,000 mm 0,0 UV-I 47 W/m 7,4 C 8,9 C 0,0 km/h (0 Bft)
07.10.2022 09:18 8,9 C 8,3 C 8,3 C 8,9 C 9,4 C 91 % 1 lf 30 cb 185 cb 112 cb 43 cb 1026,6 hPa 0,0 l/m 0,0 km/h (0 Bft) W 259 0 min 0,000 mm 0,0 UV-I 54 W/m 7,5 C 8,9 C 0,0 km/h (0 Bft)
07.10.2022 09:17 8,8 C 7,8 C 8,3 C 8,9 C 9,4 C 91 % 2 lf 30 cb 185 cb 112 cb 43 cb 1026,6 hPa 0,0 l/m 0,0 km/h (0 Bft) W 259 0 min 0,000 mm 0,0 UV-I 84 W/m 7,4 C 8,8 C 0,0 km/h (0 Bft)
07.10.2022 09:16 8,8 C 7,8 C 8,3 C 8,9 C 9,4 C 91 % 3 lf 30 cb 185 cb 112 cb 43 cb 1026,5 hPa 0,0 l/m 0,0 km/h (0 Bft) W 259 0 min 0,000 mm 0,0 UV-I 90 W/m 7,4 C 8,8 C 0,0 km/h (0 Bft)
07.10.2022 09:15 8,7 C 7,8 C 8,3 C 8,9 C 9,4 C 91 % 3 lf 30 cb 185 cb 113 cb 43 cb 1026,6 hPa 0,0 l/m 0,0 km/h (0 Bft) W 259 0 min 0,000 mm 0,0 UV-I 58 W/m 7,3 C 8,7 C 0,0 km/h (0 Bft)
07.10.2022 09:14 8,7 C 7,8 C 8,3 C 8,9 C 9,4 C 91 % 3 lf 30 cb 185 cb 113 cb 43 cb 1026,6 hPa 0,0 l/m 0,0 km/h (0 Bft) W 259 0 min 0,000 mm 0,0 UV-I 47 W/m 7,3 C 8,7 C 0,0 km/h (0 Bft)
07.10.2022 09:13 8,6 C 7,8 C 8,3 C 8,9 C 9,4 C 91 % 4 lf 30 cb 185 cb 113 cb 43 cb 1026,6 hPa 0,0 l/m 0,0 km/h (0 Bft) W 259 0 min 0,000 mm 0,0 UV-I 47 W/m 7,2 C 8,6 C 0,0 km/h (0 Bft)
07.10.2022 09:12 8,6 C 7,8 C 8,3 C 8,9 C 9,4 C 91 % 4 lf 30 cb 185 cb 113 cb 43 cb 1026,6 hPa 0,0 l/m 0,0 km/h (0 Bft) W 259 0 min 0,000 mm 0,0 UV-I 47 W/m 7,2 C 8,6 C 0,0 km/h (0 Bft)
07.10.2022 09:11 8,5 C 7,8 C 8,3 C 8,9 C 9,4 C 91 % 4 lf 30 cb 185 cb 113 cb 43 cb 1026,6 hPa 0,0 l/m 0,0 km/h (0 Bft) W 259 0 min 0,000 mm 0,0 UV-I 47 W/m 7,1 C 8,5 C 0,0 km/h (0 Bft)
07.10.2022 09:10 8,5 C 7,8 C 8,3 C 8,9 C 9,4 C 91 % 5 lf 30 cb 185 cb 113 cb 43 cb 1026,6 hPa 0,0 l/m 0,0 km/h (0 Bft) W 259 0 min 0,000 mm 0,0 UV-I 47 W/m 7,1 C 8,5 C 0,0 km/h (0 Bft)
07.10.2022 09:09 8,4 C 7,8 C 8,3 C 8,9 C 9,4 C 92 % 6 lf 30 cb 185 cb 113 cb 43 cb 1026,6 hPa 0,0 l/m 0,0 km/h (0 Bft) W 259 0 min 0,000 mm 0,0 UV-I 46 W/m 7,2 C 8,4 C 0,0 km/h (0 Bft)
07.10.2022 09:07 8,3 C 7,8 C 8,3 C 8,9 C 9,4 C 92 % 7 lf 30 cb 185 cb 113 cb 43 cb 1026,6 hPa 0,0 l/m 0,0 km/h (0 Bft) W 259 0 min 0,000 mm 0,0 UV-I 47 W/m 7,1 C 8,3 C 0,0 km/h (0 Bft)
07.10.2022 09:06 8,2 C 7,8 C 8,3 C 8,9 C 9,4 C 92 % 8 lf 30 cb 185 cb 113 cb 43 cb 1026,6 hPa 0,0 l/m 0,0 km/h (0 Bft) W 259 0 min 0,000 mm 0,0 UV-I 46 W/m 7,0 C 8,2 C 0,0 km/h (0 Bft)
07.10.2022 09:05 8,2 C 7,2 C 8,3 C 8,9 C 9,4 C 92 % 9 lf 29 cb 185 cb 113 cb 43 cb 1026,6 hPa 0,0 l/m 0,0 km/h (0 Bft) W 259 0 min 0,000 mm 0,0 UV-I 44 W/m 7,0 C 8,2 C 0,0 km/h (0 Bft)
07.10.2022 09:04 8,2 C 7,2 C 8,3 C 8,9 C 9,4 C 92 % 10 lf 29 cb 185 cb 113 cb 43 cb 1026,6 hPa 0,0 l/m 0,0 km/h (0 Bft) W 259 0 min 0,000 mm 0,0 UV-I 49 W/m 7,0 C 8,2 C 0,0 km/h (0 Bft)
07.10.2022 09:03 8,1 C 6,7 C 8,3 C 8,9 C 9,4 C 92 % 11 lf 29 cb 185 cb 113 cb 43 cb 1026,5 hPa 0,0 l/m 0,1 km/h (0 Bft) W 259 0 min 0,000 mm 0,0 UV-I 53 W/m 6,9 C 8,1 C 1,6 km/h (1 Bft)
07.10.2022 09:02 8,0 C 6,7 C 8,3 C 8,9 C 9,4 C 92 % 11 lf 29 cb 185 cb 113 cb 43 cb 1026,6 hPa 0,0 l/m 0,0 km/h (0 Bft) W 259 0 min 0,000 mm 0,0 UV-I 44 W/m 6,8 C 8,0 C 0,0 km/h (0 Bft)
07.10.2022 09:01 7,9 C 6,1 C 8,3 C 8,9 C 9,4 C 92 % 12 lf 29 cb 185 cb 113 cb 43 cb 1026,6 hPa 0,0 l/m 0,0 km/h (0 Bft) W 259 0 min 0,000 mm 0,0 UV-I 44 W/m 6,7 C 7,9 C 0,0 km/h (0 Bft)
07.10.2022 09:00 7,9 C 6,1 C 8,3 C 8,9 C 9,4 C 92 % 12 lf 29 cb 185 cb 113 cb 43 cb 1026,5 hPa 0,0 l/m 0,0 km/h (0 Bft) W 259 0 min 0,025 mm 0,0 UV-I 42 W/m 6,7 C 7,9 C 0,0 km/h (0 Bft)
07.10.2022 08:59 7,8 C 6,1 C 8,3 C 8,9 C 9,4 C 92 % 12 lf 29 cb 185 cb 113 cb 43 cb 1026,5 hPa 0,0 l/m 0,7 km/h (0 Bft) W 259 0 min 0,000 mm 0,0 UV-I 44 W/m 6,6 C 7,8 C 4,8 km/h (1 Bft)
07.10.2022 08:58 7,8 C 6,1 C 8,3 C 8,9 C 9,4 C 92 % 13 lf 29 cb 185 cb 113 cb 43 cb 1026,5 hPa 0,0 l/m 0,0 km/h (0 Bft) W 259 0 min 0,000 mm 0,0 UV-I 44 W/m 6,6 C 7,8 C 0,0 km/h (0 Bft)
07.10.2022 08:57 7,8 C 6,1 C 8,3 C 8,9 C 9,4 C 92 % 13 lf 29 cb 185 cb 113 cb 43 cb 1026,5 hPa 0,0 l/m 0,2 km/h (0 Bft) W 259 0 min 0,000 mm 0,0 UV-I 46 W/m 6,6 C 7,8 C 1,6 km/h (1 Bft)
07.10.2022 08:56 7,8 C 6,1 C 8,3 C 8,9 C 9,4 C 92 % 13 lf 29 cb 185 cb 113 cb 43 cb 1026,5 hPa 0,0 l/m 0,0 km/h (0 Bft) W 259 0 min 0,000 mm 0,0 UV-I 46 W/m 6,6 C 7,8 C 0,0 km/h (0 Bft)
07.10.2022 08:55 7,8 C 6,1 C 8,3 C 8,9 C 9,4 C 92 % 13 lf 29 cb 185 cb 113 cb 43 cb 1026,5 hPa 0,0 l/m 0,0 km/h (0 Bft) W 259 0 min 0,000 mm 0,0 UV-I 46 W/m 6,6 C 7,8 C 0,0 km/h (0 Bft)
07.10.2022 08:54 7,8 C 6,1 C 8,3 C 8,9 C 9,4 C 92 % 13 lf 29 cb 186 cb 113 cb 43 cb 1026,5 hPa 0,0 l/m 0,0 km/h (0 Bft) W 259 0 min 0,000 mm 0,0 UV-I 42 W/m 6,6 C 7,8 C 0,0 km/h (0 Bft)
07.10.2022 08:53 7,7 C 6,1 C 8,3 C 8,9 C 9,4 C 92 % 13 lf 29 cb 186 cb 113 cb 43 cb 1026,5 hPa 0,0 l/m 0,0 km/h (0 Bft) W 259 0 min 0,000 mm 0,0 UV-I 40 W/m 6,5 C 7,7 C 0,0 km/h (0 Bft)
07.10.2022 08:52 7,7 C 5,6 C 8,3 C 8,9 C 9,4 C 92 % 14 lf 29 cb 186 cb 113 cb 43 cb 1026,5 hPa 0,0 l/m 0,0 km/h (0 Bft) W 259 0 min 0,000 mm 0,0 UV-I 40 W/m 6,5 C 7,7 C 0,0 km/h (0 Bft)
07.10.2022 08:51 7,7 C 5,6 C 8,3 C 8,9 C 9,4 C 92 % 14 lf 29 cb 186 cb 113 cb 43 cb 1026,4 hPa 0,0 l/m 0,0 km/h (0 Bft) W 259 0 min 0,000 mm 0,0 UV-I 42 W/m 6,5 C 7,7 C 0,0 km/h (0 Bft)
07.10.2022 08:50 7,7 C 5,6 C 8,3 C 8,9 C 9,4 C 92 % 14 lf 29 cb 186 cb 113 cb 43 cb 1026,5 hPa 0,0 l/m 0,0 km/h (0 Bft) W 259 0 min 0,000 mm 0,0 UV-I 44 W/m 6,5 C 7,7 C 0,0 km/h (0 Bft)
07.10.2022 08:49 7,7 C 5,6 C 8,3 C 8,9 C 9,4 C 92 % 14 lf 29 cb 186 cb 113 cb 43 cb 1026,5 hPa 0,0 l/m 0,0 km/h (0 Bft) W 259 0 min 0,000 mm 0,0 UV-I 42 W/m 6,5 C 7,7 C 0,0 km/h (0 Bft)
07.10.2022 08:48 7,7 C 5,6 C 8,3 C 8,9 C 9,4 C 92 % 14 lf 29 cb 186 cb 113 cb 43 cb 1026,5 hPa 0,0 l/m 0,0 km/h (0 Bft) W 259 0 min 0,000 mm 0,0 UV-I 40 W/m 6,5 C 7,7 C 0,0 km/h (0 Bft)
07.10.2022 08:46 7,7 C 5,6 C 8,3 C 8,9 C 9,4 C 92 % 14 lf 29 cb 186 cb 113 cb 43 cb 1026,5 hPa 0,0 l/m 0,0 km/h (0 Bft) W 259 0 min 0,000 mm 0,0 UV-I 39 W/m 6,5 C 7,7 C 0,0 km/h (0 Bft)
07.10.2022 08:45 7,7 C 5,6 C 8,3 C 8,9 C 9,4 C 92 % 14 lf 29 cb 186 cb 113 cb 43 cb 1026,5 hPa 0,0 l/m 0,0 km/h (0 Bft) W 259 0 min 0,000 mm 0,0 UV-I 37 W/m 6,5 C 7,7 C 0,0 km/h (0 Bft)
07.10.2022 08:44 7,7 C 5,6 C 8,3 C 8,9 C 9,4 C 92 % 14 lf 29 cb 186 cb 113 cb 43 cb 1026,5 hPa 0,0 l/m 0,0 km/h (0 Bft) W 259 0 min 0,000 mm 0,0 UV-I 39 W/m 6,5 C 7,7 C 0,0 km/h (0 Bft)
07.10.2022 08:43 7,6 C 5,6 C 8,3 C 8,9 C 9,4 C 92 % 14 lf 29 cb 186 cb 113 cb 43 cb 1026,5 hPa 0,0 l/m 0,0 km/h (0 Bft) W 259 0 min 0,000 mm 0,0 UV-I 39 W/m 6,4 C 7,6 C 0,0 km/h (0 Bft)
07.10.2022 08:42 7,6 C 5,6 C 8,3 C 8,9 C 9,4 C 92 % 14 lf 29 cb 186 cb 113 cb 43 cb 1026,5 hPa 0,0 l/m 0,0 km/h (0 Bft) W 259 0 min 0,000 mm 0,0 UV-I 39 W/m 6,4 C 7,6 C 0,0 km/h (0 Bft)
07.10.2022 08:41 7,5 C 5,6 C 8,3 C 8,9 C 9,4 C 92 % 14 lf 29 cb 186 cb 113 cb 43 cb 1026,5 hPa 0,0 l/m 0,0 km/h (0 Bft) W 259 0 min 0,000 mm 0,0 UV-I 35 W/m 6,3 C 7,5 C 0,0 km/h (0 Bft)
07.10.2022 08:40 7,4 C 5,6 C 8,3 C 8,9 C 9,4 C 92 % 14 lf 29 cb 186 cb 113 cb 43 cb 1026,5 hPa 0,0 l/m 0,0 km/h (0 Bft) W 259 0 min 0,000 mm 0,0 UV-I 37 W/m 6,2 C 7,4 C 0,0 km/h (0 Bft)
07.10.2022 08:39 7,4 C 5,6 C 8,3 C 8,9 C 9,4 C 92 % 15 lf 29 cb 186 cb 113 cb 43 cb 1026,5 hPa 0,0 l/m 0,0 km/h (0 Bft) W 259 0 min 0,000 mm 0,0 UV-I 37 W/m 6,2 C 7,4 C 0,0 km/h (0 Bft)
07.10.2022 08:38 7,4 C 5,6 C 8,3 C 8,9 C 9,4 C 92 % 15 lf 29 cb 186 cb 113 cb 43 cb 1026,4 hPa 0,0 l/m 0,0 km/h (0 Bft) W 259 0 min 0,000 mm 0,0 UV-I 33 W/m 6,2 C 7,4 C 0,0 km/h (0 Bft)
07.10.2022 08:37 7,4 C 5,6 C 8,3 C 8,9 C 9,4 C 92 % 15 lf 29 cb 186 cb 113 cb 43 cb 1026,4 hPa 0,0 l/m 0,0 km/h (0 Bft) W 259 0 min 0,000 mm 0,0 UV-I 33 W/m 6,2 C 7,4 C 0,0 km/h (0 Bft)
07.10.2022 08:36 7,4 C 5,0 C 8,3 C 8,9 C 9,4 C 92 % 15 lf 29 cb 186 cb 113 cb 43 cb 1026,4 hPa 0,0 l/m 0,0 km/h (0 Bft) W 259 0 min 0,000 mm 0,0 UV-I 33 W/m 6,2 C 7,4 C 0,0 km/h (0 Bft)
07.10.2022 08:35 7,3 C 5,0 C 8,3 C 8,9 C 9,4 C 92 % 15 lf 29 cb 186 cb 113 cb 43 cb 1026,4 hPa 0,0 l/m 0,2 km/h (0 Bft) W 259 0 min 0,000 mm 0,0 UV-I 33 W/m 6,1 C 7,3 C 3,2 km/h (1 Bft)
07.10.2022 08:33 7,3 C 5,0 C 8,3 C 8,9 C 9,4 C 92 % 15 lf 29 cb 186 cb 113 cb 43 cb 1026,4 hPa 0,0 l/m 0,7 km/h (0 Bft) W 259 0 min 0,000 mm 0,0 UV-I 32 W/m 6,1 C 7,3 C 4,8 km/h (1 Bft)
07.10.2022 08:32 7,3 C 5,0 C 8,3 C 8,9 C 9,4 C 92 % 15 lf 29 cb 186 cb 113 cb 43 cb 1026,4 hPa 0,0 l/m 0,0 km/h (0 Bft) W 259 0 min 0,000 mm 0,0 UV-I 32 W/m 6,1 C 7,3 C 0,0 km/h (0 Bft)
07.10.2022 08:31 7,3 C 5,0 C 8,3 C 8,9 C 9,4 C 92 % 15 lf 29 cb 186 cb 113 cb 43 cb 1026,4 hPa 0,0 l/m 0,0 km/h (0 Bft) W 259 0 min 0,000 mm 0,0 UV-I 30 W/m 6,1 C 7,3 C 0,0 km/h (0 Bft)
07.10.2022 08:30 7,3 C 5,0 C 8,3 C 8,9 C 9,4 C 92 % 15 lf 29 cb 186 cb 113 cb 43 cb 1026,4 hPa 0,0 l/m 0,0 km/h (0 Bft) W 259 0 min 0,000 mm 0,0 UV-I 30 W/m 6,1 C 7,3 C 0,0 km/h (0 Bft)
07.10.2022 08:29 7,3 C 5,0 C 8,3 C 8,9 C 9,4 C 92 % 15 lf 29 cb 186 cb 113 cb 43 cb 1026,4 hPa 0,0 l/m 0,0 km/h (0 Bft) W 259 0 min 0,000 mm 0,0 UV-I 30 W/m 6,1 C 7,3 C 0,0 km/h (0 Bft)
07.10.2022 08:28 7,3 C 5,6 C 8,3 C 8,9 C 9,4 C 92 % 15 lf 29 cb 186 cb 113 cb 43 cb 1026,4 hPa 0,0 l/m 0,0 km/h (0 Bft) W 259 0 min 0,000 mm 0,0 UV-I 30 W/m 6,1 C 7,3 C 0,0 km/h (0 Bft)
07.10.2022 08:27 7,2 C 5,6 C 8,3 C 8,9 C 9,4 C 92 % 15 lf 29 cb 186 cb 113 cb 42 cb 1026,4 hPa 0,0 l/m 0,6 km/h (0 Bft) W 259 0 min 0,000 mm 0,0 UV-I 28 W/m 6,0 C 7,2 C 4,8 km/h (1 Bft)
07.10.2022 08:26 7,2 C 5,6 C 8,3 C 8,9 C 9,4 C 92 % 15 lf 29 cb 186 cb 113 cb 42 cb 1026,4 hPa 0,0 l/m 1,1 km/h (1 Bft) W 259 0 min 0,000 mm 0,0 UV-I 28 W/m 6,0 C 7,2 C 4,8 km/h (1 Bft)
07.10.2022 08:25 7,2 C 5,0 C 8,3 C 8,9 C 9,4 C 92 % 15 lf 29 cb 186 cb 113 cb 42 cb 1026,4 hPa 0,0 l/m 0,0 km/h (0 Bft) W 259 0 min 0,000 mm 0,0 UV-I 28 W/m 6,0 C 7,2 C 0,0 km/h (0 Bft)
07.10.2022 08:24 7,2 C 5,0 C 8,3 C 8,9 C 9,4 C 91 % 15 lf 29 cb 186 cb 113 cb 42 cb 1026,4 hPa 0,0 l/m 0,0 km/h (0 Bft) W 259 0 min 0,000 mm 0,0 UV-I 28 W/m 5,8 C 7,2 C 0,0 km/h (0 Bft)
07.10.2022 08:23 7,2 C 5,0 C 8,3 C 8,9 C 9,4 C 91 % 15 lf 29 cb 186 cb 113 cb 42 cb 1026,4 hPa 0,0 l/m 0,0 km/h (0 Bft) W 259 0 min 0,000 mm 0,0 UV-I 28 W/m 5,8 C 7,2 C 0,0 km/h (0 Bft)
07.10.2022 08:22 7,2 C 5,0 C 8,3 C 8,9 C 9,4 C 91 % 15 lf 29 cb 186 cb 113 cb 42 cb 1026,4 hPa 0,0 l/m 0,5 km/h (0 Bft) W 259 0 min 0,000 mm 0,0 UV-I 26 W/m 5,8 C 7,2 C 4,8 km/h (1 Bft)
07.10.2022 08:21 7,2 C 5,0 C 8,3 C 8,9 C 9,4 C 91 % 15 lf 29 cb 186 cb 113 cb 42 cb 1026,4 hPa 0,0 l/m 0,0 km/h (0 Bft) W 259 0 min 0,000 mm 0,0 UV-I 26 W/m 5,8 C 7,2 C 0,0 km/h (0 Bft)
07.10.2022 08:20 7,2 C 5,0 C 8,3 C 8,9 C 9,4 C 91 % 15 lf 29 cb 186 cb 113 cb 42 cb 1026,4 hPa 0,0 l/m 0,0 km/h (0 Bft) W 259 0 min 0,000 mm 0,0 UV-I 25 W/m 5,8 C 7,2 C 0,0 km/h (0 Bft)
07.10.2022 08:19 7,2 C 5,0 C 8,3 C 8,9 C 9,4 C 91 % 15 lf 29 cb 186 cb 113 cb 42 cb 1026,4 hPa 0,0 l/m 0,0 km/h (0 Bft) W 259 0 min 0,000 mm 0,0 UV-I 25 W/m 5,8 C 7,2 C 0,0 km/h (0 Bft)
07.10.2022 08:18 7,2 C 5,0 C 8,3 C 8,9 C 9,4 C 91 % 15 lf 29 cb 186 cb 113 cb 42 cb 1026,4 hPa 0,0 l/m 0,2 km/h (0 Bft) W 259 0 min 0,000 mm 0,0 UV-I 25 W/m 5,8 C 7,2 C 1,6 km/h (1 Bft)
07.10.2022 08:17 7,2 C 5,0 C 8,3 C 8,9 C 9,4 C 91 % 15 lf 29 cb 186 cb 113 cb 42 cb 1026,4 hPa 0,0 l/m 0,0 km/h (0 Bft) W 259 0 min 0,000 mm 0,0 UV-I 25 W/m 5,8 C 7,2 C 0,0 km/h (0 Bft)
07.10.2022 08:16 7,2 C 5,0 C 8,3 C 8,9 C 9,4 C 91 % 15 lf 29 cb 186 cb 113 cb 42 cb 1026,4 hPa 0,0 l/m 0,4 km/h (0 Bft) W 259 0 min 0,000 mm 0,0 UV-I 23 W/m 5,8 C 7,2 C 3,2 km/h (1 Bft)
07.10.2022 08:15 7,2 C 5,6 C 8,3 C 8,9 C 9,4 C 91 % 15 lf 29 cb 186 cb 113 cb 42 cb 1026,4 hPa 0,0 l/m 0,2 km/h (0 Bft) W 259 0 min 0,000 mm 0,0 UV-I 23 W/m 5,8 C 7,2 C 1,6 km/h (1 Bft)
07.10.2022 08:13 7,2 C 5,6 C 8,3 C 8,9 C 9,4 C 92 % 15 lf 29 cb 186 cb 113 cb 42 cb 1026,4 hPa 0,0 l/m 0,2 km/h (0 Bft) W 259 0 min 0,000 mm 0,0 UV-I 21 W/m 6,0 C 7,2 C 3,2 km/h (1 Bft)
07.10.2022 08:12 7,2 C 5,6 C 8,3 C 8,9 C 9,4 C 92 % 15 lf 29 cb 186 cb 113 cb 42 cb 1026,4 hPa 0,0 l/m 0,0 km/h (0 Bft) W 259 0 min 0,000 mm 0,0 UV-I 21 W/m 6,0 C 7,2 C 0,0 km/h (0 Bft)
07.10.2022 08:11 7,2 C 5,0 C 8,3 C 8,9 C 9,4 C 92 % 15 lf 29 cb 186 cb 113 cb 42 cb 1026,4 hPa 0,0 l/m 1,1 km/h (1 Bft) W 259 0 min 0,000 mm 0,0 UV-I 21 W/m 6,0 C 7,2 C 6,4 km/h (2 Bft)
07.10.2022 08:09 7,2 C 5,6 C 8,3 C 8,9 C 9,4 C 92 % 15 lf 29 cb 186 cb 113 cb 42 cb 1026,4 hPa 0,0 l/m 1,0 km/h (0 Bft) W 259 0 min 0,000 mm 0,0 UV-I 19 W/m 6,0 C 7,2 C 4,8 km/h (1 Bft)
07.10.2022 08:08 7,2 C 5,6 C 8,3 C 8,9 C 9,4 C 92 % 15 lf 29 cb 186 cb 113 cb 42 cb 1026,4 hPa 0,0 l/m 0,0 km/h (0 Bft) W 259 0 min 0,000 mm 0,0 UV-I 19 W/m 6,0 C 7,2 C 0,0 km/h (0 Bft)
07.10.2022 08:07 7,2 C 5,6 C 8,3 C 8,9 C 9,4 C 92 % 15 lf 29 cb 186 cb 113 cb 42 cb 1026,4 hPa 0,0 l/m 0,0 km/h (0 Bft) W 259 0 min 0,000 mm 0,0 UV-I 18 W/m 6,0 C 7,2 C 0,0 km/h (0 Bft)
07.10.2022 08:06 7,2 C 5,6 C 8,3 C 8,9 C 9,4 C 92 % 15 lf 29 cb 186 cb 113 cb 42 cb 1026,5 hPa 0,0 l/m 0,2 km/h (0 Bft) W 259 0 min 0,000 mm 0,0 UV-I 18 W/m 6,0 C 7,2 C 1,6 km/h (1 Bft)
07.10.2022 08:05 7,2 C 5,6 C 8,3 C 8,9 C 9,4 C 92 % 15 lf 29 cb 186 cb 113 cb 42 cb 1026,5 hPa 0,0 l/m 1,2 km/h (1 Bft) W 259 0 min 0,000 mm 0,0 UV-I 16 W/m 6,0 C 7,2 C 3,2 km/h (1 Bft)
07.10.2022 08:04 7,2 C 5,0 C 8,3 C 8,9 C 9,4 C 92 % 15 lf 29 cb 186 cb 113 cb 42 cb 1026,5 hPa 0,0 l/m 1,6 km/h (1 Bft) W 259 0 min 0,000 mm 0,0 UV-I 16 W/m 6,0 C 7,2 C 6,4 km/h (2 Bft)
07.10.2022 08:03 7,2 C 5,0 C 8,3 C 8,9 C 9,4 C 92 % 15 lf 29 cb 186 cb 113 cb 42 cb 1026,5 hPa 0,0 l/m 2,9 km/h (1 Bft) W 259 0 min 0,000 mm 0,0 UV-I 14 W/m 6,0 C 7,2 C 9,7 km/h (2 Bft)
07.10.2022 08:02 7,2 C 5,0 C 8,3 C 8,9 C 9,4 C 92 % 15 lf 29 cb 186 cb 113 cb 42 cb 1026,4 hPa 0,0 l/m 0,1 km/h (0 Bft) W 259 0 min 0,000 mm 0,0 UV-I 14 W/m 6,0 C 7,2 C 1,6 km/h (1 Bft)
07.10.2022 08:01 7,1 C 5,0 C 8,3 C 8,9 C 9,4 C 92 % 15 lf 29 cb 186 cb 113 cb 42 cb 1026,5 hPa 0,0 l/m 0,0 km/h (0 Bft) W 259 0 min 0,000 mm 0,0 UV-I 12 W/m 5,9 C 7,1 C 0,0 km/h (0 Bft)
07.10.2022 08:00 7,1 C 5,0 C 8,3 C 8,9 C 9,4 C 92 % 15 lf 29 cb 186 cb 113 cb 42 cb 1026,5 hPa 0,0 l/m 1,4 km/h (1 Bft) W 259 0 min 0,000 mm 0,0 UV-I 12 W/m 5,9 C 7,1 C 3,2 km/h (1 Bft)
07.10.2022 07:59 7,1 C 5,0 C 8,3 C 8,9 C 9,4 C 92 % 15 lf 29 cb 186 cb 113 cb 42 cb 1026,5 hPa 0,0 l/m 0,1 km/h (0 Bft) W 259 0 min 0,000 mm 0,0 UV-I 12 W/m 5,9 C 7,1 C 1,6 km/h (1 Bft)
07.10.2022 07:58 7,0 C 5,0 C 8,3 C 8,9 C 9,4 C 92 % 15 lf 29 cb 186 cb 113 cb 42 cb 1026,5 hPa 0,0 l/m 1,4 km/h (1 Bft) W 259 0 min 0,000 mm 0,0 UV-I 11 W/m 5,8 C 7,0 C 4,8 km/h (1 Bft)
07.10.2022 07:57 7,0 C 5,0 C 8,3 C 8,9 C 9,4 C 92 % 15 lf 29 cb 186 cb 112 cb 42 cb 1026,5 hPa 0,0 l/m 0,0 km/h (0 Bft) W 262 0 min 0,000 mm 0,0 UV-I 11 W/m 5,8 C 7,0 C 0,0 km/h (0 Bft)
07.10.2022 07:56 7,0 C 5,0 C 8,3 C 8,9 C 9,4 C 92 % 15 lf 29 cb 186 cb 112 cb 42 cb 1026,5 hPa 0,0 l/m 1,5 km/h (1 Bft) W 262 0 min 0,000 mm 0,0 UV-I 9 W/m 5,8 C 7,0 C 6,4 km/h (2 Bft)
07.10.2022 07:55 7,0 C 5,0 C 8,3 C 8,9 C 9,4 C 92 % 15 lf 29 cb 186 cb 113 cb 42 cb 1026,6 hPa 0,0 l/m 3,1 km/h (1 Bft) W 263 1 min 0,000 mm 0,0 UV-I 9 W/m 5,8 C 7,0 C 8,0 km/h (2 Bft)
07.10.2022 07:54 7,0 C 5,0 C 8,3 C 8,9 C 9,4 C 92 % 15 lf 29 cb 186 cb 112 cb 42 cb 1026,6 hPa 0,0 l/m 0,3 km/h (0 Bft) W 263 0 min 0,000 mm 0,0 UV-I 9 W/m 5,8 C 7,0 C 3,2 km/h (1 Bft)
07.10.2022 07:53 7,0 C 5,0 C 8,3 C 8,9 C 9,4 C 92 % 15 lf 29 cb 186 cb 112 cb 42 cb 1026,6 hPa 0,0 l/m 0,7 km/h (0 Bft) W 263 0 min 0,000 mm 0,0 UV-I 7 W/m 5,8 C 7,0 C 6,4 km/h (2 Bft)
07.10.2022 07:52 7,0 C 5,0 C 8,3 C 8,9 C 9,4 C 92 % 15 lf 29 cb 186 cb 112 cb 42 cb 1026,6 hPa 0,0 l/m 0,0 km/h (0 Bft) W 263 0 min 0,000 mm 0,0 UV-I 7 W/m 5,8 C 7,0 C 0,0 km/h (0 Bft)
07.10.2022 07:51 7,0 C 4,4 C 8,3 C 8,9 C 9,4 C 92 % 15 lf 29 cb 186 cb 112 cb 42 cb 1026,6 hPa 0,0 l/m 0,0 km/h (0 Bft) W 263 0 min 0,000 mm 0,0 UV-I 5 W/m 5,8 C 7,0 C 0,0 km/h (0 Bft)
07.10.2022 07:50 7,0 C 4,4 C 8,3 C 8,9 C 9,4 C 92 % 15 lf 29 cb 186 cb 112 cb 42 cb 1026,6 hPa 0,0 l/m 1,6 km/h (1 Bft) W 263 0 min 0,000 mm 0,0 UV-I 5 W/m 5,8 C 7,0 C 4,8 km/h (1 Bft)
07.10.2022 07:49 6,9 C 4,4 C 8,3 C 8,9 C 9,4 C 93 % 15 lf 29 cb 186 cb 112 cb 42 cb 1026,6 hPa 0,0 l/m 0,2 km/h (0 Bft) W 263 0 min 0,000 mm 0,0 UV-I 5 W/m 5,8 C 6,9 C 4,8 km/h (1 Bft)
07.10.2022 07:48 6,9 C 4,4 C 8,3 C 8,9 C 9,4 C 93 % 15 lf 29 cb 186 cb 112 cb 42 cb 1026,7 hPa 0,0 l/m 0,8 km/h (0 Bft) W 263 0 min 0,000 mm 0,0 UV-I 0 W/m 5,8 C 6,9 C 4,8 km/h (1 Bft)
07.10.2022 07:47 6,9 C 4,4 C 8,3 C 8,9 C 9,4 C 93 % 15 lf 29 cb 186 cb 113 cb 42 cb 1026,6 hPa 0,0 l/m 0,0 km/h (0 Bft) W 263 0 min 0,000 mm 0,0 UV-I 0 W/m 5,8 C 6,9 C 0,0 km/h (0 Bft)
07.10.2022 07:46 6,9 C 4,4 C 8,3 C 8,9 C 9,4 C 93 % 15 lf 29 cb 186 cb 112 cb 42 cb 1026,7 hPa 0,0 l/m 0,0 km/h (0 Bft) W 263 0 min 0,000 mm 0,0 UV-I 0 W/m 5,8 C 6,9 C 0,0 km/h (0 Bft)
07.10.2022 07:45 6,8 C 4,4 C 8,3 C 8,9 C 9,4 C 93 % 15 lf 29 cb 186 cb 112 cb 42 cb 1026,7 hPa 0,0 l/m 0,7 km/h (0 Bft) W 263 0 min 0,000 mm 0,0 UV-I 0 W/m 5,7 C 6,8 C 3,2 km/h (1 Bft)
07.10.2022 07:44 6,8 C 4,4 C 8,3 C 8,9 C 9,4 C 93 % 15 lf 29 cb 186 cb 112 cb 42 cb 1026,7 hPa 0,0 l/m 1,5 km/h (1 Bft) W 263 0 min 0,000 mm 0,0 UV-I 0 W/m 5,7 C 6,8 C 4,8 km/h (1 Bft)
07.10.2022 07:43 6,8 C 4,4 C 8,3 C 8,9 C 9,4 C 93 % 15 lf 29 cb 185 cb 112 cb 42 cb 1026,7 hPa 0,0 l/m 0,4 km/h (0 Bft) W 263 0 min 0,000 mm 0,0 UV-I 0 W/m 5,7 C 6,8 C 3,2 km/h (1 Bft)
07.10.2022 07:42 6,8 C 4,4 C 8,3 C 8,9 C 9,4 C 93 % 15 lf 29 cb 185 cb 112 cb 42 cb 1026,7 hPa 0,0 l/m 0,0 km/h (0 Bft) W 263 0 min 0,000 mm 0,0 UV-I 0 W/m 5,7 C 6,8 C 0,0 km/h (0 Bft)
07.10.2022 07:41 6,7 C 4,4 C 8,3 C 8,9 C 9,4 C 93 % 15 lf 29 cb 186 cb 112 cb 42 cb 1026,7 hPa 0,0 l/m 3,4 km/h (1 Bft) W 263 0 min 0,000 mm 0,0 UV-I 0 W/m 5,6 C 6,7 C 11,3 km/h (2 Bft)
07.10.2022 07:40 6,7 C 4,4 C 8,3 C 8,9 C 9,4 C 94 % 15 lf 29 cb 186 cb 112 cb 42 cb 1026,7 hPa 0,0 l/m 0,6 km/h (0 Bft) W 269 0 min 0,000 mm 0,0 UV-I 0 W/m 5,8 C 6,7 C 3,2 km/h (1 Bft)
07.10.2022 07:39 6,6 C 4,4 C 8,3 C 8,9 C 9,4 C 93 % 15 lf 29 cb 186 cb 112 cb 42 cb 1026,7 hPa 0,0 l/m 1,3 km/h (1 Bft) W 269 0 min 0,000 mm 0,0 UV-I 0 W/m 5,6 C 6,6 C 6,4 km/h (2 Bft)
07.10.2022 07:38 6,6 C 4,4 C 8,3 C 8,9 C 9,4 C 93 % 15 lf 29 cb 186 cb 112 cb 42 cb 1026,7 hPa 0,0 l/m 0,7 km/h (0 Bft) W 269 0 min 0,000 mm 0,0 UV-I 0 W/m 5,6 C 6,6 C 3,2 km/h (1 Bft)
07.10.2022 07:37 6,5 C 3,9 C 8,3 C 8,9 C 9,4 C 93 % 15 lf 29 cb 185 cb 112 cb 42 cb 1026,7 hPa 0,0 l/m 0,0 km/h (0 Bft) W 269 0 min 0,000 mm 0,0 UV-I 0 W/m 5,5 C 6,5 C 0,0 km/h (0 Bft)
07.10.2022 07:36 6,5 C 3,9 C 8,3 C 8,9 C 9,4 C 93 % 15 lf 29 cb 185 cb 112 cb 42 cb 1026,7 hPa 0,0 l/m 0,4 km/h (0 Bft) W 269 0 min 0,000 mm 0,0 UV-I 0 W/m 5,5 C 6,5 C 3,2 km/h (1 Bft)
07.10.2022 07:35 6,5 C 3,9 C 8,3 C 8,9 C 9,4 C 94 % 15 lf 29 cb 185 cb 112 cb 42 cb 1026,7 hPa 0,0 l/m 0,0 km/h (0 Bft) W 269 0 min 0,000 mm 0,0 UV-I 0 W/m 5,6 C 6,5 C 0,0 km/h (0 Bft)
07.10.2022 07:34 6,5 C 3,9 C 8,3 C 8,9 C 9,4 C 94 % 15 lf 29 cb 185 cb 112 cb 42 cb 1026,7 hPa 0,0 l/m 0,7 km/h (0 Bft) W 269 0 min 0,000 mm 0,0 UV-I 0 W/m 5,6 C 6,5 C 3,2 km/h (1 Bft)
07.10.2022 07:33 6,4 C 3,9 C 8,3 C 8,9 C 9,4 C 94 % 15 lf 29 cb 185 cb 112 cb 42 cb 1026,7 hPa 0,0 l/m 0,9 km/h (0 Bft) W 269 0 min 0,000 mm 0,0 UV-I 0 W/m 5,5 C 6,4 C 4,8 km/h (1 Bft)
07.10.2022 07:32 6,4 C 3,9 C 8,3 C 8,9 C 9,4 C 94 % 15 lf 29 cb 185 cb 112 cb 42 cb 1026,7 hPa 0,0 l/m 2,0 km/h (1 Bft) W 269 0 min 0,000 mm 0,0 UV-I 0 W/m 5,5 C 6,4 C 9,7 km/h (2 Bft)
07.10.2022 07:31 6,4 C 3,9 C 8,3 C 8,9 C 9,4 C 94 % 15 lf 29 cb 185 cb 112 cb 42 cb 1026,7 hPa 0,0 l/m 0,2 km/h (0 Bft) W 269 0 min 0,000 mm 0,0 UV-I 0 W/m 5,5 C 6,4 C 1,6 km/h (1 Bft)
07.10.2022 07:30 6,4 C 3,9 C 8,3 C 8,9 C 9,4 C 94 % 15 lf 29 cb 185 cb 112 cb 42 cb 1026,7 hPa 0,0 l/m 0,0 km/h (0 Bft) W 269 0 min 0,000 mm 0,0 UV-I 0 W/m 5,5 C 6,4 C 0,0 km/h (0 Bft)
07.10.2022 07:29 6,4 C 3,9 C 8,3 C 8,9 C 9,4 C 94 % 15 lf 29 cb 185 cb 112 cb 42 cb 1026,7 hPa 0,0 l/m 0,0 km/h (0 Bft) W 269 0 min 0,000 mm 0,0 UV-I 0 W/m 5,5 C 6,4 C 0,0 km/h (0 Bft)
07.10.2022 07:28 6,4 C 3,9 C 8,3 C 8,9 C 9,4 C 94 % 15 lf 29 cb 185 cb 112 cb 42 cb 1026,7 hPa 0,0 l/m 0,0 km/h (0 Bft) W 269 0 min 0,000 mm 0,0 UV-I 0 W/m 5,5 C 6,4 C 0,0 km/h (0 Bft)
07.10.2022 07:27 6,3 C 3,9 C 8,3 C 8,9 C 9,4 C 94 % 15 lf 29 cb 185 cb 112 cb 42 cb 1026,7 hPa 0,0 l/m 0,6 km/h (0 Bft) W 269 0 min 0,000 mm 0,0 UV-I 0 W/m 5,4 C 6,3 C 3,2 km/h (1 Bft)
07.10.2022 07:26 6,3 C 3,9 C 8,3 C 8,9 C 9,4 C 95 % 15 lf 29 cb 185 cb 112 cb 42 cb 1026,7 hPa 0,0 l/m 0,0 km/h (0 Bft) W 269 0 min 0,000 mm 0,0 UV-I 0 W/m 5,6 C 6,3 C 0,0 km/h (0 Bft)
07.10.2022 07:25 6,2 C 3,9 C 8,3 C 8,9 C 9,4 C 94 % 15 lf 29 cb 185 cb 112 cb 42 cb 1026,7 hPa 0,0 l/m 0,0 km/h (0 Bft) W 269 0 min 0,000 mm 0,0 UV-I 0 W/m 5,3 C 6,2 C 0,0 km/h (0 Bft)
07.10.2022 07:24 6,1 C 3,9 C 8,3 C 8,9 C 9,4 C 94 % 15 lf 29 cb 185 cb 112 cb 42 cb 1026,8 hPa 0,0 l/m 0,2 km/h (0 Bft) W 269 0 min 0,000 mm 0,0 UV-I 0 W/m 5,2 C 6,1 C 1,6 km/h (1 Bft)
07.10.2022 07:23 6,0 C 3,9 C 8,3 C 8,9 C 9,4 C 95 % 15 lf 29 cb 185 cb 112 cb 42 cb 1026,7 hPa 0,0 l/m 0,0 km/h (0 Bft) W 269 0 min 0,000 mm 0,0 UV-I 0 W/m 5,3 C 6,0 C 0,0 km/h (0 Bft)
07.10.2022 07:22 5,9 C 3,3 C 8,3 C 8,9 C 9,4 C 94 % 15 lf 28 cb 185 cb 112 cb 42 cb 1026,8 hPa 0,0 l/m 0,0 km/h (0 Bft) W 269 0 min 0,000 mm 0,0 UV-I 0 W/m 5,0 C 5,9 C 0,0 km/h (0 Bft)
07.10.2022 07:21 5,8 C 2,8 C 8,3 C 8,9 C 9,4 C 94 % 15 lf 28 cb 185 cb 112 cb 42 cb 1026,7 hPa 0,0 l/m 0,0 km/h (0 Bft) W 269 0 min 0,000 mm 0,0 UV-I 0 W/m 4,9 C 5,8 C 0,0 km/h (0 Bft)
07.10.2022 07:20 5,7 C 2,8 C 8,3 C 8,9 C 9,4 C 94 % 15 lf 28 cb 185 cb 112 cb 42 cb 1026,7 hPa 0,0 l/m 0,9 km/h (0 Bft) W 269 0 min 0,000 mm 0,0 UV-I 0 W/m 4,8 C 5,7 C 3,2 km/h (1 Bft)
07.10.2022 07:19 5,6 C 2,8 C 8,3 C 8,9 C 9,4 C 94 % 15 lf 28 cb 185 cb 112 cb 42 cb 1026,8 hPa 0,0 l/m 0,1 km/h (0 Bft) W 269 0 min 0,000 mm 0,0 UV-I 0 W/m 4,7 C 5,6 C 1,6 km/h (1 Bft)
07.10.2022 07:17 5,6 C 2,8 C 8,3 C 8,9 C 9,4 C 94 % 15 lf 28 cb 185 cb 112 cb 42 cb 1026,8 hPa 0,0 l/m 0,0 km/h (0 Bft) W 269 0 min 0,000 mm 0,0 UV-I 0 W/m 4,7 C 5,6 C 0,0 km/h (0 Bft)
07.10.2022 07:16 5,6 C 2,8 C 8,3 C 8,9 C 9,4 C 94 % 15 lf 28 cb 185 cb 112 cb 42 cb 1026,8 hPa 0,0 l/m 0,7 km/h (0 Bft) W 269 0 min 0,000 mm 0,0 UV-I 0 W/m 4,7 C 5,6 C 3,2 km/h (1 Bft)
07.10.2022 07:15 5,6 C 2,8 C 8,3 C 8,9 C 9,4 C 94 % 15 lf 28 cb 185 cb 112 cb 42 cb 1026,8 hPa 0,0 l/m 0,1 km/h (0 Bft) W 269 0 min 0,000 mm 0,0 UV-I 0 W/m 4,7 C 5,6 C 1,6 km/h (1 Bft)
07.10.2022 07:14 5,6 C 2,8 C 8,3 C 8,9 C 9,4 C 94 % 15 lf 28 cb 185 cb 112 cb 42 cb 1026,8 hPa 0,0 l/m 0,0 km/h (0 Bft) W 269 0 min 0,000 mm 0,0 UV-I 0 W/m 4,7 C 5,6 C 0,0 km/h (0 Bft)
07.10.2022 07:13 5,6 C 2,8 C 8,3 C 8,9 C 9,4 C 94 % 15 lf 28 cb 185 cb 112 cb 42 cb 1026,8 hPa 0,0 l/m 0,0 km/h (0 Bft) W 269 0 min 0,000 mm 0,0 UV-I 0 W/m 4,7 C 5,6 C 0,0 km/h (0 Bft)
07.10.2022 07:12 5,6 C 2,8 C 8,3 C 8,9 C 9,4 C 94 % 15 lf 28 cb 185 cb 112 cb 42 cb 1026,8 hPa 0,0 l/m 0,0 km/h (0 Bft) W 269 0 min 0,000 mm 0,0 UV-I 0 W/m 4,7 C 5,6 C 0,0 km/h (0 Bft)
07.10.2022 07:11 5,6 C 2,8 C 8,3 C 8,9 C 9,4 C 94 % 15 lf 28 cb 185 cb 112 cb 42 cb 1026,9 hPa 0,0 l/m 0,0 km/h (0 Bft) W 269 0 min 0,000 mm 0,0 UV-I 0 W/m 4,7 C 5,6 C 0,0 km/h (0 Bft)
07.10.2022 07:10 5,6 C 2,8 C 8,3 C 8,9 C 9,4 C 94 % 15 lf 28 cb 185 cb 112 cb 42 cb 1026,9 hPa 0,0 l/m 0,0 km/h (0 Bft) W 269 0 min 0,000 mm 0,0 UV-I 0 W/m 4,7 C 5,6 C 0,0 km/h (0 Bft)
07.10.2022 07:09 5,6 C 2,8 C 8,3 C 8,9 C 9,4 C 94 % 15 lf 28 cb 185 cb 112 cb 42 cb 1026,9 hPa 0,0 l/m 0,0 km/h (0 Bft) W 269 0 min 0,000 mm 0,0 UV-I 0 W/m 4,7 C 5,6 C 0,0 km/h (0 Bft)
07.10.2022 07:08 5,6 C 2,8 C 8,3 C 8,9 C 9,4 C 94 % 15 lf 28 cb 185 cb 112 cb 42 cb 1026,9 hPa 0,0 l/m 0,6 km/h (0 Bft) W 269 0 min 0,000 mm 0,0 UV-I 0 W/m 4,7 C 5,6 C 4,8 km/h (1 Bft)
07.10.2022 07:07 5,6 C 2,8 C 8,3 C 8,9 C 9,4 C 94 % 15 lf 28 cb 185 cb 112 cb 42 cb 1026,9 hPa 0,0 l/m 0,0 km/h (0 Bft) W 269 0 min 0,000 mm 0,0 UV-I 0 W/m 4,7 C 5,6 C 0,0 km/h (0 Bft)
07.10.2022 07:05 5,6 C 2,8 C 8,3 C 8,9 C 9,4 C 94 % 15 lf 28 cb 185 cb 112 cb 42 cb 1027,0 hPa 0,0 l/m 0,0 km/h (0 Bft) W 269 0 min 0,000 mm 0,0 UV-I 0 W/m 4,7 C 5,6 C 0,0 km/h (0 Bft)
07.10.2022 07:04 5,7 C 2,8 C 8,3 C 8,9 C 9,4 C 94 % 15 lf 28 cb 185 cb 112 cb 42 cb 1026,9 hPa 0,0 l/m 0,2 km/h (0 Bft) W 269 0 min 0,000 mm 0,0 UV-I 0 W/m 4,8 C 5,7 C 3,2 km/h (1 Bft)
07.10.2022 07:03 5,7 C 2,8 C 8,3 C 8,9 C 9,4 C 94 % 15 lf 28 cb 185 cb 112 cb 42 cb 1027,0 hPa 0,0 l/m 0,8 km/h (0 Bft) W 269 0 min 0,000 mm 0,0 UV-I 0 W/m 4,8 C 5,7 C 3,2 km/h (1 Bft)
07.10.2022 07:02 5,7 C 2,8 C 8,3 C 9,4 C 9,4 C 94 % 15 lf 28 cb 185 cb 113 cb 42 cb 1027,0 hPa 0,0 l/m 0,0 km/h (0 Bft) W 269 0 min 0,000 mm 0,0 UV-I 0 W/m 4,8 C 5,7 C 0,0 km/h (0 Bft)
07.10.2022 07:01 5,7 C 2,8 C 8,3 C 9,4 C 9,4 C 94 % 15 lf 28 cb 185 cb 113 cb 42 cb 1027,0 hPa 0,0 l/m 0,0 km/h (0 Bft) W 269 0 min 0,000 mm 0,0 UV-I 0 W/m 4,8 C 5,7 C 0,0 km/h (0 Bft)
07.10.2022 07:00 5,7 C 2,8 C 8,3 C 9,4 C 9,4 C 94 % 15 lf 28 cb 185 cb 113 cb 42 cb 1027,0 hPa 0,0 l/m 0,0 km/h (0 Bft) W 269 0 min 0,000 mm 0,0 UV-I 0 W/m 4,8 C 5,7 C 0,0 km/h (0 Bft)
07.10.2022 06:59 5,7 C 2,8 C 8,3 C 9,4 C 9,4 C 93 % 15 lf 28 cb 185 cb 113 cb 42 cb 1027,0 hPa 0,0 l/m 0,0 km/h (0 Bft) W 269 0 min 0,000 mm 0,0 UV-I 0 W/m 4,7 C 5,7 C 0,0 km/h (0 Bft)
07.10.2022 06:58 5,7 C 2,8 C 8,3 C 9,4 C 9,4 C 93 % 15 lf 28 cb 185 cb 113 cb 42 cb 1027,0 hPa 0,0 l/m 0,0 km/h (0 Bft) W 269 0 min 0,000 mm 0,0 UV-I 0 W/m 4,7 C 5,7 C 0,0 km/h (0 Bft)
07.10.2022 06:57 5,7 C 2,8 C 8,3 C 9,4 C 9,4 C 93 % 15 lf 28 cb 185 cb 113 cb 42 cb 1027,0 hPa 0,0 l/m 0,0 km/h (0 Bft) W 269 0 min 0,000 mm 0,0 UV-I 0 W/m 4,7 C 5,7 C 0,0 km/h (0 Bft)
07.10.2022 06:56 5,7 C 2,8 C 8,3 C 9,4 C 9,4 C 93 % 15 lf 28 cb 185 cb 113 cb 42 cb 1027,0 hPa 0,0 l/m 0,0 km/h (0 Bft) W 269 0 min 0,000 mm 0,0 UV-I 0 W/m 4,7 C 5,7 C 0,0 km/h (0 Bft)
07.10.2022 06:55 5,7 C 2,8 C 8,3 C 9,4 C 9,4 C 93 % 15 lf 28 cb 185 cb 113 cb 42 cb 1026,9 hPa 0,0 l/m 0,0 km/h (0 Bft) W 269 0 min 0,000 mm 0,0 UV-I 0 W/m 4,7 C 5,7 C 0,0 km/h (0 Bft)
07.10.2022 06:54 5,7 C 2,8 C 8,3 C 9,4 C 9,4 C 93 % 15 lf 28 cb 185 cb 113 cb 42 cb 1027,0 hPa 0,0 l/m 0,0 km/h (0 Bft) W 269 0 min 0,000 mm 0,0 UV-I 0 W/m 4,7 C 5,7 C 0,0 km/h (0 Bft)
07.10.2022 06:53 5,7 C 2,8 C 8,3 C 9,4 C 9,4 C 93 % 15 lf 28 cb 185 cb 113 cb 42 cb 1027,0 hPa 0,0 l/m 0,0 km/h (0 Bft) W 269 0 min 0,000 mm 0,0 UV-I 0 W/m 4,7 C 5,7 C 0,0 km/h (0 Bft)
07.10.2022 06:52 5,7 C 2,8 C 8,3 C 9,4 C 9,4 C 94 % 15 lf 28 cb 185 cb 113 cb 42 cb 1027,0 hPa 0,0 l/m 0,0 km/h (0 Bft) W 269 0 min 0,000 mm 0,0 UV-I 0 W/m 4,8 C 5,7 C 0,0 km/h (0 Bft)
07.10.2022 06:51 5,7 C 2,8 C 8,3 C 9,4 C 9,4 C 94 % 15 lf 28 cb 185 cb 113 cb 42 cb 1027,0 hPa 0,0 l/m 0,0 km/h (0 Bft) W 269 0 min 0,000 mm 0,0 UV-I 0 W/m 4,8 C 5,7 C 0,0 km/h (0 Bft)
07.10.2022 06:50 5,7 C 2,8 C 8,3 C 9,4 C 9,4 C 93 % 15 lf 28 cb 185 cb 113 cb 42 cb 1027,0 hPa 0,0 l/m 0,0 km/h (0 Bft) W 269 0 min 0,000 mm 0,0 UV-I 0 W/m 4,7 C 5,7 C 0,0 km/h (0 Bft)
07.10.2022 06:49 5,7 C 2,8 C 8,3 C 9,4 C 9,4 C 93 % 15 lf 28 cb 185 cb 113 cb 42 cb 1027,0 hPa 0,0 l/m 0,0 km/h (0 Bft) W 269 0 min 0,000 mm 0,0 UV-I 0 W/m 4,7 C 5,7 C 0,0 km/h (0 Bft)
07.10.2022 06:48 5,7 C 2,8 C 8,3 C 9,4 C 9,4 C 93 % 15 lf 28 cb 185 cb 113 cb 42 cb 1027,0 hPa 0,0 l/m 0,0 km/h (0 Bft) W 269 0 min 0,000 mm 0,0 UV-I 0 W/m 4,7 C 5,7 C 0,0 km/h (0 Bft)
07.10.2022 06:47 5,7 C 2,8 C 8,3 C 9,4 C 9,4 C 93 % 15 lf 28 cb 185 cb 113 cb 42 cb 1027,0 hPa 0,0 l/m 0,0 km/h (0 Bft) W 269 0 min 0,000 mm 0,0 UV-I 0 W/m 4,7 C 5,7 C 0,0 km/h (0 Bft)
07.10.2022 06:46 5,7 C 2,8 C 8,3 C 9,4 C 9,4 C 93 % 15 lf 28 cb 185 cb 113 cb 42 cb 1027,0 hPa 0,0 l/m 0,0 km/h (0 Bft) W 269 0 min 0,000 mm 0,0 UV-I 0 W/m 4,7 C 5,7 C 0,0 km/h (0 Bft)
07.10.2022 06:45 5,7 C 2,8 C 8,3 C 9,4 C 9,4 C 93 % 15 lf 28 cb 185 cb 113 cb 42 cb 1027,0 hPa 0,0 l/m 0,0 km/h (0 Bft) W 269 0 min 0,000 mm 0,0 UV-I 0 W/m 4,7 C 5,7 C 0,0 km/h (0 Bft)
07.10.2022 06:44 5,7 C 2,8 C 8,3 C 9,4 C 9,4 C 93 % 15 lf 28 cb 185 cb 113 cb 42 cb 1027,0 hPa 0,0 l/m 0,0 km/h (0 Bft) W 269 0 min 0,000 mm 0,0 UV-I 0 W/m 4,7 C 5,7 C 0,0 km/h (0 Bft)
07.10.2022 06:43 5,7 C 2,8 C 8,3 C 9,4 C 9,4 C 93 % 15 lf 28 cb 185 cb 113 cb 42 cb 1027,0 hPa 0,0 l/m 0,0 km/h (0 Bft) W 269 0 min 0,000 mm 0,0 UV-I 0 W/m 4,7 C 5,7 C 0,0 km/h (0 Bft)
07.10.2022 06:42 5,7 C 2,8 C 8,3 C 9,4 C 9,4 C 93 % 15 lf 28 cb 185 cb 113 cb 42 cb 1027,0 hPa 0,0 l/m 0,0 km/h (0 Bft) W 269 0 min 0,000 mm 0,0 UV-I 0 W/m 4,7 C 5,7 C 0,0 km/h (0 Bft)
07.10.2022 06:41 5,7 C 2,8 C 8,3 C 9,4 C 9,4 C 93 % 15 lf 28 cb 185 cb 113 cb 42 cb 1027,0 hPa 0,0 l/m 0,0 km/h (0 Bft) W 269 0 min 0,000 mm 0,0 UV-I 0 W/m 4,7 C 5,7 C 0,0 km/h (0 Bft)
07.10.2022 06:40 5,7 C 2,8 C 8,3 C 9,4 C 9,4 C 93 % 15 lf 28 cb 185 cb 113 cb 42 cb 1027,0 hPa 0,0 l/m 0,0 km/h (0 Bft) W 269 0 min 0,000 mm 0,0 UV-I 0 W/m 4,7 C 5,7 C 0,0 km/h (0 Bft)
07.10.2022 06:39 5,7 C 2,8 C 8,3 C 9,4 C 9,4 C 93 % 15 lf 28 cb 185 cb 113 cb 42 cb 1027,1 hPa 0,0 l/m 0,0 km/h (0 Bft) W 269 0 min 0,000 mm 0,0 UV-I 0 W/m 4,7 C 5,7 C 0,0 km/h (0 Bft)
07.10.2022 06:38 5,7 C 2,8 C 8,3 C 9,4 C 9,4 C 93 % 15 lf 28 cb 185 cb 113 cb 42 cb 1027,0 hPa 0,0 l/m 0,0 km/h (0 Bft) W 269 0 min 0,000 mm 0,0 UV-I 0 W/m 4,7 C 5,7 C 0,0 km/h (0 Bft)
07.10.2022 06:37 5,7 C 2,8 C 8,3 C 9,4 C 9,4 C 93 % 15 lf 28 cb 185 cb 113 cb 42 cb 1027,1 hPa 0,0 l/m 0,0 km/h (0 Bft) W 269 0 min 0,000 mm 0,0 UV-I 0 W/m 4,7 C 5,7 C 0,0 km/h (0 Bft)
07.10.2022 06:36 5,7 C 2,8 C 8,3 C 9,4 C 9,4 C 93 % 15 lf 28 cb 185 cb 113 cb 42 cb 1027,0 hPa 0,0 l/m 0,0 km/h (0 Bft) W 269 0 min 0,000 mm 0,0 UV-I 0 W/m 4,7 C 5,7 C 0,0 km/h (0 Bft)
07.10.2022 06:35 5,7 C 2,8 C 8,3 C 9,4 C 9,4 C 93 % 15 lf 28 cb 185 cb 113 cb 42 cb 1027,0 hPa 0,0 l/m 0,0 km/h (0 Bft) W 269 0 min 0,000 mm 0,0 UV-I 0 W/m 4,7 C 5,7 C 0,0 km/h (0 Bft)
07.10.2022 06:34 5,7 C 2,8 C 8,3 C 9,4 C 9,4 C 93 % 15 lf 28 cb 185 cb 113 cb 42 cb 1027,0 hPa 0,0 l/m 0,0 km/h (0 Bft) W 269 0 min 0,000 mm 0,0 UV-I 0 W/m 4,7 C 5,7 C 0,0 km/h (0 Bft)
07.10.2022 06:33 5,7 C 2,8 C 8,3 C 9,4 C 9,4 C 93 % 15 lf 28 cb 185 cb 113 cb 42 cb 1027,0 hPa 0,0 l/m 0,0 km/h (0 Bft) W 269 0 min 0,000 mm 0,0 UV-I 0 W/m 4,7 C 5,7 C 0,0 km/h (0 Bft)
07.10.2022 06:32 5,7 C 2,8 C 8,3 C 9,4 C 9,4 C 93 % 15 lf 28 cb 185 cb 113 cb 42 cb 1027,0 hPa 0,0 l/m 0,0 km/h (0 Bft) W 269 0 min 0,000 mm 0,0 UV-I 0 W/m 4,7 C 5,7 C 0,0 km/h (0 Bft)
07.10.2022 06:31 5,7 C 2,8 C 8,3 C 9,4 C 9,4 C 93 % 15 lf 28 cb 185 cb 113 cb 42 cb 1027,0 hPa 0,0 l/m 0,0 km/h (0 Bft) W 269 0 min 0,000 mm 0,0 UV-I 0 W/m 4,7 C 5,7 C 0,0 km/h (0 Bft)
07.10.2022 06:30 5,7 C 2,8 C 8,3 C 9,4 C 9,4 C 93 % 15 lf 28 cb 185 cb 113 cb 42 cb 1027,1 hPa 0,0 l/m 0,0 km/h (0 Bft) W 269 0 min 0,000 mm 0,0 UV-I 0 W/m 4,7 C 5,7 C 0,0 km/h (0 Bft)
07.10.2022 06:29 5,8 C 2,8 C 8,3 C 9,4 C 10,0 C 93 % 15 lf 28 cb 185 cb 113 cb 43 cb 1027,0 hPa 0,0 l/m 0,0 km/h (0 Bft) W 269 0 min 0,000 mm 0,0 UV-I 0 W/m 4,8 C 5,8 C 0,0 km/h (0 Bft)
07.10.2022 06:28 5,8 C 2,8 C 8,3 C 9,4 C 10,0 C 93 % 15 lf 28 cb 185 cb 113 cb 43 cb 1027,1 hPa 0,0 l/m 0,0 km/h (0 Bft) W 269 0 min 0,000 mm 0,0 UV-I 0 W/m 4,8 C 5,8 C 0,0 km/h (0 Bft)
07.10.2022 06:27 5,8 C 2,8 C 8,3 C 9,4 C 10,0 C 93 % 15 lf 28 cb 185 cb 113 cb 43 cb 1027,1 hPa 0,0 l/m 0,0 km/h (0 Bft) W 269 0 min 0,000 mm 0,0 UV-I 0 W/m 4,8 C 5,8 C 0,0 km/h (0 Bft)
07.10.2022 06:26 5,8 C 2,8 C 8,3 C 9,4 C 10,0 C 93 % 15 lf 28 cb 185 cb 113 cb 43 cb 1027,1 hPa 0,0 l/m 0,0 km/h (0 Bft) W 269 0 min 0,000 mm 0,0 UV-I 0 W/m 4,8 C 5,8 C 0,0 km/h (0 Bft)
07.10.2022 06:25 5,8 C 2,8 C 8,3 C 9,4 C 10,0 C 93 % 15 lf 28 cb 185 cb 113 cb 43 cb 1027,2 hPa 0,0 l/m 0,0 km/h (0 Bft) W 269 0 min 0,000 mm 0,0 UV-I 0 W/m 4,8 C 5,8 C 0,0 km/h (0 Bft)
07.10.2022 06:24 5,8 C 2,8 C 8,3 C 9,4 C 10,0 C 93 % 15 lf 28 cb 185 cb 113 cb 43 cb 1027,1 hPa 0,0 l/m 0,0 km/h (0 Bft) W 269 0 min 0,000 mm 0,0 UV-I 0 W/m 4,8 C 5,8 C 0,0 km/h (0 Bft)
07.10.2022 06:23 5,8 C 2,8 C 8,3 C 9,4 C 10,0 C 93 % 15 lf 28 cb 185 cb 113 cb 43 cb 1027,1 hPa 0,0 l/m 0,0 km/h (0 Bft) W 269 0 min 0,000 mm 0,0 UV-I 0 W/m 4,8 C 5,8 C 0,0 km/h (0 Bft)
07.10.2022 06:22 5,8 C 2,8 C 8,3 C 9,4 C 10,0 C 93 % 15 lf 28 cb 185 cb 113 cb 43 cb 1027,1 hPa 0,0 l/m 0,0 km/h (0 Bft) W 269 0 min 0,000 mm 0,0 UV-I 0 W/m 4,8 C 5,8 C 0,0 km/h (0 Bft)
07.10.2022 06:21 5,8 C 2,8 C 8,3 C 9,4 C 10,0 C 93 % 15 lf 28 cb 185 cb 113 cb 43 cb 1027,1 hPa 0,0 l/m 0,0 km/h (0 Bft) W 269 0 min 0,000 mm 0,0 UV-I 0 W/m 4,8 C 5,8 C 0,0 km/h (0 Bft)
07.10.2022 06:20 5,8 C 2,8 C 8,3 C 9,4 C 10,0 C 93 % 15 lf 28 cb 185 cb 113 cb 43 cb 1027,2 hPa 0,0 l/m 0,0 km/h (0 Bft) W 269 0 min 0,000 mm 0,0 UV-I 0 W/m 4,8 C 5,8 C 0,0 km/h (0 Bft)
07.10.2022 06:19 5,8 C 2,8 C 8,3 C 9,4 C 10,0 C 93 % 15 lf 28 cb 185 cb 113 cb 43 cb 1027,2 hPa 0,0 l/m 0,0 km/h (0 Bft) W 269 0 min 0,000 mm 0,0 UV-I 0 W/m 4,8 C 5,8 C 0,0 km/h (0 Bft)
07.10.2022 06:18 5,8 C 2,8 C 8,3 C 9,4 C 10,0 C 93 % 15 lf 28 cb 185 cb 113 cb 43 cb 1027,1 hPa 0,0 l/m 0,0 km/h (0 Bft) W 269 0 min 0,000 mm 0,0 UV-I 0 W/m 4,8 C 5,8 C 0,0 km/h (0 Bft)
07.10.2022 06:17 5,8 C 2,8 C 8,3 C 9,4 C 10,0 C 93 % 15 lf 28 cb 185 cb 113 cb 43 cb 1027,1 hPa 0,0 l/m 0,0 km/h (0 Bft) W 269 0 min 0,000 mm 0,0 UV-I 0 W/m 4,8 C 5,8 C 0,0 km/h (0 Bft)
07.10.2022 06:16 5,9 C 2,8 C 8,3 C 9,4 C 10,0 C 93 % 15 lf 28 cb 185 cb 113 cb 43 cb 1027,2 hPa 0,0 l/m 0,0 km/h (0 Bft) W 269 0 min 0,000 mm 0,0 UV-I 0 W/m 4,9 C 5,9 C 0,0 km/h (0 Bft)
07.10.2022 06:15 5,9 C 2,8 C 8,3 C 9,4 C 10,0 C 93 % 15 lf 28 cb 185 cb 113 cb 43 cb 1027,2 hPa 0,0 l/m 0,0 km/h (0 Bft) W 269 0 min 0,000 mm 0,0 UV-I 0 W/m 4,9 C 5,9 C 0,0 km/h (0 Bft)
07.10.2022 06:14 5,9 C 2,8 C 8,3 C 9,4 C 10,0 C 93 % 15 lf 28 cb 185 cb 113 cb 43 cb 1027,2 hPa 0,0 l/m 0,0 km/h (0 Bft) W 269 0 min 0,000 mm 0,0 UV-I 0 W/m 4,9 C 5,9 C 0,0 km/h (0 Bft)
07.10.2022 06:13 5,9 C 2,8 C 8,3 C 9,4 C 10,0 C 93 % 15 lf 28 cb 185 cb 113 cb 43 cb 1027,2 hPa 0,0 l/m 0,0 km/h (0 Bft) W 269 0 min 0,000 mm 0,0 UV-I 0 W/m 4,9 C 5,9 C 0,0 km/h (0 Bft)
07.10.2022 06:12 5,9 C 2,8 C 8,3 C 9,4 C 10,0 C 93 % 15 lf 28 cb 185 cb 113 cb 43 cb 1027,2 hPa 0,0 l/m 0,0 km/h (0 Bft) W 269 0 min 0,000 mm 0,0 UV-I 0 W/m 4,9 C 5,9 C 0,0 km/h (0 Bft)
07.10.2022 06:11 5,9 C 2,8 C 8,3 C 9,4 C 10,0 C 93 % 15 lf 28 cb 185 cb 113 cb 43 cb 1027,2 hPa 0,0 l/m 0,0 km/h (0 Bft) W 269 0 min 0,000 mm 0,0 UV-I 0 W/m 4,9 C 5,9 C 0,0 km/h (0 Bft)
07.10.2022 06:10 5,9 C 2,8 C 8,3 C 9,4 C 10,0 C 93 % 14 lf 28 cb 185 cb 113 cb 43 cb 1027,2 hPa 0,0 l/m 0,0 km/h (0 Bft) W 269 0 min 0,000 mm 0,0 UV-I 0 W/m 4,9 C 5,9 C 0,0 km/h (0 Bft)
07.10.2022 06:09 5,9 C 2,8 C 8,3 C 9,4 C 10,0 C 93 % 14 lf 28 cb 185 cb 113 cb 43 cb 1027,2 hPa 0,0 l/m 0,0 km/h (0 Bft) W 269 0 min 0,000 mm 0,0 UV-I 0 W/m 4,9 C 5,9 C 0,0 km/h (0 Bft)
07.10.2022 06:08 5,9 C 2,8 C 8,3 C 9,4 C 10,0 C 93 % 14 lf 28 cb 185 cb 113 cb 43 cb 1027,3 hPa 0,0 l/m 0,0 km/h (0 Bft) W 269 0 min 0,000 mm 0,0 UV-I 0 W/m 4,9 C 5,9 C 0,0 km/h (0 Bft)
07.10.2022 06:07 5,9 C 2,8 C 8,3 C 9,4 C 10,0 C 93 % 14 lf 28 cb 185 cb 113 cb 43 cb 1027,2 hPa 0,0 l/m 0,0 km/h (0 Bft) W 269 0 min 0,000 mm 0,0 UV-I 0 W/m 4,9 C 5,9 C 0,0 km/h (0 Bft)
07.10.2022 06:05 5,9 C 2,8 C 8,3 C 9,4 C 10,0 C 93 % 14 lf 28 cb 185 cb 113 cb 43 cb 1027,3 hPa 0,0 l/m 0,0 km/h (0 Bft) W 269 0 min 0,000 mm 0,0 UV-I 0 W/m 4,9 C 5,9 C 0,0 km/h (0 Bft)
07.10.2022 06:04 5,9 C 2,8 C 8,3 C 9,4 C 10,0 C 93 % 14 lf 28 cb 185 cb 113 cb 43 cb 1027,3 hPa 0,0 l/m 0,0 km/h (0 Bft) W 269 0 min 0,000 mm 0,0 UV-I 0 W/m 4,9 C 5,9 C 0,0 km/h (0 Bft)
07.10.2022 06:03 5,9 C 2,8 C 8,3 C 9,4 C 10,0 C 93 % 14 lf 28 cb 185 cb 113 cb 43 cb 1027,3 hPa 0,0 l/m 0,0 km/h (0 Bft) W 269 0 min 0,000 mm 0,0 UV-I 0 W/m 4,9 C 5,9 C 0,0 km/h (0 Bft)
07.10.2022 06:02 5,9 C 2,8 C 8,3 C 9,4 C 10,0 C 93 % 14 lf 28 cb 185 cb 113 cb 43 cb 1027,3 hPa 0,0 l/m 0,0 km/h (0 Bft) W 269 0 min 0,000 mm 0,0 UV-I 0 W/m 4,9 C 5,9 C 0,0 km/h (0 Bft)
07.10.2022 06:01 6,0 C 2,8 C 8,3 C 9,4 C 10,0 C 93 % 14 lf 28 cb 185 cb 112 cb 43 cb 1027,3 hPa 0,0 l/m 0,0 km/h (0 Bft) W 269 0 min 0,000 mm 0,0 UV-I 0 W/m 5,0 C 6,0 C 0,0 km/h (0 Bft)
07.10.2022 06:00 6,0 C 2,8 C 8,3 C 9,4 C 10,0 C 93 % 14 lf 28 cb 185 cb 113 cb 43 cb 1027,3 hPa 0,0 l/m 0,0 km/h (0 Bft) W 269 0 min 0,000 mm 0,0 UV-I 0 W/m 5,0 C 6,0 C 0,0 km/h (0 Bft)
07.10.2022 05:59 6,0 C 2,8 C 8,3 C 9,4 C 10,0 C 93 % 14 lf 28 cb 185 cb 113 cb 43 cb 1027,3 hPa 0,0 l/m 0,0 km/h (0 Bft) W 269 0 min 0,000 mm 0,0 UV-I 0 W/m 5,0 C 6,0 C 0,0 km/h (0 Bft)
07.10.2022 05:58 6,0 C 2,8 C 8,3 C 9,4 C 10,0 C 94 % 14 lf 28 cb 185 cb 112 cb 43 cb 1027,3 hPa 0,0 l/m 0,0 km/h (0 Bft) W 269 0 min 0,000 mm 0,0 UV-I 0 W/m 5,1 C 6,0 C 0,0 km/h (0 Bft)
07.10.2022 05:57 6,0 C 2,8 C 8,3 C 9,4 C 10,0 C 94 % 14 lf 28 cb 185 cb 112 cb 43 cb 1027,3 hPa 0,0 l/m 0,0 km/h (0 Bft) W 269 0 min 0,000 mm 0,0 UV-I 0 W/m 5,1 C 6,0 C 0,0 km/h (0 Bft)
07.10.2022 05:56 5,9 C 2,8 C 8,3 C 9,4 C 10,0 C 94 % 14 lf 28 cb 185 cb 113 cb 43 cb 1027,4 hPa 0,0 l/m 0,0 km/h (0 Bft) W 269 0 min 0,000 mm 0,0 UV-I 0 W/m 5,0 C 5,9 C 0,0 km/h (0 Bft)
07.10.2022 05:55 5,9 C 2,8 C 8,3 C 9,4 C 10,0 C 94 % 14 lf 28 cb 185 cb 112 cb 43 cb 1027,4 hPa 0,0 l/m 0,0 km/h (0 Bft) W 269 0 min 0,000 mm 0,0 UV-I 0 W/m 5,0 C 5,9 C 0,0 km/h (0 Bft)
07.10.2022 05:54 5,9 C 2,8 C 8,3 C 9,4 C 10,0 C 94 % 14 lf 28 cb 185 cb 112 cb 43 cb 1027,3 hPa 0,0 l/m 0,3 km/h (0 Bft) W 269 0 min 0,000 mm 0,0 UV-I 0 W/m 5,0 C 5,9 C 3,2 km/h (1 Bft)
07.10.2022 05:52 5,9 C 2,8 C 8,3 C 9,4 C 10,0 C 93 % 14 lf 28 cb 185 cb 112 cb 43 cb 1027,3 hPa 0,0 l/m 0,0 km/h (0 Bft) W 269 0 min 0,000 mm 0,0 UV-I 0 W/m 4,9 C 5,9 C 0,0 km/h (0 Bft)
07.10.2022 05:51 5,9 C 2,8 C 8,3 C 9,4 C 10,0 C 93 % 14 lf 28 cb 185 cb 112 cb 43 cb 1027,3 hPa 0,0 l/m 0,0 km/h (0 Bft) W 269 0 min 0,000 mm 0,0 UV-I 0 W/m 4,9 C 5,9 C 0,0 km/h (0 Bft)
07.10.2022 05:50 5,9 C 2,8 C 8,3 C 9,4 C 10,0 C 93 % 14 lf 28 cb 185 cb 112 cb 43 cb 1027,4 hPa 0,0 l/m 0,0 km/h (0 Bft) W 269 0 min 0,000 mm 0,0 UV-I 0 W/m 4,9 C 5,9 C 0,0 km/h (0 Bft)
07.10.2022 05:49 5,8 C 2,8 C 8,3 C 9,4 C 10,0 C 93 % 14 lf 28 cb 185 cb 112 cb 43 cb 1027,3 hPa 0,0 l/m 0,0 km/h (0 Bft) W 269 0 min 0,000 mm 0,0 UV-I 0 W/m 4,8 C 5,8 C 0,0 km/h (0 Bft)
07.10.2022 05:48 5,8 C 2,8 C 8,3 C 9,4 C 10,0 C 93 % 14 lf 28 cb 185 cb 112 cb 43 cb 1027,4 hPa 0,0 l/m 0,0 km/h (0 Bft) W 269 0 min 0,000 mm 0,0 UV-I 0 W/m 4,8 C 5,8 C 0,0 km/h (0 Bft)
07.10.2022 05:47 5,8 C 2,8 C 8,3 C 9,4 C 10,0 C 93 % 14 lf 28 cb 185 cb 112 cb 43 cb 1027,3 hPa 0,0 l/m 0,0 km/h (0 Bft) W 269 0 min 0,000 mm 0,0 UV-I 0 W/m 4,8 C 5,8 C 0,0 km/h (0 Bft)
07.10.2022 05:46 5,8 C 2,8 C 8,3 C 9,4 C 10,0 C 93 % 14 lf 28 cb 185 cb 112 cb 43 cb 1027,4 hPa 0,0 l/m 0,0 km/h (0 Bft) W 269 0 min 0,000 mm 0,0 UV-I 0 W/m 4,8 C 5,8 C 0,0 km/h (0 Bft)
07.10.2022 05:45 5,8 C 2,8 C 8,3 C 9,4 C 10,0 C 93 % 14 lf 28 cb 185 cb 112 cb 43 cb 1027,4 hPa 0,0 l/m 0,0 km/h (0 Bft) W 269 0 min 0,000 mm 0,0 UV-I 0 W/m 4,8 C 5,8 C 0,0 km/h (0 Bft)
07.10.2022 05:44 5,8 C 2,8 C 8,3 C 9,4 C 10,0 C 93 % 14 lf 28 cb 185 cb 112 cb 43 cb 1027,4 hPa 0,0 l/m 0,0 km/h (0 Bft) W 269 0 min 0,000 mm 0,0 UV-I 0 W/m 4,8 C 5,8 C 0,0 km/h (0 Bft)
07.10.2022 05:43 5,8 C 2,8 C 8,3 C 9,4 C 10,0 C 93 % 14 lf 28 cb 184 cb 112 cb 43 cb 1027,4 hPa 0,0 l/m 0,0 km/h (0 Bft) W 269 0 min 0,000 mm 0,0 UV-I 0 W/m 4,8 C 5,8 C 0,0 km/h (0 Bft)
07.10.2022 05:42 5,8 C 2,8 C 8,3 C 9,4 C 10,0 C 93 % 14 lf 28 cb 184 cb 112 cb 43 cb 1027,3 hPa 0,0 l/m 0,0 km/h (0 Bft) W 269 0 min 0,000 mm 0,0 UV-I 0 W/m 4,8 C 5,8 C 0,0 km/h (0 Bft)
07.10.2022 05:41 5,8 C 2,8 C 8,3 C 9,4 C 10,0 C 93 % 14 lf 28 cb 184 cb 112 cb 43 cb 1027,3 hPa 0,0 l/m 0,0 km/h (0 Bft) W 269 0 min 0,000 mm 0,0 UV-I 0 W/m 4,8 C 5,8 C 0,0 km/h (0 Bft)
07.10.2022 05:40 5,8 C 2,8 C 8,3 C 9,4 C 10,0 C 93 % 14 lf 28 cb 184 cb 112 cb 43 cb 1027,3 hPa 0,0 l/m 0,0 km/h (0 Bft) W 269 0 min 0,000 mm 0,0 UV-I 0 W/m 4,8 C 5,8 C 0,0 km/h (0 Bft)
07.10.2022 05:39 5,8 C 2,8 C 8,3 C 9,4 C 10,0 C 93 % 14 lf 28 cb 184 cb 112 cb 43 cb 1027,3 hPa 0,0 l/m 0,0 km/h (0 Bft) W 269 0 min 0,000 mm 0,0 UV-I 0 W/m 4,8 C 5,8 C 0,0 km/h (0 Bft)
07.10.2022 05:38 5,8 C 2,8 C 8,3 C 9,4 C 10,0 C 93 % 14 lf 28 cb 184 cb 112 cb 43 cb 1027,3 hPa 0,0 l/m 0,0 km/h (0 Bft) W 269 0 min 0,000 mm 0,0 UV-I 0 W/m 4,8 C 5,8 C 0,0 km/h (0 Bft)
07.10.2022 05:37 5,7 C 2,8 C 8,3 C 9,4 C 10,0 C 93 % 14 lf 28 cb 184 cb 112 cb 43 cb 1027,3 hPa 0,0 l/m 0,0 km/h (0 Bft) W 269 0 min 0,000 mm 0,0 UV-I 0 W/m 4,7 C 5,7 C 0,0 km/h (0 Bft)
07.10.2022 05:36 5,7 C 2,8 C 8,3 C 9,4 C 10,0 C 93 % 14 lf 28 cb 184 cb 112 cb 43 cb 1027,4 hPa 0,0 l/m 0,0 km/h (0 Bft) W 269 0 min 0,000 mm 0,0 UV-I 0 W/m 4,7 C 5,7 C 0,0 km/h (0 Bft)
07.10.2022 05:35 5,7 C 2,8 C 8,3 C 9,4 C 10,0 C 93 % 14 lf 28 cb 184 cb 112 cb 43 cb 1027,3 hPa 0,0 l/m 0,0 km/h (0 Bft) W 269 0 min 0,000 mm 0,0 UV-I 0 W/m 4,7 C 5,7 C 0,0 km/h (0 Bft)
07.10.2022 05:34 5,7 C 2,8 C 8,3 C 9,4 C 10,0 C 93 % 14 lf 28 cb 184 cb 112 cb 43 cb 1027,3 hPa 0,0 l/m 0,0 km/h (0 Bft) W 269 0 min 0,000 mm 0,0 UV-I 0 W/m 4,7 C 5,7 C 0,0 km/h (0 Bft)
07.10.2022 05:33 5,7 C 2,8 C 8,3 C 9,4 C 10,0 C 93 % 14 lf 28 cb 184 cb 112 cb 43 cb 1027,3 hPa 0,0 l/m 0,0 km/h (0 Bft) W 269 0 min 0,000 mm 0,0 UV-I 0 W/m 4,7 C 5,7 C 0,0 km/h (0 Bft)
07.10.2022 05:32 5,7 C 2,8 C 8,3 C 9,4 C 10,0 C 93 % 14 lf 28 cb 184 cb 112 cb 43 cb 1027,4 hPa 0,0 l/m 0,0 km/h (0 Bft) W 269 0 min 0,000 mm 0,0 UV-I 0 W/m 4,7 C 5,7 C 0,0 km/h (0 Bft)
07.10.2022 05:31 5,7 C 2,8 C 8,9 C 9,4 C 10,0 C 93 % 14 lf 28 cb 186 cb 112 cb 43 cb 1027,4 hPa 0,0 l/m 0,0 km/h (0 Bft) W 269 0 min 0,000 mm 0,0 UV-I 0 W/m 4,7 C 5,7 C 0,0 km/h (0 Bft)
07.10.2022 05:30 5,7 C 2,8 C 8,9 C 9,4 C 10,0 C 93 % 14 lf 28 cb 186 cb 112 cb 43 cb 1027,3 hPa 0,0 l/m 0,0 km/h (0 Bft) W 269 0 min 0,000 mm 0,0 UV-I 0 W/m 4,7 C 5,7 C 0,0 km/h (0 Bft)
07.10.2022 05:29 5,7 C 2,8 C 8,9 C 9,4 C 10,0 C 93 % 14 lf 28 cb 186 cb 112 cb 43 cb 1027,3 hPa 0,0 l/m 0,0 km/h (0 Bft) W 269 0 min 0,000 mm 0,0 UV-I 0 W/m 4,7 C 5,7 C 0,0 km/h (0 Bft)
07.10.2022 05:28 5,7 C 2,8 C 8,9 C 9,4 C 10,0 C 93 % 14 lf 28 cb 186 cb 112 cb 43 cb 1027,3 hPa 0,0 l/m 0,0 km/h (0 Bft) W 269 0 min 0,000 mm 0,0 UV-I 0 W/m 4,7 C 5,7 C 0,0 km/h (0 Bft)
07.10.2022 05:27 5,7 C 2,8 C 8,9 C 9,4 C 10,0 C 93 % 14 lf 28 cb 186 cb 112 cb 43 cb 1027,3 hPa 0,0 l/m 0,0 km/h (0 Bft) W 269 0 min 0,000 mm 0,0 UV-I 0 W/m 4,7 C 5,7 C 0,0 km/h (0 Bft)
07.10.2022 05:26 5,7 C 2,8 C 8,9 C 9,4 C 10,0 C 93 % 14 lf 28 cb 186 cb 112 cb 43 cb 1027,4 hPa 0,0 l/m 0,0 km/h (0 Bft) W 269 0 min 0,000 mm 0,0 UV-I 0 W/m 4,7 C 5,7 C 0,0 km/h (0 Bft)
07.10.2022 05:25 5,7 C 2,8 C 8,9 C 9,4 C 10,0 C 93 % 14 lf 28 cb 186 cb 112 cb 43 cb 1027,4 hPa 0,0 l/m 0,0 km/h (0 Bft) W 269 0 min 0,000 mm 0,0 UV-I 0 W/m 4,7 C 5,7 C 0,0 km/h (0 Bft)
07.10.2022 05:24 5,7 C 2,8 C 8,9 C 9,4 C 10,0 C 93 % 14 lf 28 cb 186 cb 112 cb 43 cb 1027,4 hPa 0,0 l/m 0,0 km/h (0 Bft) W 269 0 min 0,000 mm 0,0 UV-I 0 W/m 4,7 C 5,7 C 0,0 km/h (0 Bft)
07.10.2022 05:23 5,7 C 2,8 C 8,9 C 9,4 C 10,0 C 93 % 14 lf 28 cb 186 cb 112 cb 43 cb 1027,3 hPa 0,0 l/m 0,0 km/h (0 Bft) W 269 0 min 0,000 mm 0,0 UV-I 0 W/m 4,7 C 5,7 C 0,0 km/h (0 Bft)
07.10.2022 05:22 5,7 C 2,8 C 8,9 C 9,4 C 10,0 C 93 % 14 lf 28 cb 186 cb 112 cb 43 cb 1027,3 hPa 0,0 l/m 0,0 km/h (0 Bft) W 269 0 min 0,000 mm 0,0 UV-I 0 W/m 4,7 C 5,7 C 0,0 km/h (0 Bft)
07.10.2022 05:21 5,7 C 2,8 C 8,9 C 9,4 C 10,0 C 93 % 14 lf 28 cb 186 cb 112 cb 43 cb 1027,4 hPa 0,0 l/m 0,0 km/h (0 Bft) W 269 0 min 0,000 mm 0,0 UV-I 0 W/m 4,7 C 5,7 C 0,0 km/h (0 Bft)
07.10.2022 05:20 5,7 C 2,8 C 8,9 C 9,4 C 10,0 C 93 % 14 lf 28 cb 186 cb 112 cb 43 cb 1027,3 hPa 0,0 l/m 0,0 km/h (0 Bft) W 269 0 min 0,000 mm 0,0 UV-I 0 W/m 4,7 C 5,7 C 0,0 km/h (0 Bft)
07.10.2022 05:19 5,7 C 2,8 C 8,9 C 9,4 C 10,0 C 93 % 14 lf 28 cb 186 cb 112 cb 43 cb 1027,4 hPa 0,0 l/m 0,0 km/h (0 Bft) W 269 0 min 0,000 mm 0,0 UV-I 0 W/m 4,7 C 5,7 C 0,0 km/h (0 Bft)
07.10.2022 05:18 5,8 C 2,8 C 8,9 C 9,4 C 10,0 C 93 % 14 lf 28 cb 186 cb 112 cb 43 cb 1027,4 hPa 0,0 l/m 0,0 km/h (0 Bft) W 269 0 min 0,000 mm 0,0 UV-I 0 W/m 4,8 C 5,8 C 0,0 km/h (0 Bft)
07.10.2022 05:17 5,7 C 2,8 C 8,9 C 9,4 C 10,0 C 93 % 14 lf 28 cb 186 cb 112 cb 43 cb 1027,4 hPa 0,0 l/m 0,0 km/h (0 Bft) W 269 0 min 0,000 mm 0,0 UV-I 0 W/m 4,7 C 5,7 C 0,0 km/h (0 Bft)
07.10.2022 05:16 5,8 C 2,8 C 8,9 C 9,4 C 10,0 C 93 % 14 lf 28 cb 186 cb 112 cb 43 cb 1027,4 hPa 0,0 l/m 0,0 km/h (0 Bft) W 269 0 min 0,000 mm 0,0 UV-I 0 W/m 4,8 C 5,8 C 0,0 km/h (0 Bft)
07.10.2022 05:15 5,8 C 2,8 C 8,9 C 9,4 C 10,0 C 93 % 13 lf 28 cb 186 cb 112 cb 43 cb 1027,4 hPa 0,0 l/m 0,0 km/h (0 Bft) W 269 0 min 0,000 mm 0,0 UV-I 0 W/m 4,8 C 5,8 C 0,0 km/h (0 Bft)
07.10.2022 05:14 5,8 C 2,8 C 8,9 C 9,4 C 10,0 C 93 % 13 lf 28 cb 186 cb 112 cb 43 cb 1027,4 hPa 0,0 l/m 0,0 km/h (0 Bft) W 269 0 min 0,000 mm 0,0 UV-I 0 W/m 4,8 C 5,8 C 0,0 km/h (0 Bft)
07.10.2022 05:13 5,8 C 2,8 C 8,9 C 9,4 C 10,0 C 93 % 13 lf 28 cb 186 cb 112 cb 43 cb 1027,4 hPa 0,0 l/m 0,0 km/h (0 Bft) W 269 0 min 0,000 mm 0,0 UV-I 0 W/m 4,8 C 5,8 C 0,0 km/h (0 Bft)
07.10.2022 05:12 5,8 C 2,8 C 8,9 C 9,4 C 10,0 C 93 % 13 lf 28 cb 186 cb 112 cb 43 cb 1027,4 hPa 0,0 l/m 0,0 km/h (0 Bft) W 269 0 min 0,000 mm 0,0 UV-I 0 W/m 4,8 C 5,8 C 0,0 km/h (0 Bft)
07.10.2022 05:11 5,8 C 2,8 C 8,9 C 9,4 C 10,0 C 93 % 13 lf 28 cb 186 cb 112 cb 43 cb 1027,4 hPa 0,0 l/m 0,0 km/h (0 Bft) W 269 0 min 0,000 mm 0,0 UV-I 0 W/m 4,8 C 5,8 C 0,0 km/h (0 Bft)
07.10.2022 05:10 5,7 C 2,8 C 8,9 C 9,4 C 10,0 C 93 % 13 lf 28 cb 186 cb 112 cb 43 cb 1027,4 hPa 0,0 l/m 0,0 km/h (0 Bft) W 269 0 min 0,000 mm 0,0 UV-I 0 W/m 4,7 C 5,7 C 0,0 km/h (0 Bft)
07.10.2022 05:09 5,7 C 2,8 C 8,9 C 9,4 C 10,0 C 93 % 13 lf 28 cb 186 cb 112 cb 43 cb 1027,4 hPa 0,0 l/m 0,0 km/h (0 Bft) W 269 0 min 0,000 mm 0,0 UV-I 0 W/m 4,7 C 5,7 C 0,0 km/h (0 Bft)
07.10.2022 05:08 5,7 C 2,8 C 8,9 C 9,4 C 10,0 C 93 % 13 lf 28 cb 186 cb 112 cb 43 cb 1027,4 hPa 0,0 l/m 0,0 km/h (0 Bft) W 269 0 min 0,000 mm 0,0 UV-I 0 W/m 4,7 C 5,7 C 0,0 km/h (0 Bft)
07.10.2022 05:07 5,8 C 2,8 C 8,9 C 9,4 C 10,0 C 93 % 13 lf 28 cb 186 cb 112 cb 43 cb 1027,4 hPa 0,0 l/m 0,0 km/h (0 Bft) W 269 0 min 0,000 mm 0,0 UV-I 0 W/m 4,8 C 5,8 C 0,0 km/h (0 Bft)
07.10.2022 05:05 5,8 C 2,8 C 8,9 C 9,4 C 10,0 C 93 % 13 lf 28 cb 186 cb 112 cb 43 cb 1027,5 hPa 0,0 l/m 0,0 km/h (0 Bft) W 269 0 min 0,000 mm 0,0 UV-I 0 W/m 4,8 C 5,8 C 0,0 km/h (0 Bft)
07.10.2022 05:04 5,8 C 2,8 C 8,9 C 9,4 C 10,0 C 93 % 13 lf 28 cb 186 cb 112 cb 43 cb 1027,5 hPa 0,0 l/m 0,0 km/h (0 Bft) W 269 0 min 0,000 mm 0,0 UV-I 0 W/m 4,8 C 5,8 C 0,0 km/h (0 Bft)
07.10.2022 05:03 5,8 C 2,8 C 8,9 C 9,4 C 10,0 C 93 % 13 lf 28 cb 186 cb 112 cb 43 cb 1027,4 hPa 0,0 l/m 0,0 km/h (0 Bft) W 269 0 min 0,000 mm 0,0 UV-I 0 W/m 4,8 C 5,8 C 0,0 km/h (0 Bft)
07.10.2022 05:02 5,8 C 2,8 C 8,9 C 9,4 C 10,0 C 92 % 13 lf 28 cb 186 cb 112 cb 43 cb 1027,5 hPa 0,0 l/m 0,0 km/h (0 Bft) W 269 0 min 0,000 mm 0,0 UV-I 0 W/m 4,6 C 5,8 C 0,0 km/h (0 Bft)
07.10.2022 05:01 5,8 C 2,8 C 8,9 C 9,4 C 10,0 C 92 % 13 lf 28 cb 186 cb 112 cb 43 cb 1027,4 hPa 0,0 l/m 0,0 km/h (0 Bft) W 269 0 min 0,000 mm 0,0 UV-I 0 W/m 4,6 C 5,8 C 0,0 km/h (0 Bft)
07.10.2022 05:00 5,8 C 2,8 C 8,9 C 9,4 C 10,0 C 92 % 13 lf 28 cb 186 cb 112 cb 43 cb 1027,5 hPa 0,0 l/m 0,0 km/h (0 Bft) W 269 0 min 0,000 mm 0,0 UV-I 0 W/m 4,6 C 5,8 C 0,0 km/h (0 Bft)
07.10.2022 04:59 5,8 C 2,8 C 8,9 C 9,4 C 10,0 C 92 % 13 lf 28 cb 186 cb 112 cb 43 cb 1027,5 hPa 0,0 l/m 0,0 km/h (0 Bft) W 269 0 min 0,000 mm 0,0 UV-I 0 W/m 4,6 C 5,8 C 0,0 km/h (0 Bft)
07.10.2022 04:58 5,8 C 2,8 C 8,9 C 9,4 C 10,0 C 92 % 13 lf 28 cb 186 cb 112 cb 43 cb 1027,5 hPa 0,0 l/m 0,0 km/h (0 Bft) W 269 0 min 0,000 mm 0,0 UV-I 0 W/m 4,6 C 5,8 C 0,0 km/h (0 Bft)
07.10.2022 04:57 5,8 C 2,8 C 8,9 C 9,4 C 10,0 C 92 % 13 lf 28 cb 186 cb 112 cb 43 cb 1027,6 hPa 0,0 l/m 0,0 km/h (0 Bft) W 269 0 min 0,000 mm 0,0 UV-I 0 W/m 4,6 C 5,8 C 0,0 km/h (0 Bft)
07.10.2022 04:56 5,9 C 2,8 C 8,9 C 9,4 C 10,0 C 92 % 13 lf 28 cb 186 cb 112 cb 43 cb 1027,6 hPa 0,0 l/m 0,0 km/h (0 Bft) W 269 0 min 0,000 mm 0,0 UV-I 0 W/m 4,7 C 5,9 C 0,0 km/h (0 Bft)
07.10.2022 04:55 5,9 C 2,8 C 8,9 C 9,4 C 10,0 C 92 % 13 lf 28 cb 186 cb 112 cb 43 cb 1027,6 hPa 0,0 l/m 0,0 km/h (0 Bft) W 269 0 min 0,000 mm 0,0 UV-I 0 W/m 4,7 C 5,9 C 0,0 km/h (0 Bft)
07.10.2022 04:54 5,9 C 2,8 C 8,9 C 9,4 C 10,0 C 92 % 13 lf 28 cb 186 cb 112 cb 43 cb 1027,6 hPa 0,0 l/m 0,0 km/h (0 Bft) W 269 0 min 0,000 mm 0,0 UV-I 0 W/m 4,7 C 5,9 C 0,0 km/h (0 Bft)
07.10.2022 04:53 5,9 C 2,8 C 8,9 C 9,4 C 10,0 C 92 % 13 lf 28 cb 186 cb 112 cb 43 cb 1027,6 hPa 0,0 l/m 0,0 km/h (0 Bft) W 269 0 min 0,000 mm 0,0 UV-I 0 W/m 4,7 C 5,9 C 0,0 km/h (0 Bft)
07.10.2022 04:52 5,9 C 2,8 C 8,9 C 9,4 C 10,0 C 92 % 13 lf 28 cb 186 cb 112 cb 43 cb 1027,7 hPa 0,0 l/m 0,0 km/h (0 Bft) W 269 0 min 0,000 mm 0,0 UV-I 0 W/m 4,7 C 5,9 C 0,0 km/h (0 Bft)
07.10.2022 04:51 5,9 C 2,8 C 8,9 C 9,4 C 10,0 C 92 % 13 lf 28 cb 186 cb 112 cb 43 cb 1027,6 hPa 0,0 l/m 0,0 km/h (0 Bft) W 269 0 min 0,000 mm 0,0 UV-I 0 W/m 4,7 C 5,9 C 0,0 km/h (0 Bft)
07.10.2022 04:50 5,9 C 2,8 C 8,9 C 9,4 C 10,0 C 92 % 13 lf 28 cb 186 cb 112 cb 43 cb 1027,7 hPa 0,0 l/m 0,0 km/h (0 Bft) W 269 0 min 0,000 mm 0,0 UV-I 0 W/m 4,7 C 5,9 C 0,0 km/h (0 Bft)
07.10.2022 04:49 5,9 C 2,8 C 8,9 C 9,4 C 10,0 C 92 % 13 lf 28 cb 186 cb 112 cb 43 cb 1027,7 hPa 0,0 l/m 0,0 km/h (0 Bft) W 269 0 min 0,000 mm 0,0 UV-I 0 W/m 4,7 C 5,9 C 0,0 km/h (0 Bft)
07.10.2022 04:48 5,9 C 2,8 C 8,9 C 9,4 C 10,0 C 92 % 13 lf 28 cb 186 cb 112 cb 43 cb 1027,6 hPa 0,0 l/m 0,0 km/h (0 Bft) W 269 0 min 0,000 mm 0,0 UV-I 0 W/m 4,7 C 5,9 C 0,0 km/h (0 Bft)
07.10.2022 04:47 6,0 C 2,8 C 8,9 C 9,4 C 10,0 C 92 % 13 lf 28 cb 186 cb 112 cb 43 cb 1027,7 hPa 0,0 l/m 0,0 km/h (0 Bft) W 269 0 min 0,000 mm 0,0 UV-I 0 W/m 4,8 C 6,0 C 0,0 km/h (0 Bft)
07.10.2022 04:46 6,0 C 2,8 C 8,9 C 9,4 C 10,0 C 92 % 13 lf 28 cb 186 cb 112 cb 43 cb 1027,7 hPa 0,0 l/m 0,0 km/h (0 Bft) W 269 0 min 0,000 mm 0,0 UV-I 0 W/m 4,8 C 6,0 C 0,0 km/h (0 Bft)
07.10.2022 04:45 6,0 C 2,8 C 8,9 C 9,4 C 10,0 C 92 % 13 lf 28 cb 186 cb 112 cb 43 cb 1027,7 hPa 0,0 l/m 0,0 km/h (0 Bft) W 269 0 min 0,000 mm 0,0 UV-I 0 W/m 4,8 C 6,0 C 0,0 km/h (0 Bft)
07.10.2022 04:44 6,0 C 2,8 C 8,9 C 9,4 C 10,0 C 92 % 13 lf 28 cb 186 cb 112 cb 43 cb 1027,8 hPa 0,0 l/m 0,0 km/h (0 Bft) W 269 0 min 0,000 mm 0,0 UV-I 0 W/m 4,8 C 6,0 C 0,0 km/h (0 Bft)
07.10.2022 04:43 6,0 C 2,8 C 8,9 C 9,4 C 10,0 C 92 % 13 lf 28 cb 186 cb 112 cb 43 cb 1027,7 hPa 0,0 l/m 0,0 km/h (0 Bft) W 269 0 min 0,000 mm 0,0 UV-I 0 W/m 4,8 C 6,0 C 0,0 km/h (0 Bft)
07.10.2022 04:42 6,1 C 2,8 C 8,9 C 9,4 C 10,0 C 93 % 13 lf 28 cb 186 cb 112 cb 43 cb 1027,8 hPa 0,0 l/m 0,0 km/h (0 Bft) W 269 0 min 0,000 mm 0,0 UV-I 0 W/m 5,1 C 6,1 C 0,0 km/h (0 Bft)
07.10.2022 04:41 6,1 C 3,3 C 8,9 C 9,4 C 10,0 C 93 % 13 lf 28 cb 186 cb 112 cb 43 cb 1027,8 hPa 0,0 l/m 0,0 km/h (0 Bft) W 269 0 min 0,000 mm 0,0 UV-I 0 W/m 5,1 C 6,1 C 0,0 km/h (0 Bft)
07.10.2022 04:40 6,1 C 3,3 C 8,9 C 9,4 C 10,0 C 93 % 13 lf 28 cb 186 cb 112 cb 43 cb 1027,8 hPa 0,0 l/m 0,0 km/h (0 Bft) W 269 0 min 0,000 mm 0,0 UV-I 0 W/m 5,1 C 6,1 C 0,0 km/h (0 Bft)
07.10.2022 04:38 6,1 C 2,8 C 8,9 C 9,4 C 10,0 C 93 % 13 lf 28 cb 186 cb 112 cb 43 cb 1027,8 hPa 0,0 l/m 0,0 km/h (0 Bft) W 269 0 min 0,000 mm 0,0 UV-I 0 W/m 5,1 C 6,1 C 0,0 km/h (0 Bft)
07.10.2022 04:37 6,1 C 3,3 C 8,9 C 9,4 C 10,0 C 93 % 13 lf 28 cb 186 cb 112 cb 43 cb 1027,8 hPa 0,0 l/m 0,0 km/h (0 Bft) W 269 0 min 0,000 mm 0,0 UV-I 0 W/m 5,1 C 6,1 C 0,0 km/h (0 Bft)
07.10.2022 04:36 6,1 C 3,3 C 8,9 C 9,4 C 10,0 C 93 % 13 lf 28 cb 186 cb 112 cb 43 cb 1027,8 hPa 0,0 l/m 0,0 km/h (0 Bft) W 269 0 min 0,000 mm 0,0 UV-I 0 W/m 5,1 C 6,1 C 0,0 km/h (0 Bft)
07.10.2022 04:35 6,1 C 3,3 C 8,9 C 9,4 C 10,0 C 93 % 13 lf 28 cb 186 cb 112 cb 43 cb 1027,9 hPa 0,0 l/m 0,0 km/h (0 Bft) W 269 0 min 0,000 mm 0,0 UV-I 0 W/m 5,1 C 6,1 C 0,0 km/h (0 Bft)
07.10.2022 04:34 6,1 C 3,3 C 8,9 C 9,4 C 10,0 C 93 % 13 lf 28 cb 186 cb 112 cb 43 cb 1027,9 hPa 0,0 l/m 0,0 km/h (0 Bft) W 269 0 min 0,000 mm 0,0 UV-I 0 W/m 5,1 C 6,1 C 0,0 km/h (0 Bft)
07.10.2022 04:33 6,1 C 3,3 C 8,9 C 9,4 C 10,0 C 93 % 13 lf 28 cb 186 cb 112 cb 43 cb 1027,9 hPa 0,0 l/m 0,0 km/h (0 Bft) W 269 0 min 0,000 mm 0,0 UV-I 0 W/m 5,1 C 6,1 C 0,0 km/h (0 Bft)
07.10.2022 04:32 6,1 C 3,3 C 8,9 C 9,4 C 10,0 C 93 % 13 lf 28 cb 186 cb 112 cb 43 cb 1027,9 hPa 0,0 l/m 0,0 km/h (0 Bft) W 269 0 min 0,000 mm 0,0 UV-I 0 W/m 5,1 C 6,1 C 0,0 km/h (0 Bft)
07.10.2022 04:31 6,1 C 3,3 C 8,9 C 9,4 C 10,0 C 93 % 13 lf 28 cb 186 cb 112 cb 43 cb 1027,9 hPa 0,0 l/m 0,0 km/h (0 Bft) W 269 0 min 0,000 mm 0,0 UV-I 0 W/m 5,1 C 6,1 C 0,0 km/h (0 Bft)
07.10.2022 04:30 6,1 C 3,3 C 8,9 C 9,4 C 10,0 C 93 % 12 lf 28 cb 186 cb 112 cb 43 cb 1027,9 hPa 0,0 l/m 0,0 km/h (0 Bft) W 269 0 min 0,000 mm 0,0 UV-I 0 W/m 5,1 C 6,1 C 0,0 km/h (0 Bft)
07.10.2022 04:29 6,1 C 3,3 C 8,9 C 9,4 C 10,0 C 93 % 12 lf 28 cb 186 cb 112 cb 43 cb 1027,9 hPa 0,0 l/m 0,0 km/h (0 Bft) W 269 0 min 0,000 mm 0,0 UV-I 0 W/m 5,1 C 6,1 C 0,0 km/h (0 Bft)
07.10.2022 04:28 6,1 C 3,3 C 8,9 C 9,4 C 10,0 C 93 % 12 lf 28 cb 186 cb 112 cb 43 cb 1028,0 hPa 0,0 l/m 0,0 km/h (0 Bft) W 269 0 min 0,000 mm 0,0 UV-I 0 W/m 5,1 C 6,1 C 0,0 km/h (0 Bft)
07.10.2022 04:27 6,1 C 3,3 C 8,9 C 9,4 C 10,0 C 93 % 12 lf 28 cb 186 cb 112 cb 43 cb 1028,0 hPa 0,0 l/m 0,0 km/h (0 Bft) W 269 0 min 0,000 mm 0,0 UV-I 0 W/m 5,1 C 6,1 C 0,0 km/h (0 Bft)
07.10.2022 04:26 6,1 C 3,3 C 8,9 C 9,4 C 10,0 C 93 % 12 lf 28 cb 186 cb 112 cb 43 cb 1028,0 hPa 0,0 l/m 0,0 km/h (0 Bft) W 269 0 min 0,000 mm 0,0 UV-I 0 W/m 5,1 C 6,1 C 0,0 km/h (0 Bft)
07.10.2022 04:25 6,1 C 3,3 C 8,9 C 9,4 C 10,0 C 93 % 12 lf 28 cb 186 cb 112 cb 43 cb 1028,0 hPa 0,0 l/m 0,0 km/h (0 Bft) W 269 0 min 0,000 mm 0,0 UV-I 0 W/m 5,1 C 6,1 C 0,0 km/h (0 Bft)
07.10.2022 04:24 6,1 C 3,3 C 8,9 C 9,4 C 10,0 C 93 % 12 lf 28 cb 186 cb 112 cb 43 cb 1028,0 hPa 0,0 l/m 0,0 km/h (0 Bft) W 269 0 min 0,000 mm 0,0 UV-I 0 W/m 5,1 C 6,1 C 0,0 km/h (0 Bft)
07.10.2022 04:23 6,1 C 3,3 C 8,9 C 9,4 C 10,0 C 93 % 12 lf 28 cb 186 cb 112 cb 43 cb 1028,0 hPa 0,0 l/m 0,0 km/h (0 Bft) W 269 0 min 0,000 mm 0,0 UV-I 0 W/m 5,1 C 6,1 C 0,0 km/h (0 Bft)
07.10.2022 04:22 6,1 C 2,8 C 8,9 C 9,4 C 10,0 C 93 % 12 lf 28 cb 186 cb 112 cb 43 cb 1028,0 hPa 0,0 l/m 0,0 km/h (0 Bft) W 269 0 min 0,000 mm 0,0 UV-I 0 W/m 5,1 C 6,1 C 0,0 km/h (0 Bft)
07.10.2022 04:21 6,1 C 3,3 C 8,9 C 9,4 C 10,0 C 92 % 12 lf 28 cb 186 cb 112 cb 43 cb 1028,1 hPa 0,0 l/m 0,0 km/h (0 Bft) W 269 0 min 0,000 mm 0,0 UV-I 0 W/m 4,9 C 6,1 C 0,0 km/h (0 Bft)
07.10.2022 04:20 6,1 C 3,3 C 8,9 C 9,4 C 10,0 C 92 % 12 lf 28 cb 186 cb 112 cb 43 cb 1028,0 hPa 0,0 l/m 0,0 km/h (0 Bft) W 269 0 min 0,000 mm 0,0 UV-I 0 W/m 4,9 C 6,1 C 0,0 km/h (0 Bft)
07.10.2022 04:19 6,1 C 3,3 C 8,9 C 9,4 C 10,0 C 92 % 12 lf 28 cb 186 cb 112 cb 43 cb 1028,0 hPa 0,0 l/m 0,0 km/h (0 Bft) W 269 0 min 0,000 mm 0,0 UV-I 0 W/m 4,9 C 6,1 C 0,0 km/h (0 Bft)
07.10.2022 04:18 6,1 C 3,3 C 8,9 C 9,4 C 10,0 C 92 % 12 lf 28 cb 186 cb 112 cb 43 cb 1028,1 hPa 0,0 l/m 0,0 km/h (0 Bft) W 269 0 min 0,000 mm 0,0 UV-I 0 W/m 4,9 C 6,1 C 0,0 km/h (0 Bft)
07.10.2022 04:17 6,1 C 3,3 C 8,9 C 9,4 C 10,0 C 92 % 12 lf 28 cb 186 cb 112 cb 43 cb 1028,1 hPa 0,0 l/m 0,0 km/h (0 Bft) W 269 0 min 0,000 mm 0,0 UV-I 0 W/m 4,9 C 6,1 C 0,0 km/h (0 Bft)
07.10.2022 04:16 6,1 C 3,3 C 8,9 C 9,4 C 10,0 C 92 % 12 lf 28 cb 186 cb 112 cb 43 cb 1028,1 hPa 0,0 l/m 0,0 km/h (0 Bft) W 269 0 min 0,000 mm 0,0 UV-I 0 W/m 4,9 C 6,1 C 0,0 km/h (0 Bft)
07.10.2022 04:15 6,1 C 3,3 C 8,9 C 9,4 C 10,0 C 92 % 12 lf 28 cb 186 cb 112 cb 43 cb 1028,1 hPa 0,0 l/m 0,0 km/h (0 Bft) W 269 0 min 0,000 mm 0,0 UV-I 0 W/m 4,9 C 6,1 C 0,0 km/h (0 Bft)
07.10.2022 04:14 6,1 C 3,3 C 8,9 C 9,4 C 10,0 C 92 % 12 lf 28 cb 186 cb 112 cb 43 cb 1028,1 hPa 0,0 l/m 0,0 km/h (0 Bft) W 269 0 min 0,000 mm 0,0 UV-I 0 W/m 4,9 C 6,1 C 0,0 km/h (0 Bft)
07.10.2022 04:12 6,2 C 3,3 C 8,9 C 9,4 C 10,0 C 92 % 12 lf 28 cb 186 cb 112 cb 43 cb 1028,1 hPa 0,0 l/m 0,0 km/h (0 Bft) W 269 0 min 0,000 mm 0,0 UV-I 0 W/m 5,0 C 6,2 C 0,0 km/h (0 Bft)
07.10.2022 04:11 6,2 C 3,3 C 8,9 C 9,4 C 10,0 C 92 % 12 lf 28 cb 186 cb 112 cb 43 cb 1028,1 hPa 0,0 l/m 0,0 km/h (0 Bft) W 269 0 min 0,000 mm 0,0 UV-I 0 W/m 5,0 C 6,2 C 0,0 km/h (0 Bft)
07.10.2022 04:10 6,2 C 3,3 C 8,9 C 9,4 C 10,0 C 92 % 12 lf 28 cb 185 cb 112 cb 43 cb 1028,1 hPa 0,0 l/m 0,0 km/h (0 Bft) W 269 0 min 0,000 mm 0,0 UV-I 0 W/m 5,0 C 6,2 C 0,0 km/h (0 Bft)
07.10.2022 04:09 6,2 C 3,3 C 8,9 C 9,4 C 10,0 C 92 % 12 lf 28 cb 185 cb 112 cb 43 cb 1028,2 hPa 0,0 l/m 0,0 km/h (0 Bft) W 269 0 min 0,000 mm 0,0 UV-I 0 W/m 5,0 C 6,2 C 0,0 km/h (0 Bft)
07.10.2022 04:08 6,2 C 3,3 C 8,9 C 9,4 C 10,0 C 92 % 12 lf 28 cb 186 cb 112 cb 43 cb 1028,2 hPa 0,0 l/m 0,0 km/h (0 Bft) W 269 0 min 0,000 mm 0,0 UV-I 0 W/m 5,0 C 6,2 C 0,0 km/h (0 Bft)
07.10.2022 04:07 6,2 C 3,3 C 8,9 C 9,4 C 10,0 C 92 % 12 lf 28 cb 186 cb 112 cb 43 cb 1028,2 hPa 0,0 l/m 0,0 km/h (0 Bft) W 269 0 min 0,000 mm 0,0 UV-I 0 W/m 5,0 C 6,2 C 0,0 km/h (0 Bft)
07.10.2022 04:06 6,2 C 3,3 C 8,9 C 9,4 C 10,0 C 92 % 12 lf 28 cb 185 cb 112 cb 43 cb 1028,2 hPa 0,0 l/m 0,0 km/h (0 Bft) W 269 0 min 0,000 mm 0,0 UV-I 0 W/m 5,0 C 6,2 C 0,0 km/h (0 Bft)
07.10.2022 04:05 6,3 C 3,3 C 8,9 C 9,4 C 10,0 C 92 % 12 lf 28 cb 185 cb 112 cb 43 cb 1028,2 hPa 0,0 l/m 0,0 km/h (0 Bft) W 269 0 min 0,000 mm 0,0 UV-I 0 W/m 5,1 C 6,3 C 0,0 km/h (0 Bft)
07.10.2022 04:04 6,3 C 3,3 C 8,9 C 9,4 C 10,0 C 92 % 12 lf 28 cb 185 cb 112 cb 43 cb 1028,2 hPa 0,0 l/m 0,0 km/h (0 Bft) W 269 0 min 0,000 mm 0,0 UV-I 0 W/m 5,1 C 6,3 C 0,0 km/h (0 Bft)
07.10.2022 04:03 6,3 C 3,3 C 8,9 C 9,4 C 10,0 C 92 % 12 lf 28 cb 185 cb 112 cb 43 cb 1028,2 hPa 0,0 l/m 0,0 km/h (0 Bft) W 269 0 min 0,000 mm 0,0 UV-I 0 W/m 5,1 C 6,3 C 0,0 km/h (0 Bft)
07.10.2022 04:02 6,3 C 3,3 C 8,9 C 9,4 C 10,0 C 92 % 11 lf 28 cb 185 cb 112 cb 43 cb 1028,2 hPa 0,0 l/m 0,0 km/h (0 Bft) W 269 0 min 0,000 mm 0,0 UV-I 0 W/m 5,1 C 6,3 C 0,0 km/h (0 Bft)
07.10.2022 04:01 6,3 C 3,3 C 8,9 C 9,4 C 10,0 C 92 % 11 lf 28 cb 185 cb 112 cb 43 cb 1028,2 hPa 0,0 l/m 0,0 km/h (0 Bft) W 269 0 min 0,000 mm 0,0 UV-I 0 W/m 5,1 C 6,3 C 0,0 km/h (0 Bft)
07.10.2022 04:00 6,3 C 3,3 C 8,9 C 9,4 C 10,0 C 93 % 11 lf 28 cb 185 cb 112 cb 43 cb 1028,2 hPa 0,0 l/m 0,0 km/h (0 Bft) W 269 0 min 0,000 mm 0,0 UV-I 0 W/m 5,3 C 6,3 C 0,0 km/h (0 Bft)
07.10.2022 03:59 6,3 C 3,3 C 8,9 C 9,4 C 10,0 C 93 % 11 lf 28 cb 185 cb 112 cb 43 cb 1028,3 hPa 0,0 l/m 0,0 km/h (0 Bft) W 269 0 min 0,000 mm 0,0 UV-I 0 W/m 5,3 C 6,3 C 0,0 km/h (0 Bft)
07.10.2022 03:58 6,3 C 3,3 C 8,9 C 9,4 C 10,0 C 93 % 11 lf 28 cb 185 cb 112 cb 43 cb 1028,3 hPa 0,0 l/m 0,0 km/h (0 Bft) W 269 0 min 0,000 mm 0,0 UV-I 0 W/m 5,3 C 6,3 C 0,0 km/h (0 Bft)
07.10.2022 03:57 6,3 C 3,3 C 8,9 C 9,4 C 10,0 C 93 % 11 lf 28 cb 185 cb 112 cb 43 cb 1028,3 hPa 0,0 l/m 0,0 km/h (0 Bft) W 269 0 min 0,000 mm 0,0 UV-I 0 W/m 5,3 C 6,3 C 0,0 km/h (0 Bft)
07.10.2022 03:56 6,3 C 3,3 C 8,9 C 9,4 C 10,0 C 93 % 11 lf 28 cb 185 cb 112 cb 43 cb 1028,3 hPa 0,0 l/m 0,0 km/h (0 Bft) W 269 0 min 0,000 mm 0,0 UV-I 0 W/m 5,3 C 6,3 C 0,0 km/h (0 Bft)
07.10.2022 03:55 6,3 C 3,3 C 8,9 C 9,4 C 10,0 C 93 % 11 lf 28 cb 185 cb 112 cb 43 cb 1028,4 hPa 0,0 l/m 0,0 km/h (0 Bft) W 269 0 min 0,000 mm 0,0 UV-I 0 W/m 5,3 C 6,3 C 0,0 km/h (0 Bft)
07.10.2022 03:54 6,3 C 3,3 C 8,9 C 9,4 C 10,0 C 93 % 11 lf 28 cb 185 cb 112 cb 43 cb 1028,3 hPa 0,0 l/m 0,0 km/h (0 Bft) W 269 0 min 0,000 mm 0,0 UV-I 0 W/m 5,3 C 6,3 C 0,0 km/h (0 Bft)
07.10.2022 03:53 6,3 C 3,3 C 8,9 C 9,4 C 10,0 C 92 % 11 lf 28 cb 185 cb 112 cb 43 cb 1028,4 hPa 0,0 l/m 0,0 km/h (0 Bft) W 269 0 min 0,000 mm 0,0 UV-I 0 W/m 5,1 C 6,3 C 0,0 km/h (0 Bft)
07.10.2022 03:52 6,3 C 3,3 C 8,9 C 9,4 C 10,0 C 92 % 11 lf 28 cb 185 cb 112 cb 43 cb 1028,4 hPa 0,0 l/m 0,0 km/h (0 Bft) W 269 0 min 0,000 mm 0,0 UV-I 0 W/m 5,1 C 6,3 C 0,0 km/h (0 Bft)
07.10.2022 03:51 6,3 C 3,3 C 8,9 C 9,4 C 10,0 C 92 % 11 lf 28 cb 185 cb 112 cb 43 cb 1028,4 hPa 0,0 l/m 0,0 km/h (0 Bft) W 269 0 min 0,000 mm 0,0 UV-I 0 W/m 5,1 C 6,3 C 0,0 km/h (0 Bft)
07.10.2022 03:50 6,3 C 3,3 C 8,9 C 9,4 C 10,0 C 92 % 11 lf 28 cb 185 cb 112 cb 43 cb 1028,4 hPa 0,0 l/m 0,0 km/h (0 Bft) W 269 0 min 0,000 mm 0,0 UV-I 0 W/m 5,1 C 6,3 C 0,0 km/h (0 Bft)
07.10.2022 03:49 6,3 C 3,3 C 8,9 C 9,4 C 10,0 C 92 % 10 lf 28 cb 185 cb 112 cb 43 cb 1028,4 hPa 0,0 l/m 0,0 km/h (0 Bft) W 269 0 min 0,000 mm 0,0 UV-I 0 W/m 5,1 C 6,3 C 0,0 km/h (0 Bft)
07.10.2022 03:48 6,3 C 3,3 C 8,9 C 9,4 C 10,0 C 92 % 10 lf 28 cb 185 cb 112 cb 43 cb 1028,5 hPa 0,0 l/m 0,0 km/h (0 Bft) W 269 0 min 0,000 mm 0,0 UV-I 0 W/m 5,1 C 6,3 C 0,0 km/h (0 Bft)
07.10.2022 03:47 6,3 C 3,3 C 8,9 C 9,4 C 10,0 C 92 % 10 lf 28 cb 185 cb 112 cb 43 cb 1028,5 hPa 0,0 l/m 0,0 km/h (0 Bft) W 269 0 min 0,000 mm 0,0 UV-I 0 W/m 5,1 C 6,3 C 0,0 km/h (0 Bft)
07.10.2022 03:46 6,3 C 3,3 C 8,9 C 9,4 C 10,0 C 92 % 10 lf 28 cb 185 cb 112 cb 43 cb 1028,5 hPa 0,0 l/m 0,0 km/h (0 Bft) W 269 0 min 0,000 mm 0,0 UV-I 0 W/m 5,1 C 6,3 C 0,0 km/h (0 Bft)
07.10.2022 03:45 6,3 C 3,3 C 8,9 C 9,4 C 10,0 C 92 % 10 lf 28 cb 185 cb 112 cb 43 cb 1028,5 hPa 0,0 l/m 0,0 km/h (0 Bft) W 269 0 min 0,000 mm 0,0 UV-I 0 W/m 5,1 C 6,3 C 0,0 km/h (0 Bft)
07.10.2022 03:44 6,3 C 3,3 C 8,9 C 9,4 C 10,0 C 92 % 10 lf 28 cb 185 cb 112 cb 43 cb 1028,6 hPa 0,0 l/m 0,0 km/h (0 Bft) W 269 0 min 0,000 mm 0,0 UV-I 0 W/m 5,1 C 6,3 C 0,0 km/h (0 Bft)
07.10.2022 03:43 6,3 C 3,3 C 8,9 C 9,4 C 10,0 C 92 % 10 lf 28 cb 185 cb 112 cb 43 cb 1028,5 hPa 0,0 l/m 0,0 km/h (0 Bft) W 269 0 min 0,000 mm 0,0 UV-I 0 W/m 5,1 C 6,3 C 0,0 km/h (0 Bft)
07.10.2022 03:42 6,3 C 3,3 C 8,9 C 9,4 C 10,0 C 92 % 10 lf 28 cb 185 cb 112 cb 43 cb 1028,6 hPa 0,0 l/m 0,0 km/h (0 Bft) W 269 0 min 0,000 mm 0,0 UV-I 0 W/m 5,1 C 6,3 C 0,0 km/h (0 Bft)
07.10.2022 03:41 6,3 C 3,3 C 8,9 C 9,4 C 10,0 C 92 % 10 lf 28 cb 185 cb 112 cb 43 cb 1028,6 hPa 0,0 l/m 0,0 km/h (0 Bft) W 269 0 min 0,000 mm 0,0 UV-I 0 W/m 5,1 C 6,3 C 0,0 km/h (0 Bft)
07.10.2022 03:40 6,3 C 3,3 C 8,9 C 9,4 C 10,0 C 92 % 10 lf 28 cb 185 cb 112 cb 43 cb 1028,6 hPa 0,0 l/m 0,0 km/h (0 Bft) W 269 0 min 0,000 mm 0,0 UV-I 0 W/m 5,1 C 6,3 C 0,0 km/h (0 Bft)
07.10.2022 03:39 6,3 C 2,8 C 8,9 C 9,4 C 10,0 C 92 % 9 lf 27 cb 185 cb 112 cb 43 cb 1028,6 hPa 0,0 l/m 0,0 km/h (0 Bft) W 269 0 min 0,000 mm 0,0 UV-I 0 W/m 5,1 C 6,3 C 0,0 km/h (0 Bft)
07.10.2022 03:38 6,3 C 2,8 C 8,9 C 9,4 C 10,0 C 92 % 9 lf 27 cb 185 cb 112 cb 43 cb 1028,6 hPa 0,0 l/m 0,0 km/h (0 Bft) W 269 0 min 0,000 mm 0,0 UV-I 0 W/m 5,1 C 6,3 C 0,0 km/h (0 Bft)
07.10.2022 03:37 6,3 C 2,8 C 8,9 C 9,4 C 10,0 C 92 % 9 lf 27 cb 185 cb 112 cb 43 cb 1028,6 hPa 0,0 l/m 0,0 km/h (0 Bft) W 269 0 min 0,000 mm 0,0 UV-I 0 W/m 5,1 C 6,3 C 0,0 km/h (0 Bft)
07.10.2022 03:36 6,3 C 2,8 C 8,9 C 9,4 C 10,0 C 92 % 9 lf 27 cb 185 cb 112 cb 43 cb 1028,6 hPa 0,0 l/m 0,0 km/h (0 Bft) W 269 0 min 0,000 mm 0,0 UV-I 0 W/m 5,1 C 6,3 C 0,0 km/h (0 Bft)
07.10.2022 03:35 6,3 C 2,8 C 8,9 C 9,4 C 10,0 C 92 % 9 lf 27 cb 185 cb 112 cb 43 cb 1028,6 hPa 0,0 l/m 0,0 km/h (0 Bft) W 269 0 min 0,000 mm 0,0 UV-I 0 W/m 5,1 C 6,3 C 0,0 km/h (0 Bft)
07.10.2022 03:34 6,3 C 2,8 C 8,9 C 9,4 C 10,0 C 92 % 9 lf 27 cb 185 cb 112 cb 43 cb 1028,6 hPa 0,0 l/m 0,0 km/h (0 Bft) W 269 0 min 0,000 mm 0,0 UV-I 0 W/m 5,1 C 6,3 C 0,0 km/h (0 Bft)
07.10.2022 03:33 6,3 C 2,8 C 8,9 C 9,4 C 10,0 C 92 % 9 lf 27 cb 185 cb 112 cb 43 cb 1028,6 hPa 0,0 l/m 0,0 km/h (0 Bft) W 269 0 min 0,000 mm 0,0 UV-I 0 W/m 5,1 C 6,3 C 0,0 km/h (0 Bft)
07.10.2022 03:32 6,3 C 2,8 C 8,9 C 9,4 C 10,0 C 92 % 8 lf 27 cb 185 cb 112 cb 43 cb 1028,7 hPa 0,0 l/m 0,0 km/h (0 Bft) W 269 0 min 0,000 mm 0,0 UV-I 0 W/m 5,1 C 6,3 C 0,0 km/h (0 Bft)
07.10.2022 03:31 6,3 C 3,3 C 8,9 C 9,4 C 10,0 C 92 % 8 lf 28 cb 185 cb 112 cb 43 cb 1028,7 hPa 0,0 l/m 0,0 km/h (0 Bft) W 269 0 min 0,000 mm 0,0 UV-I 0 W/m 5,1 C 6,3 C 0,0 km/h (0 Bft)
07.10.2022 03:30 6,3 C 3,3 C 8,9 C 9,4 C 10,0 C 92 % 8 lf 28 cb 185 cb 112 cb 43 cb 1028,7 hPa 0,0 l/m 0,0 km/h (0 Bft) W 269 0 min 0,000 mm 0,0 UV-I 0 W/m 5,1 C 6,3 C 0,0 km/h (0 Bft)
07.10.2022 03:29 6,3 C 3,3 C 8,9 C 9,4 C 10,0 C 92 % 8 lf 28 cb 185 cb 112 cb 43 cb 1028,7 hPa 0,0 l/m 0,0 km/h (0 Bft) W 269 0 min 0,000 mm 0,0 UV-I 0 W/m 5,1 C 6,3 C 0,0 km/h (0 Bft)
07.10.2022 03:28 6,3 C 3,3 C 8,9 C 9,4 C 10,0 C 92 % 7 lf 28 cb 185 cb 112 cb 43 cb 1028,7 hPa 0,0 l/m 0,0 km/h (0 Bft) W 269 0 min 0,000 mm 0,0 UV-I 0 W/m 5,1 C 6,3 C 0,0 km/h (0 Bft)
07.10.2022 03:27 6,3 C 3,3 C 8,9 C 9,4 C 10,0 C 92 % 7 lf 28 cb 185 cb 112 cb 43 cb 1028,8 hPa 0,0 l/m 0,0 km/h (0 Bft) W 269 0 min 0,000 mm 0,0 UV-I 0 W/m 5,1 C 6,3 C 0,0 km/h (0 Bft)
07.10.2022 03:26 6,3 C 3,3 C 8,9 C 9,4 C 10,0 C 92 % 7 lf 28 cb 185 cb 112 cb 43 cb 1028,8 hPa 0,0 l/m 0,0 km/h (0 Bft) W 269 0 min 0,000 mm 0,0 UV-I 0 W/m 5,1 C 6,3 C 0,0 km/h (0 Bft)
07.10.2022 03:25 6,3 C 3,3 C 8,9 C 9,4 C 10,0 C 92 % 7 lf 28 cb 185 cb 112 cb 43 cb 1028,8 hPa 0,0 l/m 0,0 km/h (0 Bft) W 269 0 min 0,000 mm 0,0 UV-I 0 W/m 5,1 C 6,3 C 0,0 km/h (0 Bft)
07.10.2022 03:24 6,3 C 3,3 C 8,9 C 9,4 C 10,0 C 92 % 7 lf 28 cb 185 cb 112 cb 43 cb 1028,8 hPa 0,0 l/m 0,0 km/h (0 Bft) W 269 0 min 0,000 mm 0,0 UV-I 0 W/m 5,1 C 6,3 C 0,0 km/h (0 Bft)
07.10.2022 03:23 6,3 C 3,3 C 8,9 C 9,4 C 10,0 C 92 % 7 lf 28 cb 185 cb 112 cb 43 cb 1028,8 hPa 0,0 l/m 0,0 km/h (0 Bft) W 269 0 min 0,000 mm 0,0 UV-I 0 W/m 5,1 C 6,3 C 0,0 km/h (0 Bft)
07.10.2022 03:22 6,3 C 3,3 C 8,9 C 9,4 C 10,0 C 92 % 6 lf 28 cb 185 cb 112 cb 43 cb 1028,8 hPa 0,0 l/m 0,0 km/h (0 Bft) W 269 0 min 0,000 mm 0,0 UV-I 0 W/m 5,1 C 6,3 C 0,0 km/h (0 Bft)
07.10.2022 03:21 6,3 C 3,3 C 8,9 C 9,4 C 10,0 C 92 % 6 lf 28 cb 185 cb 112 cb 43 cb 1028,9 hPa 0,0 l/m 0,0 km/h (0 Bft) W 269 0 min 0,000 mm 0,0 UV-I 0 W/m 5,1 C 6,3 C 0,0 km/h (0 Bft)
07.10.2022 03:20 6,3 C 3,3 C 8,9 C 9,4 C 10,0 C 92 % 6 lf 28 cb 185 cb 112 cb 43 cb 1028,8 hPa 0,0 l/m 0,0 km/h (0 Bft) W 269 0 min 0,000 mm 0,0 UV-I 0 W/m 5,1 C 6,3 C 0,0 km/h (0 Bft)
07.10.2022 03:19 6,3 C 3,3 C 8,9 C 9,4 C 10,0 C 92 % 6 lf 28 cb 185 cb 112 cb 43 cb 1028,9 hPa 0,0 l/m 0,0 km/h (0 Bft) W 269 0 min 0,000 mm 0,0 UV-I 0 W/m 5,1 C 6,3 C 0,0 km/h (0 Bft)
07.10.2022 03:18 6,3 C 3,3 C 8,9 C 9,4 C 10,0 C 92 % 5 lf 28 cb 185 cb 112 cb 43 cb 1028,9 hPa 0,0 l/m 0,0 km/h (0 Bft) W 269 0 min 0,000 mm 0,0 UV-I 0 W/m 5,1 C 6,3 C 0,0 km/h (0 Bft)
07.10.2022 03:17 6,3 C 3,3 C 8,9 C 9,4 C 10,0 C 92 % 5 lf 28 cb 185 cb 112 cb 43 cb 1028,9 hPa 0,0 l/m 0,0 km/h (0 Bft) W 269 0 min 0,000 mm 0,0 UV-I 0 W/m 5,1 C 6,3 C 0,0 km/h (0 Bft)
07.10.2022 03:16 6,3 C 3,3 C 8,9 C 9,4 C 10,0 C 92 % 5 lf 28 cb 185 cb 112 cb 43 cb 1028,9 hPa 0,0 l/m 0,0 km/h (0 Bft) W 269 0 min 0,000 mm 0,0 UV-I 0 W/m 5,1 C 6,3 C 0,0 km/h (0 Bft)
07.10.2022 03:15 6,3 C 3,3 C 8,9 C 9,4 C 10,0 C 92 % 5 lf 28 cb 185 cb 112 cb 43 cb 1028,9 hPa 0,0 l/m 0,0 km/h (0 Bft) W 269 0 min 0,000 mm 0,0 UV-I 0 W/m 5,1 C 6,3 C 0,0 km/h (0 Bft)
07.10.2022 03:14 6,4 C 3,3 C 8,9 C 10,0 C 10,0 C 92 % 4 lf 28 cb 185 cb 113 cb 43 cb 1029,0 hPa 0,0 l/m 0,0 km/h (0 Bft) W 269 0 min 0,000 mm 0,0 UV-I 0 W/m 5,2 C 6,4 C 0,0 km/h (0 Bft)
07.10.2022 03:13 6,4 C 3,3 C 8,9 C 10,0 C 10,0 C 92 % 4 lf 28 cb 185 cb 113 cb 43 cb 1028,9 hPa 0,0 l/m 0,0 km/h (0 Bft) W 269 0 min 0,000 mm 0,0 UV-I 0 W/m 5,2 C 6,4 C 0,0 km/h (0 Bft)
07.10.2022 03:12 6,4 C 3,3 C 8,9 C 10,0 C 10,0 C 92 % 4 lf 27 cb 185 cb 113 cb 43 cb 1029,0 hPa 0,0 l/m 0,0 km/h (0 Bft) W 269 0 min 0,000 mm 0,0 UV-I 0 W/m 5,2 C 6,4 C 0,0 km/h (0 Bft)
07.10.2022 03:11 6,4 C 3,3 C 8,9 C 10,0 C 10,0 C 92 % 4 lf 27 cb 185 cb 113 cb 43 cb 1029,0 hPa 0,0 l/m 0,0 km/h (0 Bft) W 269 0 min 0,000 mm 0,0 UV-I 0 W/m 5,2 C 6,4 C 0,0 km/h (0 Bft)
07.10.2022 03:09 6,4 C 3,3 C 8,9 C 10,0 C 10,0 C 92 % 4 lf 27 cb 185 cb 113 cb 43 cb 1029,0 hPa 0,0 l/m 0,0 km/h (0 Bft) W 269 0 min 0,000 mm 0,0 UV-I 0 W/m 5,2 C 6,4 C 0,0 km/h (0 Bft)
07.10.2022 03:08 6,4 C 3,3 C 8,9 C 10,0 C 10,0 C 92 % 4 lf 27 cb 185 cb 113 cb 43 cb 1029,0 hPa 0,0 l/m 0,0 km/h (0 Bft) W 269 0 min 0,000 mm 0,0 UV-I 0 W/m 5,2 C 6,4 C 0,0 km/h (0 Bft)
07.10.2022 03:07 6,4 C 3,3 C 8,9 C 10,0 C 10,0 C 92 % 4 lf 27 cb 185 cb 113 cb 43 cb 1028,9 hPa 0,0 l/m 0,0 km/h (0 Bft) W 269 0 min 0,000 mm 0,0 UV-I 0 W/m 5,2 C 6,4 C 0,0 km/h (0 Bft)
07.10.2022 03:06 6,4 C 3,3 C 8,9 C 10,0 C 10,0 C 92 % 4 lf 27 cb 185 cb 113 cb 43 cb 1029,0 hPa 0,0 l/m 0,0 km/h (0 Bft) W 269 0 min 0,000 mm 0,0 UV-I 0 W/m 5,2 C 6,4 C 0,0 km/h (0 Bft)
07.10.2022 03:05 6,4 C 3,3 C 8,9 C 10,0 C 10,0 C 92 % 4 lf 27 cb 185 cb 113 cb 43 cb 1029,0 hPa 0,0 l/m 0,0 km/h (0 Bft) W 269 0 min 0,000 mm 0,0 UV-I 0 W/m 5,2 C 6,4 C 0,0 km/h (0 Bft)
07.10.2022 03:04 6,4 C 3,3 C 8,9 C 10,0 C 10,0 C 92 % 4 lf 27 cb 185 cb 113 cb 43 cb 1029,0 hPa 0,0 l/m 0,0 km/h (0 Bft) W 269 0 min 0,000 mm 0,0 UV-I 0 W/m 5,2 C 6,4 C 0,0 km/h (0 Bft)
07.10.2022 03:03 6,4 C 3,3 C 8,9 C 10,0 C 10,0 C 92 % 4 lf 27 cb 185 cb 113 cb 43 cb 1029,0 hPa 0,0 l/m 0,0 km/h (0 Bft) W 269 0 min 0,000 mm 0,0 UV-I 0 W/m 5,2 C 6,4 C 0,0 km/h (0 Bft)
07.10.2022 03:02 6,4 C 3,3 C 8,9 C 10,0 C 10,0 C 92 % 3 lf 27 cb 185 cb 113 cb 43 cb 1029,0 hPa 0,0 l/m 0,0 km/h (0 Bft) W 269 0 min 0,000 mm 0,0 UV-I 0 W/m 5,2 C 6,4 C 0,0 km/h (0 Bft)
07.10.2022 03:01 6,4 C 3,3 C 8,9 C 10,0 C 10,0 C 92 % 3 lf 27 cb 185 cb 113 cb 43 cb 1029,0 hPa 0,0 l/m 0,0 km/h (0 Bft) W 269 0 min 0,000 mm 0,0 UV-I 0 W/m 5,2 C 6,4 C 0,0 km/h (0 Bft)
07.10.2022 03:00 6,4 C 3,3 C 8,9 C 10,0 C 10,0 C 92 % 3 lf 27 cb 185 cb 113 cb 42 cb 1029,0 hPa 0,0 l/m 0,0 km/h (0 Bft) W 269 0 min 0,000 mm 0,0 UV-I 0 W/m 5,2 C 6,4 C 0,0 km/h (0 Bft)
07.10.2022 02:59 6,5 C 3,3 C 8,9 C 10,0 C 10,0 C 91 % 3 lf 27 cb 185 cb 113 cb 43 cb 1029,0 hPa 0,0 l/m 0,0 km/h (0 Bft) W 269 0 min 0,000 mm 0,0 UV-I 0 W/m 5,1 C 6,5 C 0,0 km/h (0 Bft)
07.10.2022 02:58 6,5 C 3,3 C 8,9 C 10,0 C 10,0 C 92 % 3 lf 27 cb 185 cb 113 cb 42 cb 1029,0 hPa 0,0 l/m 0,0 km/h (0 Bft) W 269 0 min 0,000 mm 0,0 UV-I 0 W/m 5,3 C 6,5 C 0,0 km/h (0 Bft)
07.10.2022 02:57 6,5 C 3,3 C 8,9 C 10,0 C 10,0 C 92 % 3 lf 27 cb 185 cb 113 cb 42 cb 1029,0 hPa 0,0 l/m 0,0 km/h (0 Bft) W 269 0 min 0,000 mm 0,0 UV-I 0 W/m 5,3 C 6,5 C 0,0 km/h (0 Bft)
07.10.2022 02:56 6,5 C 3,3 C 8,9 C 10,0 C 10,0 C 92 % 3 lf 27 cb 185 cb 113 cb 42 cb 1029,0 hPa 0,0 l/m 0,0 km/h (0 Bft) W 269 0 min 0,000 mm 0,0 UV-I 0 W/m 5,3 C 6,5 C 0,0 km/h (0 Bft)
07.10.2022 02:55 6,5 C 3,3 C 8,9 C 10,0 C 10,0 C 92 % 3 lf 27 cb 185 cb 113 cb 42 cb 1029,1 hPa 0,0 l/m 0,0 km/h (0 Bft) W 269 0 min 0,000 mm 0,0 UV-I 0 W/m 5,3 C 6,5 C 0,0 km/h (0 Bft)
07.10.2022 02:54 6,6 C 3,3 C 8,9 C 10,0 C 10,0 C 92 % 3 lf 27 cb 185 cb 113 cb 42 cb 1029,1 hPa 0,0 l/m 0,0 km/h (0 Bft) W 269 0 min 0,000 mm 0,0 UV-I 0 W/m 5,4 C 6,6 C 0,0 km/h (0 Bft)
07.10.2022 02:53 6,6 C 3,3 C 8,9 C 10,0 C 10,0 C 92 % 3 lf 27 cb 185 cb 113 cb 42 cb 1029,1 hPa 0,0 l/m 0,0 km/h (0 Bft) W 269 0 min 0,000 mm 0,0 UV-I 0 W/m 5,4 C 6,6 C 0,0 km/h (0 Bft)
07.10.2022 02:52 6,6 C 3,3 C 8,9 C 10,0 C 10,0 C 92 % 3 lf 27 cb 185 cb 113 cb 42 cb 1029,1 hPa 0,0 l/m 0,0 km/h (0 Bft) W 269 0 min 0,000 mm 0,0 UV-I 0 W/m 5,4 C 6,6 C 0,0 km/h (0 Bft)
07.10.2022 02:51 6,6 C 3,3 C 8,9 C 10,0 C 10,0 C 92 % 3 lf 27 cb 185 cb 113 cb 42 cb 1029,1 hPa 0,0 l/m 0,0 km/h (0 Bft) W 269 0 min 0,000 mm 0,0 UV-I 0 W/m 5,4 C 6,6 C 0,0 km/h (0 Bft)
07.10.2022 02:50 6,6 C 3,3 C 8,9 C 10,0 C 10,6 C 92 % 3 lf 27 cb 183 cb 113 cb 43 cb 1029,1 hPa 0,0 l/m 0,0 km/h (0 Bft) W 269 0 min 0,000 mm 0,0 UV-I 0 W/m 5,4 C 6,6 C 0,0 km/h (0 Bft)
07.10.2022 02:49 6,6 C 3,3 C 8,9 C 10,0 C 10,6 C 91 % 3 lf 27 cb 185 cb 113 cb 43 cb 1029,1 hPa 0,0 l/m 0,0 km/h (0 Bft) W 269 0 min 0,000 mm 0,0 UV-I 0 W/m 5,2 C 6,6 C 0,0 km/h (0 Bft)
07.10.2022 02:48 6,6 C 3,3 C 8,9 C 10,0 C 10,6 C 91 % 3 lf 27 cb 185 cb 113 cb 43 cb 1029,1 hPa 0,0 l/m 0,0 km/h (0 Bft) W 269 0 min 0,000 mm 0,0 UV-I 0 W/m 5,2 C 6,6 C 0,0 km/h (0 Bft)
07.10.2022 02:47 6,6 C 3,3 C 8,9 C 10,0 C 10,6 C 91 % 3 lf 27 cb 185 cb 113 cb 43 cb 1029,1 hPa 0,0 l/m 0,0 km/h (0 Bft) W 269 0 min 0,000 mm 0,0 UV-I 0 W/m 5,2 C 6,6 C 0,0 km/h (0 Bft)
07.10.2022 02:46 6,6 C 3,3 C 8,9 C 10,0 C 10,6 C 91 % 3 lf 27 cb 185 cb 113 cb 43 cb 1029,1 hPa 0,0 l/m 0,0 km/h (0 Bft) W 269 0 min 0,000 mm 0,0 UV-I 0 W/m 5,2 C 6,6 C 0,0 km/h (0 Bft)
07.10.2022 02:45 6,6 C 3,3 C 8,9 C 10,0 C 10,6 C 91 % 3 lf 27 cb 185 cb 113 cb 43 cb 1029,1 hPa 0,0 l/m 0,0 km/h (0 Bft) W 269 0 min 0,000 mm 0,0 UV-I 0 W/m 5,2 C 6,6 C 0,0 km/h (0 Bft)
07.10.2022 02:44 6,6 C 3,3 C 8,9 C 10,0 C 10,6 C 91 % 3 lf 27 cb 185 cb 113 cb 43 cb 1029,1 hPa 0,0 l/m 0,0 km/h (0 Bft) W 269 0 min 0,000 mm 0,0 UV-I 0 W/m 5,2 C 6,6 C 0,0 km/h (0 Bft)
07.10.2022 02:43 6,6 C 3,3 C 8,9 C 10,0 C 10,6 C 91 % 2 lf 27 cb 183 cb 113 cb 43 cb 1029,2 hPa 0,0 l/m 0,0 km/h (0 Bft) W 269 0 min 0,000 mm 0,0 UV-I 0 W/m 5,2 C 6,6 C 0,0 km/h (0 Bft)
07.10.2022 02:42 6,6 C 3,3 C 8,9 C 10,0 C 10,6 C 91 % 2 lf 27 cb 183 cb 113 cb 43 cb 1029,2 hPa 0,0 l/m 0,0 km/h (0 Bft) W 269 0 min 0,000 mm 0,0 UV-I 0 W/m 5,2 C 6,6 C 0,0 km/h (0 Bft)
07.10.2022 02:41 6,7 C 3,3 C 8,9 C 10,0 C 10,6 C 91 % 2 lf 27 cb 183 cb 113 cb 43 cb 1029,2 hPa 0,0 l/m 0,0 km/h (0 Bft) W 269 0 min 0,000 mm 0,0 UV-I 0 W/m 5,3 C 6,7 C 0,0 km/h (0 Bft)
07.10.2022 02:40 6,7 C 3,3 C 8,9 C 10,0 C 10,6 C 91 % 2 lf 27 cb 183 cb 113 cb 43 cb 1029,2 hPa 0,0 l/m 0,0 km/h (0 Bft) W 269 0 min 0,000 mm 0,0 UV-I 0 W/m 5,3 C 6,7 C 0,0 km/h (0 Bft)
07.10.2022 02:39 6,7 C 3,3 C 8,9 C 10,0 C 10,6 C 91 % 2 lf 27 cb 183 cb 113 cb 43 cb 1029,2 hPa 0,0 l/m 0,0 km/h (0 Bft) W 269 0 min 0,000 mm 0,0 UV-I 0 W/m 5,3 C 6,7 C 0,0 km/h (0 Bft)
07.10.2022 02:38 6,7 C 3,3 C 8,9 C 10,0 C 10,6 C 91 % 2 lf 27 cb 183 cb 113 cb 43 cb 1029,2 hPa 0,0 l/m 0,0 km/h (0 Bft) W 269 0 min 0,000 mm 0,0 UV-I 0 W/m 5,3 C 6,7 C 0,0 km/h (0 Bft)
07.10.2022 02:37 6,7 C 3,3 C 8,9 C 10,0 C 10,6 C 91 % 2 lf 27 cb 183 cb 113 cb 43 cb 1029,2 hPa 0,0 l/m 0,0 km/h (0 Bft) W 269 0 min 0,000 mm 0,0 UV-I 0 W/m 5,3 C 6,7 C 0,0 km/h (0 Bft)
07.10.2022 02:36 6,7 C 3,3 C 8,9 C 10,0 C 10,6 C 91 % 2 lf 27 cb 183 cb 113 cb 43 cb 1029,2 hPa 0,0 l/m 0,0 km/h (0 Bft) W 269 0 min 0,000 mm 0,0 UV-I 0 W/m 5,3 C 6,7 C 0,0 km/h (0 Bft)
07.10.2022 02:35 6,7 C 3,3 C 8,9 C 10,0 C 10,6 C 91 % 2 lf 27 cb 183 cb 113 cb 43 cb 1029,3 hPa 0,0 l/m 0,0 km/h (0 Bft) W 269 0 min 0,000 mm 0,0 UV-I 0 W/m 5,3 C 6,7 C 0,0 km/h (0 Bft)
07.10.2022 02:34 6,7 C 3,3 C 8,9 C 10,0 C 10,6 C 91 % 2 lf 27 cb 183 cb 113 cb 43 cb 1029,3 hPa 0,0 l/m 0,0 km/h (0 Bft) W 269 0 min 0,000 mm 0,0 UV-I 0 W/m 5,3 C 6,7 C 0,0 km/h (0 Bft)
07.10.2022 02:33 6,7 C 3,3 C 8,9 C 10,0 C 10,6 C 91 % 2 lf 27 cb 183 cb 113 cb 43 cb 1029,3 hPa 0,0 l/m 0,0 km/h (0 Bft) W 269 0 min 0,000 mm 0,0 UV-I 0 W/m 5,3 C 6,7 C 0,0 km/h (0 Bft)
07.10.2022 02:32 6,8 C 3,3 C 8,9 C 10,0 C 10,6 C 91 % 2 lf 27 cb 183 cb 113 cb 43 cb 1029,3 hPa 0,0 l/m 0,0 km/h (0 Bft) W 269 0 min 0,000 mm 0,0 UV-I 0 W/m 5,4 C 6,8 C 0,0 km/h (0 Bft)
07.10.2022 02:31 6,8 C 3,3 C 8,9 C 10,0 C 10,6 C 91 % 2 lf 27 cb 183 cb 113 cb 43 cb 1029,2 hPa 0,0 l/m 0,0 km/h (0 Bft) W 269 0 min 0,000 mm 0,0 UV-I 0 W/m 5,4 C 6,8 C 0,0 km/h (0 Bft)
07.10.2022 02:30 6,8 C 3,3 C 8,9 C 10,0 C 10,6 C 91 % 2 lf 27 cb 183 cb 113 cb 43 cb 1029,3 hPa 0,0 l/m 0,0 km/h (0 Bft) W 269 0 min 0,000 mm 0,0 UV-I 0 W/m 5,4 C 6,8 C 0,0 km/h (0 Bft)
07.10.2022 02:29 6,8 C 3,3 C 8,9 C 10,0 C 10,6 C 91 % 2 lf 27 cb 183 cb 113 cb 43 cb 1029,3 hPa 0,0 l/m 0,0 km/h (0 Bft) W 269 0 min 0,000 mm 0,0 UV-I 0 W/m 5,4 C 6,8 C 0,0 km/h (0 Bft)
07.10.2022 02:28 6,8 C 3,3 C 8,9 C 10,0 C 10,6 C 92 % 2 lf 27 cb 183 cb 113 cb 43 cb 1029,3 hPa 0,0 l/m 0,0 km/h (0 Bft) W 269 0 min 0,000 mm 0,0 UV-I 0 W/m 5,6 C 6,8 C 0,0 km/h (0 Bft)
07.10.2022 02:27 6,8 C 3,3 C 9,4 C 10,0 C 10,6 C 92 % 2 lf 27 cb 185 cb 113 cb 43 cb 1029,3 hPa 0,0 l/m 0,2 km/h (0 Bft) W 269 0 min 0,000 mm 0,0 UV-I 0 W/m 5,6 C 6,8 C 1,6 km/h (1 Bft)
07.10.2022 02:26 6,8 C 3,3 C 9,4 C 10,0 C 10,6 C 92 % 2 lf 27 cb 185 cb 113 cb 43 cb 1029,3 hPa 0,0 l/m 0,0 km/h (0 Bft) W 269 0 min 0,000 mm 0,0 UV-I 0 W/m 5,6 C 6,8 C 0,0 km/h (0 Bft)
07.10.2022 02:25 6,8 C 3,3 C 9,4 C 10,0 C 10,6 C 92 % 2 lf 27 cb 185 cb 113 cb 43 cb 1029,3 hPa 0,0 l/m 0,0 km/h (0 Bft) W 269 0 min 0,000 mm 0,0 UV-I 0 W/m 5,6 C 6,8 C 0,0 km/h (0 Bft)
07.10.2022 02:24 6,8 C 3,3 C 9,4 C 10,0 C 10,6 C 92 % 2 lf 27 cb 185 cb 113 cb 43 cb 1029,3 hPa 0,0 l/m 0,0 km/h (0 Bft) W 269 0 min 0,000 mm 0,0 UV-I 0 W/m 5,6 C 6,8 C 0,0 km/h (0 Bft)
07.10.2022 02:23 6,8 C 3,3 C 9,4 C 10,0 C 10,6 C 92 % 2 lf 27 cb 185 cb 113 cb 43 cb 1029,3 hPa 0,0 l/m 0,0 km/h (0 Bft) W 269 0 min 0,000 mm 0,0 UV-I 0 W/m 5,6 C 6,8 C 0,0 km/h (0 Bft)
07.10.2022 02:22 6,7 C 3,3 C 9,4 C 10,0 C 10,6 C 92 % 2 lf 27 cb 185 cb 113 cb 43 cb 1029,3 hPa 0,0 l/m 0,0 km/h (0 Bft) W 269 0 min 0,000 mm 0,0 UV-I 0 W/m 5,5 C 6,7 C 0,0 km/h (0 Bft)
07.10.2022 02:21 6,7 C 3,3 C 9,4 C 10,0 C 10,6 C 92 % 2 lf 27 cb 185 cb 113 cb 43 cb 1029,3 hPa 0,0 l/m 0,0 km/h (0 Bft) W 269 0 min 0,000 mm 0,0 UV-I 0 W/m 5,5 C 6,7 C 0,0 km/h (0 Bft)
07.10.2022 02:20 6,7 C 3,3 C 9,4 C 10,0 C 10,6 C 92 % 2 lf 27 cb 185 cb 113 cb 43 cb 1029,3 hPa 0,0 l/m 0,0 km/h (0 Bft) W 269 0 min 0,000 mm 0,0 UV-I 0 W/m 5,5 C 6,7 C 0,0 km/h (0 Bft)
07.10.2022 02:19 6,7 C 3,3 C 9,4 C 10,0 C 10,6 C 92 % 2 lf 27 cb 185 cb 113 cb 43 cb 1029,3 hPa 0,0 l/m 0,0 km/h (0 Bft) W 269 0 min 0,000 mm 0,0 UV-I 0 W/m 5,5 C 6,7 C 0,0 km/h (0 Bft)
07.10.2022 02:18 6,7 C 3,3 C 9,4 C 10,0 C 10,6 C 92 % 2 lf 27 cb 185 cb 113 cb 43 cb 1029,4 hPa 0,0 l/m 0,0 km/h (0 Bft) W 269 0 min 0,000 mm 0,0 UV-I 0 W/m 5,5 C 6,7 C 0,0 km/h (0 Bft)
07.10.2022 02:17 6,7 C 3,3 C 9,4 C 10,0 C 10,6 C 92 % 2 lf 27 cb 185 cb 113 cb 43 cb 1029,4 hPa 0,0 l/m 0,0 km/h (0 Bft) W 269 0 min 0,000 mm 0,0 UV-I 0 W/m 5,5 C 6,7 C 0,0 km/h (0 Bft)
07.10.2022 02:16 6,7 C 3,3 C 9,4 C 10,0 C 10,6 C 92 % 2 lf 27 cb 185 cb 113 cb 43 cb 1029,4 hPa 0,0 l/m 0,0 km/h (0 Bft) W 269 0 min 0,000 mm 0,0 UV-I 0 W/m 5,5 C 6,7 C 0,0 km/h (0 Bft)
07.10.2022 02:15 6,7 C 3,3 C 9,4 C 10,0 C 10,6 C 91 % 2 lf 27 cb 185 cb 113 cb 43 cb 1029,4 hPa 0,0 l/m 0,0 km/h (0 Bft) W 269 0 min 0,000 mm 0,0 UV-I 0 W/m 5,3 C 6,7 C 0,0 km/h (0 Bft)
07.10.2022 02:14 6,7 C 3,3 C 9,4 C 10,0 C 10,6 C 91 % 2 lf 27 cb 185 cb 113 cb 43 cb 1029,4 hPa 0,0 l/m 0,0 km/h (0 Bft) W 269 0 min 0,000 mm 0,0 UV-I 0 W/m 5,3 C 6,7 C 0,0 km/h (0 Bft)
07.10.2022 02:13 6,7 C 3,3 C 9,4 C 10,0 C 10,6 C 91 % 2 lf 27 cb 185 cb 113 cb 43 cb 1029,4 hPa 0,0 l/m 0,0 km/h (0 Bft) W 269 0 min 0,000 mm 0,0 UV-I 0 W/m 5,3 C 6,7 C 0,0 km/h (0 Bft)
07.10.2022 02:12 6,7 C 3,3 C 9,4 C 10,0 C 10,6 C 91 % 2 lf 27 cb 185 cb 113 cb 43 cb 1029,4 hPa 0,0 l/m 0,0 km/h (0 Bft) W 269 0 min 0,000 mm 0,0 UV-I 0 W/m 5,3 C 6,7 C 0,0 km/h (0 Bft)
07.10.2022 02:11 6,7 C 3,3 C 9,4 C 10,0 C 10,6 C 91 % 2 lf 27 cb 185 cb 113 cb 43 cb 1029,4 hPa 0,0 l/m 0,0 km/h (0 Bft) W 269 0 min 0,000 mm 0,0 UV-I 0 W/m 5,3 C 6,7 C 0,0 km/h (0 Bft)
07.10.2022 02:10 6,7 C 3,3 C 9,4 C 10,0 C 10,6 C 91 % 2 lf 27 cb 185 cb 113 cb 43 cb 1029,4 hPa 0,0 l/m 0,0 km/h (0 Bft) W 269 0 min 0,000 mm 0,0 UV-I 0 W/m 5,3 C 6,7 C 0,0 km/h (0 Bft)
07.10.2022 02:09 6,7 C 3,3 C 9,4 C 10,0 C 10,6 C 91 % 2 lf 27 cb 185 cb 113 cb 43 cb 1029,4 hPa 0,0 l/m 0,0 km/h (0 Bft) W 269 0 min 0,000 mm 0,0 UV-I 0 W/m 5,3 C 6,7 C 0,0 km/h (0 Bft)
07.10.2022 02:08 6,7 C 3,3 C 9,4 C 10,0 C 10,6 C 91 % 2 lf 27 cb 185 cb 113 cb 43 cb 1029,4 hPa 0,0 l/m 0,0 km/h (0 Bft) W 269 0 min 0,000 mm 0,0 UV-I 0 W/m 5,3 C 6,7 C 0,0 km/h (0 Bft)
07.10.2022 02:07 6,7 C 3,3 C 9,4 C 10,0 C 10,6 C 91 % 2 lf 27 cb 185 cb 113 cb 43 cb 1029,4 hPa 0,0 l/m 0,0 km/h (0 Bft) W 269 0 min 0,000 mm 0,0 UV-I 0 W/m 5,3 C 6,7 C 0,0 km/h (0 Bft)
07.10.2022 02:06 6,7 C 3,3 C 9,4 C 10,0 C 10,6 C 91 % 2 lf 27 cb 185 cb 113 cb 43 cb 1029,4 hPa 0,0 l/m 0,0 km/h (0 Bft) W 269 0 min 0,000 mm 0,0 UV-I 0 W/m 5,3 C 6,7 C 0,0 km/h (0 Bft)
07.10.2022 02:05 6,7 C 3,3 C 9,4 C 10,0 C 10,6 C 91 % 2 lf 27 cb 185 cb 113 cb 43 cb 1029,4 hPa 0,0 l/m 0,0 km/h (0 Bft) W 269 0 min 0,000 mm 0,0 UV-I 0 W/m 5,3 C 6,7 C 0,0 km/h (0 Bft)
07.10.2022 02:04 6,7 C 3,3 C 9,4 C 10,0 C 10,6 C 91 % 2 lf 27 cb 185 cb 113 cb 43 cb 1029,4 hPa 0,0 l/m 0,0 km/h (0 Bft) W 269 0 min 0,000 mm 0,0 UV-I 0 W/m 5,3 C 6,7 C 0,0 km/h (0 Bft)
07.10.2022 02:03 6,7 C 3,3 C 9,4 C 10,0 C 10,6 C 91 % 2 lf 27 cb 185 cb 113 cb 43 cb 1029,4 hPa 0,0 l/m 0,3 km/h (0 Bft) W 269 0 min 0,000 mm 0,0 UV-I 0 W/m 5,3 C 6,7 C 3,2 km/h (1 Bft)
07.10.2022 02:02 6,7 C 3,3 C 9,4 C 10,0 C 10,6 C 91 % 2 lf 27 cb 185 cb 113 cb 43 cb 1029,4 hPa 0,0 l/m 0,3 km/h (0 Bft) W 269 0 min 0,000 mm 0,0 UV-I 0 W/m 5,3 C 6,7 C 3,2 km/h (1 Bft)
07.10.2022 02:01 6,7 C 3,3 C 9,4 C 10,0 C 10,6 C 91 % 2 lf 27 cb 185 cb 113 cb 43 cb 1029,5 hPa 0,0 l/m 0,0 km/h (0 Bft) W 269 0 min 0,000 mm 0,0 UV-I 0 W/m 5,3 C 6,7 C 0,0 km/h (0 Bft)
07.10.2022 02:00 6,7 C 3,3 C 9,4 C 10,0 C 10,6 C 91 % 2 lf 27 cb 185 cb 113 cb 43 cb 1029,5 hPa 0,0 l/m 0,0 km/h (0 Bft) W 269 0 min 0,000 mm 0,0 UV-I 0 W/m 5,3 C 6,7 C 0,0 km/h (0 Bft)
07.10.2022 01:59 6,7 C 3,3 C 9,4 C 10,0 C 10,6 C 91 % 2 lf 27 cb 185 cb 113 cb 43 cb 1029,5 hPa 0,0 l/m 0,0 km/h (0 Bft) W 269 0 min 0,000 mm 0,0 UV-I 0 W/m 5,3 C 6,7 C 0,0 km/h (0 Bft)
07.10.2022 01:58 6,7 C 3,3 C 9,4 C 10,0 C 10,6 C 91 % 2 lf 27 cb 185 cb 113 cb 43 cb 1029,5 hPa 0,0 l/m 0,0 km/h (0 Bft) W 269 0 min 0,000 mm 0,0 UV-I 0 W/m 5,3 C 6,7 C 0,0 km/h (0 Bft)
07.10.2022 01:57 6,7 C 3,3 C 9,4 C 10,0 C 10,6 C 91 % 2 lf 27 cb 185 cb 113 cb 43 cb 1029,5 hPa 0,0 l/m 0,0 km/h (0 Bft) W 269 0 min 0,000 mm 0,0 UV-I 0 W/m 5,3 C 6,7 C 0,0 km/h (0 Bft)
07.10.2022 01:56 6,7 C 3,3 C 9,4 C 10,0 C 10,6 C 91 % 2 lf 27 cb 185 cb 113 cb 43 cb 1029,5 hPa 0,0 l/m 0,0 km/h (0 Bft) W 269 0 min 0,000 mm 0,0 UV-I 0 W/m 5,3 C 6,7 C 0,0 km/h (0 Bft)
07.10.2022 01:55 6,7 C 3,3 C 9,4 C 10,0 C 10,6 C 91 % 2 lf 27 cb 185 cb 113 cb 43 cb 1029,5 hPa 0,0 l/m 0,0 km/h (0 Bft) W 269 0 min 0,000 mm 0,0 UV-I 0 W/m 5,3 C 6,7 C 0,0 km/h (0 Bft)
07.10.2022 01:54 6,7 C 3,3 C 9,4 C 10,0 C 10,6 C 91 % 2 lf 27 cb 185 cb 113 cb 43 cb 1029,5 hPa 0,0 l/m 0,0 km/h (0 Bft) W 269 0 min 0,000 mm 0,0 UV-I 0 W/m 5,3 C 6,7 C 0,0 km/h (0 Bft)
07.10.2022 01:53 6,7 C 3,3 C 9,4 C 10,0 C 10,6 C 91 % 2 lf 27 cb 185 cb 113 cb 43 cb 1029,6 hPa 0,0 l/m 0,0 km/h (0 Bft) W 269 0 min 0,000 mm 0,0 UV-I 0 W/m 5,3 C 6,7 C 0,0 km/h (0 Bft)
07.10.2022 01:52 6,7 C 3,3 C 9,4 C 10,0 C 10,6 C 91 % 2 lf 27 cb 185 cb 113 cb 43 cb 1029,5 hPa 0,0 l/m 0,0 km/h (0 Bft) W 269 0 min 0,000 mm 0,0 UV-I 0 W/m 5,3 C 6,7 C 0,0 km/h (0 Bft)
07.10.2022 01:50 6,8 C 3,3 C 9,4 C 10,0 C 10,6 C 91 % 2 lf 27 cb 185 cb 113 cb 43 cb 1029,5 hPa 0,0 l/m 0,0 km/h (0 Bft) W 269 0 min 0,000 mm 0,0 UV-I 0 W/m 5,4 C 6,8 C 0,0 km/h (0 Bft)
07.10.2022 01:49 6,8 C 3,3 C 9,4 C 10,0 C 10,6 C 91 % 2 lf 27 cb 185 cb 113 cb 43 cb 1029,6 hPa 0,0 l/m 0,0 km/h (0 Bft) W 269 0 min 0,000 mm 0,0 UV-I 0 W/m 5,4 C 6,8 C 0,0 km/h (0 Bft)
07.10.2022 01:48 6,8 C 3,3 C 9,4 C 10,0 C 10,6 C 91 % 2 lf 27 cb 185 cb 113 cb 43 cb 1029,6 hPa 0,0 l/m 0,0 km/h (0 Bft) W 269 0 min 0,000 mm 0,0 UV-I 0 W/m 5,4 C 6,8 C 0,0 km/h (0 Bft)
07.10.2022 01:47 6,8 C 3,3 C 9,4 C 10,0 C 10,6 C 91 % 2 lf 27 cb 185 cb 113 cb 43 cb 1029,6 hPa 0,0 l/m 0,0 km/h (0 Bft) W 269 0 min 0,000 mm 0,0 UV-I 0 W/m 5,4 C 6,8 C 0,0 km/h (0 Bft)
07.10.2022 01:46 6,8 C 3,3 C 9,4 C 10,0 C 10,6 C 91 % 2 lf 27 cb 185 cb 113 cb 43 cb 1029,6 hPa 0,0 l/m 0,0 km/h (0 Bft) W 269 0 min 0,000 mm 0,0 UV-I 0 W/m 5,4 C 6,8 C 0,0 km/h (0 Bft)
07.10.2022 01:45 6,8 C 3,3 C 9,4 C 10,0 C 10,6 C 91 % 2 lf 27 cb 185 cb 113 cb 43 cb 1029,6 hPa 0,0 l/m 0,0 km/h (0 Bft) W 269 0 min 0,000 mm 0,0 UV-I 0 W/m 5,4 C 6,8 C 0,0 km/h (0 Bft)
07.10.2022 01:44 6,8 C 3,3 C 9,4 C 10,0 C 10,6 C 91 % 2 lf 27 cb 185 cb 113 cb 43 cb 1029,6 hPa 0,0 l/m 0,0 km/h (0 Bft) W 269 0 min 0,000 mm 0,0 UV-I 0 W/m 5,4 C 6,8 C 0,0 km/h (0 Bft)
07.10.2022 01:43 6,8 C 3,3 C 9,4 C 10,0 C 10,6 C 91 % 2 lf 27 cb 185 cb 113 cb 43 cb 1029,6 hPa 0,0 l/m 0,0 km/h (0 Bft) W 269 0 min 0,000 mm 0,0 UV-I 0 W/m 5,4 C 6,8 C 0,0 km/h (0 Bft)
07.10.2022 01:42 6,8 C 3,3 C 9,4 C 10,0 C 10,6 C 91 % 2 lf 27 cb 185 cb 113 cb 43 cb 1029,6 hPa 0,0 l/m 0,0 km/h (0 Bft) W 269 0 min 0,000 mm 0,0 UV-I 0 W/m 5,4 C 6,8 C 0,0 km/h (0 Bft)
07.10.2022 01:40 6,8 C 3,3 C 9,4 C 10,0 C 10,6 C 90 % 2 lf 27 cb 185 cb 113 cb 43 cb 1029,6 hPa 0,0 l/m 0,0 km/h (0 Bft) W 269 0 min 0,000 mm 0,0 UV-I 0 W/m 5,3 C 6,8 C 0,0 km/h (0 Bft)
07.10.2022 01:39 6,8 C 3,3 C 9,4 C 10,0 C 10,6 C 90 % 2 lf 27 cb 185 cb 113 cb 43 cb 1029,6 hPa 0,0 l/m 0,0 km/h (0 Bft) W 269 0 min 0,000 mm 0,0 UV-I 0 W/m 5,3 C 6,8 C 0,0 km/h (0 Bft)
07.10.2022 01:38 6,8 C 3,3 C 9,4 C 10,0 C 10,6 C 90 % 2 lf 27 cb 185 cb 113 cb 43 cb 1029,7 hPa 0,0 l/m 0,0 km/h (0 Bft) W 269 0 min 0,000 mm 0,0 UV-I 0 W/m 5,3 C 6,8 C 0,0 km/h (0 Bft)
07.10.2022 01:37 6,8 C 3,9 C 9,4 C 10,0 C 10,6 C 90 % 2 lf 27 cb 185 cb 113 cb 43 cb 1029,6 hPa 0,0 l/m 0,0 km/h (0 Bft) W 269 0 min 0,000 mm 0,0 UV-I 0 W/m 5,3 C 6,8 C 0,0 km/h (0 Bft)
07.10.2022 01:36 6,9 C 3,9 C 9,4 C 10,0 C 10,6 C 90 % 2 lf 27 cb 184 cb 113 cb 43 cb 1029,7 hPa 0,0 l/m 0,0 km/h (0 Bft) W 269 0 min 0,000 mm 0,0 UV-I 0 W/m 5,4 C 6,9 C 0,0 km/h (0 Bft)
07.10.2022 01:35 6,9 C 3,9 C 9,4 C 10,0 C 10,6 C 90 % 2 lf 27 cb 184 cb 113 cb 43 cb 1029,7 hPa 0,0 l/m 0,0 km/h (0 Bft) W 269 0 min 0,000 mm 0,0 UV-I 0 W/m 5,4 C 6,9 C 0,0 km/h (0 Bft)
07.10.2022 01:34 6,9 C 3,9 C 9,4 C 10,0 C 10,6 C 90 % 2 lf 27 cb 184 cb 113 cb 43 cb 1029,7 hPa 0,0 l/m 0,0 km/h (0 Bft) W 269 0 min 0,000 mm 0,0 UV-I 0 W/m 5,4 C 6,9 C 0,0 km/h (0 Bft)
07.10.2022 01:33 6,9 C 3,9 C 9,4 C 10,0 C 10,6 C 91 % 2 lf 27 cb 184 cb 113 cb 43 cb 1029,7 hPa 0,0 l/m 0,0 km/h (0 Bft) W 269 0 min 0,000 mm 0,0 UV-I 0 W/m 5,5 C 6,9 C 0,0 km/h (0 Bft)
07.10.2022 01:32 6,9 C 3,9 C 9,4 C 10,0 C 10,6 C 90 % 2 lf 27 cb 184 cb 113 cb 43 cb 1029,7 hPa 0,0 l/m 0,0 km/h (0 Bft) W 269 0 min 0,000 mm 0,0 UV-I 0 W/m 5,4 C 6,9 C 0,0 km/h (0 Bft)
07.10.2022 01:31 6,9 C 3,9 C 9,4 C 10,0 C 10,6 C 91 % 2 lf 27 cb 184 cb 113 cb 43 cb 1029,7 hPa 0,0 l/m 0,0 km/h (0 Bft) W 269 0 min 0,000 mm 0,0 UV-I 0 W/m 5,5 C 6,9 C 0,0 km/h (0 Bft)
07.10.2022 01:30 7,0 C 3,9 C 9,4 C 10,0 C 10,6 C 91 % 1 lf 27 cb 184 cb 113 cb 43 cb 1029,7 hPa 0,0 l/m 0,0 km/h (0 Bft) W 269 0 min 0,000 mm 0,0 UV-I 0 W/m 5,6 C 7,0 C 0,0 km/h (0 Bft)
07.10.2022 01:29 7,0 C 3,9 C 9,4 C 10,0 C 10,6 C 90 % 1 lf 27 cb 184 cb 113 cb 43 cb 1029,7 hPa 0,0 l/m 0,0 km/h (0 Bft) W 269 0 min 0,000 mm 0,0 UV-I 0 W/m 5,5 C 7,0 C 0,0 km/h (0 Bft)
07.10.2022 01:27 7,1 C 3,9 C 9,4 C 10,0 C 10,6 C 91 % 1 lf 27 cb 184 cb 113 cb 43 cb 1029,7 hPa 0,0 l/m 0,0 km/h (0 Bft) W 269 0 min 0,000 mm 0,0 UV-I 0 W/m 5,7 C 7,1 C 0,0 km/h (0 Bft)
07.10.2022 01:26 7,1 C 3,9 C 9,4 C 10,0 C 10,6 C 91 % 1 lf 27 cb 184 cb 113 cb 43 cb 1029,7 hPa 0,0 l/m 0,0 km/h (0 Bft) W 269 0 min 0,000 mm 0,0 UV-I 0 W/m 5,7 C 7,1 C 0,0 km/h (0 Bft)
07.10.2022 01:25 7,1 C 3,9 C 9,4 C 10,0 C 10,6 C 91 % 1 lf 27 cb 184 cb 113 cb 43 cb 1029,7 hPa 0,0 l/m 0,0 km/h (0 Bft) W 269 0 min 0,000 mm 0,0 UV-I 0 W/m 5,7 C 7,1 C 0,0 km/h (0 Bft)
07.10.2022 01:24 7,1 C 3,9 C 9,4 C 10,0 C 10,6 C 91 % 1 lf 27 cb 184 cb 113 cb 43 cb 1029,7 hPa 0,0 l/m 0,0 km/h (0 Bft) W 269 0 min 0,000 mm 0,0 UV-I 0 W/m 5,7 C 7,1 C 0,0 km/h (0 Bft)
07.10.2022 01:23 7,1 C 3,9 C 9,4 C 10,0 C 10,6 C 90 % 1 lf 27 cb 184 cb 113 cb 43 cb 1029,8 hPa 0,0 l/m 0,0 km/h (0 Bft) W 269 0 min 0,000 mm 0,0 UV-I 0 W/m 5,6 C 7,1 C 0,0 km/h (0 Bft)
07.10.2022 01:22 7,1 C 3,9 C 9,4 C 10,0 C 10,6 C 91 % 1 lf 27 cb 184 cb 113 cb 43 cb 1029,8 hPa 0,0 l/m 0,0 km/h (0 Bft) W 269 0 min 0,000 mm 0,0 UV-I 0 W/m 5,7 C 7,1 C 0,0 km/h (0 Bft)
07.10.2022 01:21 7,1 C 3,9 C 9,4 C 10,0 C 10,6 C 91 % 1 lf 27 cb 184 cb 113 cb 43 cb 1029,8 hPa 0,0 l/m 0,0 km/h (0 Bft) W 269 0 min 0,000 mm 0,0 UV-I 0 W/m 5,7 C 7,1 C 0,0 km/h (0 Bft)
07.10.2022 01:20 7,2 C 3,9 C 9,4 C 10,0 C 10,6 C 91 % 1 lf 27 cb 184 cb 113 cb 43 cb 1029,8 hPa 0,0 l/m 0,0 km/h (0 Bft) W 269 0 min 0,000 mm 0,0 UV-I 0 W/m 5,8 C 7,2 C 0,0 km/h (0 Bft)
07.10.2022 01:19 7,2 C 3,9 C 9,4 C 10,0 C 10,6 C 91 % 1 lf 27 cb 184 cb 113 cb 43 cb 1029,9 hPa 0,0 l/m 0,0 km/h (0 Bft) W 269 0 min 0,000 mm 0,0 UV-I 0 W/m 5,8 C 7,2 C 0,0 km/h (0 Bft)
07.10.2022 01:18 7,2 C 3,9 C 9,4 C 10,0 C 10,6 C 91 % 1 lf 27 cb 184 cb 113 cb 43 cb 1029,9 hPa 0,0 l/m 0,0 km/h (0 Bft) W 269 0 min 0,000 mm 0,0 UV-I 0 W/m 5,8 C 7,2 C 0,0 km/h (0 Bft)
07.10.2022 01:17 7,2 C 3,9 C 9,4 C 10,0 C 10,6 C 91 % 1 lf 27 cb 184 cb 113 cb 43 cb 1029,9 hPa 0,0 l/m 0,0 km/h (0 Bft) W 269 0 min 0,000 mm 0,0 UV-I 0 W/m 5,8 C 7,2 C 0,0 km/h (0 Bft)
07.10.2022 01:16 7,2 C 3,9 C 9,4 C 10,0 C 10,6 C 91 % 1 lf 27 cb 184 cb 113 cb 43 cb 1029,8 hPa 0,0 l/m 0,0 km/h (0 Bft) W 269 0 min 0,000 mm 0,0 UV-I 0 W/m 5,8 C 7,2 C 0,0 km/h (0 Bft)
07.10.2022 01:15 7,2 C 3,9 C 9,4 C 10,0 C 10,6 C 91 % 1 lf 27 cb 184 cb 113 cb 43 cb 1029,9 hPa 0,0 l/m 0,0 km/h (0 Bft) W 269 0 min 0,000 mm 0,0 UV-I 0 W/m 5,8 C 7,2 C 0,0 km/h (0 Bft)
07.10.2022 01:14 7,2 C 3,9 C 9,4 C 10,0 C 10,6 C 91 % 1 lf 27 cb 184 cb 113 cb 43 cb 1029,9 hPa 0,0 l/m 0,0 km/h (0 Bft) W 269 0 min 0,000 mm 0,0 UV-I 0 W/m 5,8 C 7,2 C 0,0 km/h (0 Bft)
07.10.2022 01:13 7,2 C 3,9 C 9,4 C 10,0 C 10,6 C 91 % 1 lf 27 cb 184 cb 113 cb 43 cb 1029,9 hPa 0,0 l/m 0,0 km/h (0 Bft) W 269 0 min 0,000 mm 0,0 UV-I 0 W/m 5,8 C 7,2 C 0,0 km/h (0 Bft)
07.10.2022 01:12 7,2 C 3,9 C 9,4 C 10,0 C 10,6 C 91 % 1 lf 27 cb 184 cb 113 cb 43 cb 1029,9 hPa 0,0 l/m 0,0 km/h (0 Bft) W 269 0 min 0,000 mm 0,0 UV-I 0 W/m 5,8 C 7,2 C 0,0 km/h (0 Bft)
07.10.2022 01:11 7,2 C 3,9 C 9,4 C 10,0 C 10,6 C 91 % 1 lf 27 cb 184 cb 113 cb 43 cb 1029,9 hPa 0,0 l/m 0,0 km/h (0 Bft) W 269 0 min 0,000 mm 0,0 UV-I 0 W/m 5,8 C 7,2 C 0,0 km/h (0 Bft)
07.10.2022 01:10 7,2 C 3,9 C 9,4 C 10,0 C 10,6 C 91 % 1 lf 27 cb 184 cb 113 cb 43 cb 1029,9 hPa 0,0 l/m 0,0 km/h (0 Bft) W 269 0 min 0,000 mm 0,0 UV-I 0 W/m 5,8 C 7,2 C 0,0 km/h (0 Bft)
07.10.2022 01:09 7,2 C 3,9 C 9,4 C 10,0 C 10,6 C 91 % 1 lf 27 cb 184 cb 113 cb 43 cb 1029,9 hPa 0,0 l/m 0,0 km/h (0 Bft) W 269 0 min 0,000 mm 0,0 UV-I 0 W/m 5,8 C 7,2 C 0,0 km/h (0 Bft)
07.10.2022 01:08 7,2 C 3,9 C 9,4 C 10,0 C 10,6 C 91 % 1 lf 27 cb 184 cb 113 cb 43 cb 1030,0 hPa 0,0 l/m 0,0 km/h (0 Bft) W 269 0 min 0,000 mm 0,0 UV-I 0 W/m 5,8 C 7,2 C 0,0 km/h (0 Bft)
07.10.2022 01:07 7,2 C 3,9 C 9,4 C 10,0 C 10,6 C 91 % 1 lf 27 cb 184 cb 113 cb 43 cb 1030,0 hPa 0,0 l/m 0,0 km/h (0 Bft) W 269 0 min 0,000 mm 0,0 UV-I 0 W/m 5,8 C 7,2 C 0,0 km/h (0 Bft)
07.10.2022 01:06 7,2 C 3,9 C 9,4 C 10,0 C 10,6 C 91 % 1 lf 27 cb 184 cb 113 cb 43 cb 1030,1 hPa 0,0 l/m 0,0 km/h (0 Bft) W 269 0 min 0,000 mm 0,0 UV-I 0 W/m 5,8 C 7,2 C 0,0 km/h (0 Bft)
07.10.2022 01:05 7,2 C 3,9 C 9,4 C 10,0 C 10,6 C 91 % 1 lf 27 cb 184 cb 113 cb 43 cb 1030,1 hPa 0,0 l/m 0,0 km/h (0 Bft) W 269 0 min 0,000 mm 0,0 UV-I 0 W/m 5,8 C 7,2 C 0,0 km/h (0 Bft)
07.10.2022 01:04 7,2 C 3,9 C 9,4 C 10,0 C 10,6 C 91 % 1 lf 27 cb 184 cb 113 cb 43 cb 1030,0 hPa 0,0 l/m 0,0 km/h (0 Bft) W 269 0 min 0,000 mm 0,0 UV-I 0 W/m 5,8 C 7,2 C 0,0 km/h (0 Bft)
07.10.2022 01:03 7,2 C 3,9 C 9,4 C 10,0 C 10,6 C 91 % 1 lf 27 cb 184 cb 113 cb 43 cb 1030,1 hPa 0,0 l/m 0,0 km/h (0 Bft) W 269 0 min 0,000 mm 0,0 UV-I 0 W/m 5,8 C 7,2 C 0,0 km/h (0 Bft)
07.10.2022 01:02 7,2 C 3,9 C 9,4 C 10,0 C 10,6 C 91 % 1 lf 27 cb 184 cb 113 cb 43 cb 1030,1 hPa 0,0 l/m 0,0 km/h (0 Bft) W 269 0 min 0,000 mm 0,0 UV-I 0 W/m 5,8 C 7,2 C 0,0 km/h (0 Bft)
07.10.2022 01:01 7,2 C 3,9 C 9,4 C 10,0 C 10,6 C 91 % 1 lf 27 cb 184 cb 113 cb 43 cb 1030,1 hPa 0,0 l/m 0,0 km/h (0 Bft) W 269 0 min 0,000 mm 0,0 UV-I 0 W/m 5,8 C 7,2 C 0,0 km/h (0 Bft)
07.10.2022 01:00 7,1 C 3,9 C 9,4 C 10,0 C 10,6 C 91 % 1 lf 27 cb 184 cb 113 cb 43 cb 1030,1 hPa 0,0 l/m 0,0 km/h (0 Bft) W 269 0 min 0,000 mm 0,0 UV-I 0 W/m 5,7 C 7,1 C 0,0 km/h (0 Bft)
07.10.2022 00:59 7,1 C 3,9 C 9,4 C 10,0 C 10,6 C 91 % 1 lf 27 cb 184 cb 113 cb 43 cb 1030,1 hPa 0,0 l/m 0,0 km/h (0 Bft) W 269 0 min 0,000 mm 0,0 UV-I 0 W/m 5,7 C 7,1 C 0,0 km/h (0 Bft)
07.10.2022 00:58 7,1 C 3,9 C 9,4 C 10,0 C 10,6 C 91 % 1 lf 27 cb 184 cb 113 cb 43 cb 1030,1 hPa 0,0 l/m 0,0 km/h (0 Bft) W 269 0 min 0,000 mm 0,0 UV-I 0 W/m 5,7 C 7,1 C 0,0 km/h (0 Bft)
07.10.2022 00:57 7,1 C 3,9 C 9,4 C 10,0 C 10,6 C 91 % 1 lf 27 cb 184 cb 113 cb 43 cb 1030,2 hPa 0,0 l/m 0,0 km/h (0 Bft) W 269 0 min 0,000 mm 0,0 UV-I 0 W/m 5,7 C 7,1 C 0,0 km/h (0 Bft)
07.10.2022 00:56 7,1 C 3,9 C 9,4 C 10,0 C 10,6 C 91 % 0 lf 27 cb 184 cb 113 cb 43 cb 1030,1 hPa 0,0 l/m 0,0 km/h (0 Bft) W 269 0 min 0,000 mm 0,0 UV-I 0 W/m 5,7 C 7,1 C 0,0 km/h (0 Bft)
07.10.2022 00:55 7,1 C 3,9 C 9,4 C 10,0 C 10,6 C 91 % 0 lf 27 cb 184 cb 113 cb 43 cb 1030,2 hPa 0,0 l/m 0,0 km/h (0 Bft) W 269 0 min 0,000 mm 0,0 UV-I 0 W/m 5,7 C 7,1 C 0,0 km/h (0 Bft)
07.10.2022 00:54 7,1 C 3,9 C 9,4 C 10,0 C 10,6 C 91 % 1 lf 27 cb 184 cb 113 cb 43 cb 1030,2 hPa 0,0 l/m 0,0 km/h (0 Bft) W 269 0 min 0,000 mm 0,0 UV-I 0 W/m 5,7 C 7,1 C 0,0 km/h (0 Bft)
07.10.2022 00:53 7,1 C 3,9 C 9,4 C 10,0 C 10,6 C 91 % 1 lf 27 cb 184 cb 113 cb 43 cb 1030,1 hPa 0,0 l/m 0,0 km/h (0 Bft) W 269 0 min 0,000 mm 0,0 UV-I 0 W/m 5,7 C 7,1 C 0,0 km/h (0 Bft)
07.10.2022 00:52 7,1 C 3,9 C 9,4 C 10,0 C 10,6 C 91 % 1 lf 27 cb 184 cb 113 cb 43 cb 1030,2 hPa 0,0 l/m 0,0 km/h (0 Bft) W 269 0 min 0,000 mm 0,0 UV-I 0 W/m 5,7 C 7,1 C 0,0 km/h (0 Bft)
07.10.2022 00:51 7,1 C 3,9 C 9,4 C 10,0 C 10,6 C 91 % 1 lf 27 cb 184 cb 113 cb 43 cb 1030,2 hPa 0,0 l/m 0,0 km/h (0 Bft) W 269 0 min 0,000 mm 0,0 UV-I 0 W/m 5,7 C 7,1 C 0,0 km/h (0 Bft)
07.10.2022 00:50 7,1 C 3,9 C 9,4 C 10,0 C 10,6 C 91 % 1 lf 27 cb 184 cb 113 cb 43 cb 1030,2 hPa 0,0 l/m 0,0 km/h (0 Bft) W 269 0 min 0,000 mm 0,0 UV-I 0 W/m 5,7 C 7,1 C 0,0 km/h (0 Bft)
07.10.2022 00:48 7,1 C 3,9 C 9,4 C 10,0 C 10,6 C 91 % 1 lf 27 cb 184 cb 113 cb 43 cb 1030,2 hPa 0,0 l/m 0,0 km/h (0 Bft) W 269 0 min 0,000 mm 0,0 UV-I 0 W/m 5,7 C 7,1 C 0,0 km/h (0 Bft)
07.10.2022 00:47 7,1 C 3,9 C 9,4 C 10,0 C 10,6 C 90 % 1 lf 27 cb 184 cb 113 cb 43 cb 1030,2 hPa 0,0 l/m 0,0 km/h (0 Bft) W 269 0 min 0,000 mm 0,0 UV-I 0 W/m 5,6 C 7,1 C 0,0 km/h (0 Bft)
07.10.2022 00:46 7,1 C 3,9 C 9,4 C 10,0 C 10,6 C 90 % 1 lf 27 cb 184 cb 113 cb 43 cb 1030,2 hPa 0,0 l/m 0,0 km/h (0 Bft) W 269 0 min 0,000 mm 0,0 UV-I 0 W/m 5,6 C 7,1 C 0,0 km/h (0 Bft)
07.10.2022 00:45 7,1 C 3,9 C 9,4 C 10,0 C 10,6 C 90 % 1 lf 27 cb 184 cb 113 cb 43 cb 1030,2 hPa 0,0 l/m 0,0 km/h (0 Bft) W 269 0 min 0,000 mm 0,0 UV-I 0 W/m 5,6 C 7,1 C 0,0 km/h (0 Bft)
07.10.2022 00:44 7,1 C 3,9 C 9,4 C 10,0 C 10,6 C 90 % 1 lf 27 cb 184 cb 113 cb 43 cb 1030,3 hPa 0,0 l/m 0,0 km/h (0 Bft) W 269 0 min 0,000 mm 0,0 UV-I 0 W/m 5,6 C 7,1 C 0,0 km/h (0 Bft)
07.10.2022 00:43 7,1 C 3,9 C 9,4 C 10,0 C 10,6 C 90 % 1 lf 27 cb 184 cb 113 cb 43 cb 1030,3 hPa 0,0 l/m 0,0 km/h (0 Bft) W 269 0 min 0,000 mm 0,0 UV-I 0 W/m 5,6 C 7,1 C 0,0 km/h (0 Bft)
07.10.2022 00:42 7,1 C 3,9 C 9,4 C 10,0 C 10,6 C 90 % 1 lf 27 cb 184 cb 113 cb 43 cb 1030,3 hPa 0,0 l/m 0,0 km/h (0 Bft) W 269 0 min 0,000 mm 0,0 UV-I 0 W/m 5,6 C 7,1 C 0,0 km/h (0 Bft)
07.10.2022 00:41 7,1 C 3,9 C 9,4 C 10,0 C 10,6 C 90 % 1 lf 27 cb 184 cb 113 cb 43 cb 1030,3 hPa 0,0 l/m 0,0 km/h (0 Bft) W 269 0 min 0,000 mm 0,0 UV-I 0 W/m 5,6 C 7,1 C 0,0 km/h (0 Bft)
07.10.2022 00:40 7,1 C 3,9 C 9,4 C 10,0 C 10,6 C 90 % 1 lf 27 cb 184 cb 113 cb 43 cb 1030,3 hPa 0,0 l/m 0,0 km/h (0 Bft) W 269 0 min 0,000 mm 0,0 UV-I 0 W/m 5,6 C 7,1 C 0,0 km/h (0 Bft)
07.10.2022 00:39 7,1 C 3,9 C 9,4 C 10,0 C 10,6 C 90 % 1 lf 27 cb 184 cb 113 cb 43 cb 1030,3 hPa 0,0 l/m 0,0 km/h (0 Bft) W 269 0 min 0,000 mm 0,0 UV-I 0 W/m 5,6 C 7,1 C 0,0 km/h (0 Bft)
07.10.2022 00:38 7,2 C 3,9 C 9,4 C 10,0 C 10,6 C 90 % 1 lf 27 cb 184 cb 113 cb 43 cb 1030,3 hPa 0,0 l/m 0,0 km/h (0 Bft) W 269 0 min 0,000 mm 0,0 UV-I 0 W/m 5,7 C 7,2 C 0,0 km/h (0 Bft)
07.10.2022 00:37 7,2 C 3,9 C 9,4 C 10,0 C 10,6 C 90 % 1 lf 27 cb 184 cb 113 cb 43 cb 1030,3 hPa 0,0 l/m 0,0 km/h (0 Bft) W 269 0 min 0,000 mm 0,0 UV-I 0 W/m 5,7 C 7,2 C 0,0 km/h (0 Bft)
07.10.2022 00:36 7,2 C 3,9 C 9,4 C 10,0 C 10,6 C 90 % 1 lf 27 cb 184 cb 113 cb 43 cb 1030,3 hPa 0,0 l/m 0,0 km/h (0 Bft) W 269 0 min 0,000 mm 0,0 UV-I 0 W/m 5,7 C 7,2 C 0,0 km/h (0 Bft)
07.10.2022 00:35 7,2 C 3,9 C 9,4 C 10,6 C 10,6 C 90 % 1 lf 27 cb 184 cb 114 cb 42 cb 1030,3 hPa 0,0 l/m 0,0 km/h (0 Bft) W 269 0 min 0,000 mm 0,0 UV-I 0 W/m 5,7 C 7,2 C 0,0 km/h (0 Bft)
07.10.2022 00:34 7,2 C 3,9 C 9,4 C 10,6 C 10,6 C 90 % 1 lf 27 cb 184 cb 114 cb 43 cb 1030,3 hPa 0,0 l/m 0,0 km/h (0 Bft) W 269 0 min 0,000 mm 0,0 UV-I 0 W/m 5,7 C 7,2 C 0,0 km/h (0 Bft)
07.10.2022 00:33 7,2 C 3,9 C 9,4 C 10,6 C 10,6 C 90 % 1 lf 27 cb 184 cb 114 cb 43 cb 1030,3 hPa 0,0 l/m 0,0 km/h (0 Bft) W 269 0 min 0,000 mm 0,0 UV-I 0 W/m 5,7 C 7,2 C 0,0 km/h (0 Bft)
07.10.2022 00:32 7,2 C 3,9 C 9,4 C 10,6 C 10,6 C 90 % 1 lf 27 cb 184 cb 114 cb 43 cb 1030,4 hPa 0,0 l/m 0,0 km/h (0 Bft) W 269 0 min 0,000 mm 0,0 UV-I 0 W/m 5,7 C 7,2 C 0,0 km/h (0 Bft)
07.10.2022 00:31 7,2 C 3,9 C 9,4 C 10,6 C 10,6 C 90 % 1 lf 27 cb 184 cb 114 cb 43 cb 1030,3 hPa 0,0 l/m 0,0 km/h (0 Bft) W 269 0 min 0,000 mm 0,0 UV-I 0 W/m 5,7 C 7,2 C 0,0 km/h (0 Bft)
07.10.2022 00:30 7,2 C 3,9 C 9,4 C 10,6 C 10,6 C 90 % 1 lf 27 cb 184 cb 114 cb 42 cb 1030,4 hPa 0,0 l/m 0,0 km/h (0 Bft) W 269 0 min 0,000 mm 0,0 UV-I 0 W/m 5,7 C 7,2 C 0,0 km/h (0 Bft)
07.10.2022 00:29 7,2 C 3,9 C 9,4 C 10,6 C 10,6 C 90 % 1 lf 27 cb 184 cb 114 cb 42 cb 1030,4 hPa 0,0 l/m 0,0 km/h (0 Bft) W 269 0 min 0,000 mm 0,0 UV-I 0 W/m 5,7 C 7,2 C 0,0 km/h (0 Bft)
07.10.2022 00:28 7,2 C 3,9 C 9,4 C 10,6 C 10,6 C 90 % 1 lf 27 cb 184 cb 114 cb 43 cb 1030,4 hPa 0,0 l/m 0,0 km/h (0 Bft) W 269 0 min 0,000 mm 0,0 UV-I 0 W/m 5,7 C 7,2 C 0,0 km/h (0 Bft)
07.10.2022 00:27 7,2 C 3,9 C 9,4 C 10,6 C 10,6 C 90 % 1 lf 27 cb 184 cb 114 cb 42 cb 1030,4 hPa 0,0 l/m 0,0 km/h (0 Bft) W 269 0 min 0,000 mm 0,0 UV-I 0 W/m 5,7 C 7,2 C 0,0 km/h (0 Bft)
07.10.2022 00:26 7,3 C 3,9 C 9,4 C 10,6 C 10,6 C 91 % 1 lf 27 cb 184 cb 114 cb 42 cb 1030,4 hPa 0,0 l/m 0,0 km/h (0 Bft) W 269 0 min 0,000 mm 0,0 UV-I 0 W/m 5,9 C 7,3 C 0,0 km/h (0 Bft)
07.10.2022 00:25 7,3 C 3,9 C 9,4 C 10,6 C 10,6 C 90 % 1 lf 27 cb 184 cb 114 cb 43 cb 1030,4 hPa 0,0 l/m 0,0 km/h (0 Bft) W 269 0 min 0,000 mm 0,0 UV-I 0 W/m 5,8 C 7,3 C 0,0 km/h (0 Bft)
07.10.2022 00:24 7,2 C 3,9 C 9,4 C 10,6 C 10,6 C 91 % 0 lf 27 cb 184 cb 114 cb 43 cb 1030,4 hPa 0,0 l/m 0,0 km/h (0 Bft) W 269 0 min 0,000 mm 0,0 UV-I 0 W/m 5,8 C 7,2 C 0,0 km/h (0 Bft)
07.10.2022 00:23 7,2 C 3,9 C 9,4 C 10,6 C 10,6 C 91 % 0 lf 27 cb 184 cb 114 cb 42 cb 1030,4 hPa 0,0 l/m 0,0 km/h (0 Bft) W 269 0 min 0,000 mm 0,0 UV-I 0 W/m 5,8 C 7,2 C 0,0 km/h (0 Bft)
07.10.2022 00:22 7,2 C 3,9 C 9,4 C 10,6 C 10,6 C 90 % 0 lf 27 cb 184 cb 114 cb 42 cb 1030,4 hPa 0,0 l/m 0,0 km/h (0 Bft) W 269 0 min 0,000 mm 0,0 UV-I 0 W/m 5,7 C 7,2 C 0,0 km/h (0 Bft)
07.10.2022 00:21 7,2 C 3,9 C 9,4 C 10,6 C 10,6 C 90 % 0 lf 27 cb 184 cb 114 cb 42 cb 1030,4 hPa 0,0 l/m 0,0 km/h (0 Bft) W 269 0 min 0,000 mm 0,0 UV-I 0 W/m 5,7 C 7,2 C 0,0 km/h (0 Bft)
07.10.2022 00:20 7,2 C 3,9 C 9,4 C 10,6 C 10,6 C 90 % 0 lf 27 cb 184 cb 114 cb 43 cb 1030,4 hPa 0,0 l/m 0,0 km/h (0 Bft) W 269 0 min 0,000 mm 0,0 UV-I 0 W/m 5,7 C 7,2 C 0,0 km/h (0 Bft)
07.10.2022 00:19 7,2 C 3,9 C 9,4 C 10,6 C 10,6 C 90 % 0 lf 27 cb 183 cb 114 cb 42 cb 1030,4 hPa 0,0 l/m 0,0 km/h (0 Bft) W 269 0 min 0,000 mm 0,0 UV-I 0 W/m 5,7 C 7,2 C 0,0 km/h (0 Bft)
07.10.2022 00:18 7,2 C 3,9 C 9,4 C 10,6 C 10,6 C 90 % 0 lf 27 cb 183 cb 114 cb 42 cb 1030,4 hPa 0,0 l/m 0,0 km/h (0 Bft) W 269 0 min 0,000 mm 0,0 UV-I 0 W/m 5,7 C 7,2 C 0,0 km/h (0 Bft)
07.10.2022 00:17 7,2 C 3,9 C 9,4 C 10,6 C 10,6 C 90 % 1 lf 27 cb 184 cb 114 cb 42 cb 1030,4 hPa 0,0 l/m 0,0 km/h (0 Bft) W 269 0 min 0,000 mm 0,0 UV-I 0 W/m 5,7 C 7,2 C 0,0 km/h (0 Bft)
07.10.2022 00:16 7,2 C 3,9 C 9,4 C 10,6 C 10,6 C 90 % 1 lf 27 cb 183 cb 114 cb 42 cb 1030,4 hPa 0,0 l/m 0,0 km/h (0 Bft) W 269 0 min 0,000 mm 0,0 UV-I 0 W/m 5,7 C 7,2 C 0,0 km/h (0 Bft)
07.10.2022 00:15 7,2 C 3,9 C 9,4 C 10,6 C 10,6 C 90 % 1 lf 27 cb 183 cb 114 cb 42 cb 1030,4 hPa 0,0 l/m 0,0 km/h (0 Bft) W 269 0 min 0,000 mm 0,0 UV-I 0 W/m 5,7 C 7,2 C 0,0 km/h (0 Bft)
07.10.2022 00:14 7,2 C 3,9 C 9,4 C 10,6 C 10,6 C 90 % 1 lf 27 cb 183 cb 114 cb 42 cb 1030,4 hPa 0,0 l/m 0,0 km/h (0 Bft) W 269 0 min 0,000 mm 0,0 UV-I 0 W/m 5,7 C 7,2 C 0,0 km/h (0 Bft)
07.10.2022 00:13 7,2 C 3,9 C 9,4 C 10,6 C 10,6 C 90 % 1 lf 27 cb 183 cb 114 cb 42 cb 1030,4 hPa 0,0 l/m 0,0 km/h (0 Bft) W 269 0 min 0,000 mm 0,0 UV-I 0 W/m 5,7 C 7,2 C 0,0 km/h (0 Bft)
07.10.2022 00:12 7,2 C 3,9 C 9,4 C 10,6 C 10,6 C 90 % 1 lf 27 cb 183 cb 114 cb 42 cb 1030,4 hPa 0,0 l/m 0,0 km/h (0 Bft) W 269 0 min 0,000 mm 0,0 UV-I 0 W/m 5,7 C 7,2 C 0,0 km/h (0 Bft)
07.10.2022 00:11 7,2 C 3,9 C 9,4 C 10,6 C 10,6 C 90 % 1 lf 27 cb 183 cb 114 cb 42 cb 1030,4 hPa 0,0 l/m 0,0 km/h (0 Bft) W 269 0 min 0,000 mm 0,0 UV-I 0 W/m 5,7 C 7,2 C 0,0 km/h (0 Bft)
07.10.2022 00:10 7,2 C 3,9 C 9,4 C 10,6 C 10,6 C 90 % 1 lf 27 cb 183 cb 114 cb 42 cb 1030,4 hPa 0,0 l/m 0,0 km/h (0 Bft) W 269 0 min 0,000 mm 0,0 UV-I 0 W/m 5,7 C 7,2 C 0,0 km/h (0 Bft)
07.10.2022 00:09 7,2 C 3,9 C 9,4 C 10,6 C 10,6 C 90 % 1 lf 27 cb 183 cb 114 cb 42 cb 1030,4 hPa 0,0 l/m 0,0 km/h (0 Bft) W 269 0 min 0,000 mm 0,0 UV-I 0 W/m 5,7 C 7,2 C 0,0 km/h (0 Bft)
07.10.2022 00:08 7,2 C 3,9 C 9,4 C 10,6 C 10,6 C 90 % 1 lf 27 cb 183 cb 114 cb 42 cb 1030,4 hPa 0,0 l/m 0,0 km/h (0 Bft) W 269 0 min 0,000 mm 0,0 UV-I 0 W/m 5,7 C 7,2 C 0,0 km/h (0 Bft)
07.10.2022 00:07 7,3 C 3,9 C 9,4 C 10,6 C 10,6 C 90 % 1 lf 27 cb 183 cb 114 cb 42 cb 1030,5 hPa 0,0 l/m 0,0 km/h (0 Bft) W 269 0 min 0,000 mm 0,0 UV-I 0 W/m 5,8 C 7,3 C 0,0 km/h (0 Bft)
07.10.2022 00:06 7,3 C 3,9 C 9,4 C 10,6 C 10,6 C 90 % 1 lf 27 cb 183 cb 114 cb 42 cb 1030,4 hPa 0,0 l/m 0,0 km/h (0 Bft) W 269 0 min 0,000 mm 0,0 UV-I 0 W/m 5,8 C 7,3 C 0,0 km/h (0 Bft)
07.10.2022 00:05 7,3 C 3,9 C 9,4 C 10,6 C 10,6 C 90 % 1 lf 27 cb 183 cb 114 cb 42 cb 1030,4 hPa 0,0 l/m 0,0 km/h (0 Bft) W 269 0 min 0,000 mm 0,0 UV-I 0 W/m 5,8 C 7,3 C 0,0 km/h (0 Bft)
07.10.2022 00:04 7,3 C 3,9 C 9,4 C 10,6 C 10,6 C 91 % 1 lf 27 cb 183 cb 114 cb 42 cb 1030,4 hPa 0,0 l/m 0,0 km/h (0 Bft) W 269 0 min 0,000 mm 0,0 UV-I 0 W/m 5,9 C 7,3 C 0,0 km/h (0 Bft)
07.10.2022 00:03 7,3 C 4,4 C 9,4 C 10,6 C 10,6 C 91 % 1 lf 27 cb 183 cb 114 cb 42 cb 1030,5 hPa 0,0 l/m 0,0 km/h (0 Bft) W 269 0 min 0,000 mm 0,0 UV-I 0 W/m 5,9 C 7,3 C 0,0 km/h (0 Bft)
07.10.2022 00:02 7,3 C 4,4 C 9,4 C 10,6 C 10,6 C 91 % 0 lf 27 cb 183 cb 114 cb 42 cb 1030,5 hPa 0,0 l/m 0,0 km/h (0 Bft) W 269 0 min 0,000 mm 0,0 UV-I 0 W/m 5,9 C 7,3 C 0,0 km/h (0 Bft)
07.10.2022 00:00 7,3 C 4,4 C 9,4 C 10,6 C 10,6 C 91 % 0 lf 27 cb 183 cb 114 cb 42 cb 1030,5 hPa 0,0 l/m 0,0 km/h (0 Bft) W 269 0 min 0,000 mm 0,0 UV-I 0 W/m 5,9 C 7,3 C 0,0 km/h (0 Bft)
_ Min-Zeit 07:05 03:32 05:32 07:03 06:30 13:41 00:00 00:00 00:00 03:15 00:00 13:42 - 00:00 - - - - - - 04:57 07:05 00:00
Minimum _ 5,6 C 2,8 C 8,3 C 8,9 C 9,4 C 59 % 0 lf 27 cb 183 cb 112 cb 42 cb 1023,7 hPa - 0,0 km/h (0 Bft) - - - - - - 4,6 C 5,6 C 0,0 km/h (0 Bft)
_ Max-Zeit 13:34 13:43 13:03 00:00 00:00 07:23 06:11 13:32 11:22 00:00 00:20 00:00 00:00 12:28 - - 12:27 13:00 12:57 13:08 11:16 13:34 12:58
Maximum _ 16,1 C 22,2 C 10,0 C 10,6 C 10,6 C 95 % 15 lf 34 cb 188 cb 114 cb 43 cb 1030,5 hPa 0,0 l/m 5,9 km/h
W-SW (2 Bft)
- - 2 min 0,178 mm 2,4 UV-I 557 W/m 9,7 C 16,1 C 12,9 km/h
SW (3 Bft)
Durchschnitt _ 8,6 C 6,4 C 8,9 C 9,5 C 9,8 C 87 % 6 lf 29 cb 185 cb 113 cb 43 cb 1027,3 hPa #0,0 l/m 0,4 km/h (0 Bft) W-SW - #1:30 h #0,305 mm 1,4 UV-I 164 W/m 6,5 C 8,6 C 1,6 km/h (1 Bft)